<?xml version="1.0" encoding="UTF-8" standalone="no" ?>
<gpx xmlns="http://www.topografix.com/GPX/1/1" xmlns:xsi="http://www.w3.org/2001/XMLSchema-instance" xsi:schemaLocation="http://www.topografix.com/GPX/1/1 http://www.topografix.com/GPX/1/1/gpx.xsd" version="1.1" creator="VisuGPX - https://www.visugpx.com">
  <metadata>
    <name>Puechabon - St Sylvestre</name>
    <desc><![CDATA[Très belle boucle]]></desc>
  </metadata>
  <trk>
    <name><![CDATA[puechabon]]></name>
    <trkseg>
      <trkpt lat="43.72879" lon="3.60115">
        <ele>351.499146</ele>
        <time>2015-02-22T09:30:01Z</time>
      </trkpt>
      <trkpt lat="43.72879" lon="3.60112">
        <ele>350.057251</ele>
        <time>2015-02-22T09:30:03Z</time>
      </trkpt>
      <trkpt lat="43.72881" lon="3.60109">
        <ele>352.460571</ele>
        <time>2015-02-22T09:30:05Z</time>
      </trkpt>
      <trkpt lat="43.72883" lon="3.60107">
        <ele>351.018433</ele>
        <time>2015-02-22T09:30:07Z</time>
      </trkpt>
      <trkpt lat="43.72895" lon="3.60093">
        <ele>347.653931</ele>
        <time>2015-02-22T09:30:20Z</time>
      </trkpt>
      <trkpt lat="43.72896" lon="3.60092">
        <ele>351.979858</ele>
        <time>2015-02-22T09:30:21Z</time>
      </trkpt>
      <trkpt lat="43.72896" lon="3.60091">
        <ele>348.134644</ele>
        <time>2015-02-22T09:30:22Z</time>
      </trkpt>
      <trkpt lat="43.72897" lon="3.60089">
        <ele>349.095825</ele>
        <time>2015-02-22T09:30:25Z</time>
      </trkpt>
      <trkpt lat="43.72903" lon="3.60082">
        <ele>348.134644</ele>
        <time>2015-02-22T09:30:32Z</time>
      </trkpt>
      <trkpt lat="43.72906" lon="3.60077">
        <ele>347.653931</ele>
        <time>2015-02-22T09:30:36Z</time>
      </trkpt>
      <trkpt lat="43.7291" lon="3.60072">
        <ele>348.134644</ele>
        <time>2015-02-22T09:30:41Z</time>
      </trkpt>
      <trkpt lat="43.72912" lon="3.60066">
        <ele>347.653931</ele>
        <time>2015-02-22T09:30:46Z</time>
      </trkpt>
      <trkpt lat="43.72916" lon="3.60054">
        <ele>345.25061</ele>
        <time>2015-02-22T09:30:59Z</time>
      </trkpt>
      <trkpt lat="43.72917" lon="3.60053">
        <ele>344.77002</ele>
        <time>2015-02-22T09:31:07Z</time>
      </trkpt>
      <trkpt lat="43.7292" lon="3.60047">
        <ele>342.84729</ele>
        <time>2015-02-22T09:31:21Z</time>
      </trkpt>
      <trkpt lat="43.7292" lon="3.60046">
        <ele>341.885986</ele>
        <time>2015-02-22T09:31:49Z</time>
      </trkpt>
      <trkpt lat="43.72923" lon="3.60046">
        <ele>340.924683</ele>
        <time>2015-02-22T09:32:00Z</time>
      </trkpt>
      <trkpt lat="43.72928" lon="3.60043">
        <ele>340.444092</ele>
        <time>2015-02-22T09:32:04Z</time>
      </trkpt>
      <trkpt lat="43.72939" lon="3.60024">
        <ele>339.963379</ele>
        <time>2015-02-22T09:32:20Z</time>
      </trkpt>
      <trkpt lat="43.72948" lon="3.60008">
        <ele>339.963379</ele>
        <time>2015-02-22T09:32:31Z</time>
      </trkpt>
      <trkpt lat="43.7296" lon="3.59985">
        <ele>339.963379</ele>
        <time>2015-02-22T09:32:47Z</time>
      </trkpt>
      <trkpt lat="43.72962" lon="3.59982">
        <ele>338.521484</ele>
        <time>2015-02-22T09:32:50Z</time>
      </trkpt>
      <trkpt lat="43.72967" lon="3.59974">
        <ele>338.521484</ele>
        <time>2015-02-22T09:32:56Z</time>
      </trkpt>
      <trkpt lat="43.72971" lon="3.59968">
        <ele>340.924683</ele>
        <time>2015-02-22T09:33:01Z</time>
      </trkpt>
      <trkpt lat="43.72973" lon="3.59966">
        <ele>339.002075</ele>
        <time>2015-02-22T09:33:03Z</time>
      </trkpt>
      <trkpt lat="43.72979" lon="3.59959">
        <ele>338.040771</ele>
        <time>2015-02-22T09:33:09Z</time>
      </trkpt>
      <trkpt lat="43.72982" lon="3.59954">
        <ele>339.002075</ele>
        <time>2015-02-22T09:33:12Z</time>
      </trkpt>
      <trkpt lat="43.72985" lon="3.59948">
        <ele>337.079468</ele>
        <time>2015-02-22T09:33:14Z</time>
      </trkpt>
      <trkpt lat="43.72989" lon="3.59945">
        <ele>336.598877</ele>
        <time>2015-02-22T09:33:18Z</time>
      </trkpt>
      <trkpt lat="43.72997" lon="3.5994">
        <ele>336.118164</ele>
        <time>2015-02-22T09:33:25Z</time>
      </trkpt>
      <trkpt lat="43.73009" lon="3.59935">
        <ele>336.598877</ele>
        <time>2015-02-22T09:33:36Z</time>
      </trkpt>
      <trkpt lat="43.7301" lon="3.59935">
        <ele>336.118164</ele>
        <time>2015-02-22T09:33:37Z</time>
      </trkpt>
      <trkpt lat="43.73024" lon="3.59924">
        <ele>334.195435</ele>
        <time>2015-02-22T09:33:49Z</time>
      </trkpt>
      <trkpt lat="43.73033" lon="3.59919">
        <ele>334.195435</ele>
        <time>2015-02-22T09:33:57Z</time>
      </trkpt>
      <trkpt lat="43.73036" lon="3.59916">
        <ele>330.830933</ele>
        <time>2015-02-22T09:34:03Z</time>
      </trkpt>
      <trkpt lat="43.73035" lon="3.59917">
        <ele>331.311523</ele>
        <time>2015-02-22T09:34:05Z</time>
      </trkpt>
      <trkpt lat="43.73033" lon="3.59915">
        <ele>332.75354</ele>
        <time>2015-02-22T09:34:19Z</time>
      </trkpt>
      <trkpt lat="43.73039" lon="3.59907">
        <ele>328.427612</ele>
        <time>2015-02-22T09:34:24Z</time>
      </trkpt>
      <trkpt lat="43.7304" lon="3.59906">
        <ele>329.869507</ele>
        <time>2015-02-22T09:34:25Z</time>
      </trkpt>
      <trkpt lat="43.73043" lon="3.59898">
        <ele>328.908325</ele>
        <time>2015-02-22T09:34:29Z</time>
      </trkpt>
      <trkpt lat="43.73041" lon="3.59887">
        <ele>327.946777</ele>
        <time>2015-02-22T09:34:38Z</time>
      </trkpt>
      <trkpt lat="43.73039" lon="3.59884">
        <ele>326.504883</ele>
        <time>2015-02-22T09:34:40Z</time>
      </trkpt>
      <trkpt lat="43.73025" lon="3.59878">
        <ele>329.388916</ele>
        <time>2015-02-22T09:34:50Z</time>
      </trkpt>
      <trkpt lat="43.73016" lon="3.59873">
        <ele>329.869507</ele>
        <time>2015-02-22T09:34:59Z</time>
      </trkpt>
      <trkpt lat="43.73011" lon="3.59871">
        <ele>329.388916</ele>
        <time>2015-02-22T09:35:03Z</time>
      </trkpt>
      <trkpt lat="43.73008" lon="3.59866">
        <ele>329.869507</ele>
        <time>2015-02-22T09:35:08Z</time>
      </trkpt>
      <trkpt lat="43.73" lon="3.59863">
        <ele>330.35022</ele>
        <time>2015-02-22T09:35:14Z</time>
      </trkpt>
      <trkpt lat="43.72995" lon="3.59862">
        <ele>329.388916</ele>
        <time>2015-02-22T09:35:21Z</time>
      </trkpt>
      <trkpt lat="43.72987" lon="3.59856">
        <ele>332.272827</ele>
        <time>2015-02-22T09:35:25Z</time>
      </trkpt>
      <trkpt lat="43.72985" lon="3.59855">
        <ele>331.792114</ele>
        <time>2015-02-22T09:35:26Z</time>
      </trkpt>
      <trkpt lat="43.72977" lon="3.59849">
        <ele>334.195435</ele>
        <time>2015-02-22T09:35:29Z</time>
      </trkpt>
      <trkpt lat="43.72968" lon="3.59842">
        <ele>335.156738</ele>
        <time>2015-02-22T09:35:32Z</time>
      </trkpt>
      <trkpt lat="43.72945" lon="3.59813">
        <ele>336.598877</ele>
        <time>2015-02-22T09:35:42Z</time>
      </trkpt>
      <trkpt lat="43.72943" lon="3.59797">
        <ele>337.560059</ele>
        <time>2015-02-22T09:35:52Z</time>
      </trkpt>
      <trkpt lat="43.72942" lon="3.59771">
        <ele>338.521484</ele>
        <time>2015-02-22T09:36:09Z</time>
      </trkpt>
      <trkpt lat="43.7294" lon="3.5976">
        <ele>339.482666</ele>
        <time>2015-02-22T09:36:17Z</time>
      </trkpt>
      <trkpt lat="43.72939" lon="3.59755">
        <ele>339.963379</ele>
        <time>2015-02-22T09:36:20Z</time>
      </trkpt>
      <trkpt lat="43.72937" lon="3.59739">
        <ele>342.366699</ele>
        <time>2015-02-22T09:36:32Z</time>
      </trkpt>
      <trkpt lat="43.72936" lon="3.59735">
        <ele>342.366699</ele>
        <time>2015-02-22T09:36:34Z</time>
      </trkpt>
      <trkpt lat="43.72934" lon="3.59725">
        <ele>342.84729</ele>
        <time>2015-02-22T09:36:41Z</time>
      </trkpt>
      <trkpt lat="43.72934" lon="3.59704">
        <ele>343.327881</ele>
        <time>2015-02-22T09:36:55Z</time>
      </trkpt>
      <trkpt lat="43.72934" lon="3.59695">
        <ele>342.366699</ele>
        <time>2015-02-22T09:37:02Z</time>
      </trkpt>
      <trkpt lat="43.72935" lon="3.59693">
        <ele>343.808594</ele>
        <time>2015-02-22T09:37:04Z</time>
      </trkpt>
      <trkpt lat="43.72936" lon="3.59687">
        <ele>345.731323</ele>
        <time>2015-02-22T09:37:09Z</time>
      </trkpt>
      <trkpt lat="43.72937" lon="3.59685">
        <ele>344.289429</ele>
        <time>2015-02-22T09:37:11Z</time>
      </trkpt>
      <trkpt lat="43.72938" lon="3.59675">
        <ele>346.212036</ele>
        <time>2015-02-22T09:37:18Z</time>
      </trkpt>
      <trkpt lat="43.72941" lon="3.59659">
        <ele>346.212036</ele>
        <time>2015-02-22T09:37:31Z</time>
      </trkpt>
      <trkpt lat="43.72942" lon="3.59649">
        <ele>348.134644</ele>
        <time>2015-02-22T09:37:37Z</time>
      </trkpt>
      <trkpt lat="43.72944" lon="3.59644">
        <ele>347.653931</ele>
        <time>2015-02-22T09:37:40Z</time>
      </trkpt>
      <trkpt lat="43.72947" lon="3.59626">
        <ele>350.057251</ele>
        <time>2015-02-22T09:37:54Z</time>
      </trkpt>
      <trkpt lat="43.72949" lon="3.59614">
        <ele>350.537842</ele>
        <time>2015-02-22T09:38:03Z</time>
      </trkpt>
      <trkpt lat="43.72953" lon="3.59592">
        <ele>351.018433</ele>
        <time>2015-02-22T09:38:19Z</time>
      </trkpt>
      <trkpt lat="43.72959" lon="3.59572">
        <ele>351.499146</ele>
        <time>2015-02-22T09:38:34Z</time>
      </trkpt>
      <trkpt lat="43.72964" lon="3.59554">
        <ele>351.499146</ele>
        <time>2015-02-22T09:38:47Z</time>
      </trkpt>
      <trkpt lat="43.72967" lon="3.59541">
        <ele>351.979858</ele>
        <time>2015-02-22T09:38:56Z</time>
      </trkpt>
      <trkpt lat="43.72967" lon="3.59528">
        <ele>352.460571</ele>
        <time>2015-02-22T09:39:04Z</time>
      </trkpt>
      <trkpt lat="43.72966" lon="3.59523">
        <ele>351.499146</ele>
        <time>2015-02-22T09:39:07Z</time>
      </trkpt>
      <trkpt lat="43.7297" lon="3.59509">
        <ele>352.460571</ele>
        <time>2015-02-22T09:39:19Z</time>
      </trkpt>
      <trkpt lat="43.72973" lon="3.59504">
        <ele>353.421875</ele>
        <time>2015-02-22T09:39:24Z</time>
      </trkpt>
      <trkpt lat="43.72978" lon="3.59496">
        <ele>354.86377</ele>
        <time>2015-02-22T09:39:33Z</time>
      </trkpt>
      <trkpt lat="43.72986" lon="3.59488">
        <ele>355.825195</ele>
        <time>2015-02-22T09:39:42Z</time>
      </trkpt>
      <trkpt lat="43.72991" lon="3.59482">
        <ele>355.344482</ele>
        <time>2015-02-22T09:39:56Z</time>
      </trkpt>
      <trkpt lat="43.72995" lon="3.59477">
        <ele>355.344482</ele>
        <time>2015-02-22T09:40:10Z</time>
      </trkpt>
      <trkpt lat="43.72997" lon="3.59473">
        <ele>356.305786</ele>
        <time>2015-02-22T09:40:13Z</time>
      </trkpt>
      <trkpt lat="43.72999" lon="3.59467">
        <ele>357.26709</ele>
        <time>2015-02-22T09:40:17Z</time>
      </trkpt>
      <trkpt lat="43.73002" lon="3.59461">
        <ele>357.26709</ele>
        <time>2015-02-22T09:40:25Z</time>
      </trkpt>
      <trkpt lat="43.73013" lon="3.59446">
        <ele>358.228394</ele>
        <time>2015-02-22T09:40:40Z</time>
      </trkpt>
      <trkpt lat="43.7302" lon="3.59435">
        <ele>359.67041</ele>
        <time>2015-02-22T09:40:49Z</time>
      </trkpt>
      <trkpt lat="43.73025" lon="3.59425">
        <ele>359.67041</ele>
        <time>2015-02-22T09:40:59Z</time>
      </trkpt>
      <trkpt lat="43.73022" lon="3.59411">
        <ele>361.112427</ele>
        <time>2015-02-22T09:41:13Z</time>
      </trkpt>
      <trkpt lat="43.73021" lon="3.59409">
        <ele>361.112427</ele>
        <time>2015-02-22T09:41:15Z</time>
      </trkpt>
      <trkpt lat="43.7302" lon="3.59392">
        <ele>362.07373</ele>
        <time>2015-02-22T09:41:29Z</time>
      </trkpt>
      <trkpt lat="43.73024" lon="3.59382">
        <ele>361.112427</ele>
        <time>2015-02-22T09:41:38Z</time>
      </trkpt>
      <trkpt lat="43.73026" lon="3.59376">
        <ele>357.26709</ele>
        <time>2015-02-22T09:41:47Z</time>
      </trkpt>
      <trkpt lat="43.73026" lon="3.59376">
        <ele>364.957642</ele>
        <time>2015-02-22T09:41:48Z</time>
      </trkpt>
      <trkpt lat="43.73026" lon="3.59376">
        <ele>362.554321</ele>
        <time>2015-02-22T09:41:51Z</time>
      </trkpt>
      <trkpt lat="43.73027" lon="3.59375">
        <ele>361.112427</ele>
        <time>2015-02-22T09:41:54Z</time>
      </trkpt>
      <trkpt lat="43.73028" lon="3.59377">
        <ele>360.631714</ele>
        <time>2015-02-22T09:42:01Z</time>
      </trkpt>
      <trkpt lat="43.73029" lon="3.59378">
        <ele>359.67041</ele>
        <time>2015-02-22T09:42:04Z</time>
      </trkpt>
      <trkpt lat="43.73035" lon="3.59379">
        <ele>359.189697</ele>
        <time>2015-02-22T09:42:15Z</time>
      </trkpt>
      <trkpt lat="43.73037" lon="3.59379">
        <ele>358.228394</ele>
        <time>2015-02-22T09:42:18Z</time>
      </trkpt>
      <trkpt lat="43.73039" lon="3.59376">
        <ele>358.228394</ele>
        <time>2015-02-22T09:42:23Z</time>
      </trkpt>
      <trkpt lat="43.73042" lon="3.59375">
        <ele>358.228394</ele>
        <time>2015-02-22T09:42:26Z</time>
      </trkpt>
      <trkpt lat="43.73048" lon="3.5937">
        <ele>358.708984</ele>
        <time>2015-02-22T09:42:31Z</time>
      </trkpt>
      <trkpt lat="43.73051" lon="3.59367">
        <ele>358.228394</ele>
        <time>2015-02-22T09:42:34Z</time>
      </trkpt>
      <trkpt lat="43.73053" lon="3.59363">
        <ele>358.228394</ele>
        <time>2015-02-22T09:42:39Z</time>
      </trkpt>
      <trkpt lat="43.73066" lon="3.59361">
        <ele>357.747803</ele>
        <time>2015-02-22T09:42:53Z</time>
      </trkpt>
      <trkpt lat="43.73068" lon="3.59357">
        <ele>358.228394</ele>
        <time>2015-02-22T09:42:56Z</time>
      </trkpt>
      <trkpt lat="43.73076" lon="3.59356">
        <ele>357.26709</ele>
        <time>2015-02-22T09:43:05Z</time>
      </trkpt>
      <trkpt lat="43.73087" lon="3.59339">
        <ele>357.747803</ele>
        <time>2015-02-22T09:43:21Z</time>
      </trkpt>
      <trkpt lat="43.73091" lon="3.59334">
        <ele>358.228394</ele>
        <time>2015-02-22T09:43:26Z</time>
      </trkpt>
      <trkpt lat="43.73091" lon="3.59332">
        <ele>356.786377</ele>
        <time>2015-02-22T09:43:37Z</time>
      </trkpt>
      <trkpt lat="43.73093" lon="3.59327">
        <ele>355.344482</ele>
        <time>2015-02-22T09:43:46Z</time>
      </trkpt>
      <trkpt lat="43.73098" lon="3.59328">
        <ele>354.86377</ele>
        <time>2015-02-22T09:43:59Z</time>
      </trkpt>
      <trkpt lat="43.73114" lon="3.59334">
        <ele>353.902588</ele>
        <time>2015-02-22T09:44:13Z</time>
      </trkpt>
      <trkpt lat="43.73116" lon="3.59335">
        <ele>359.189697</ele>
        <time>2015-02-22T09:44:15Z</time>
      </trkpt>
      <trkpt lat="43.73117" lon="3.59335">
        <ele>359.189697</ele>
        <time>2015-02-22T09:44:16Z</time>
      </trkpt>
      <trkpt lat="43.73118" lon="3.59335">
        <ele>354.86377</ele>
        <time>2015-02-22T09:44:17Z</time>
      </trkpt>
      <trkpt lat="43.73119" lon="3.59335">
        <ele>354.383179</ele>
        <time>2015-02-22T09:44:18Z</time>
      </trkpt>
      <trkpt lat="43.73132" lon="3.59334">
        <ele>353.902588</ele>
        <time>2015-02-22T09:44:30Z</time>
      </trkpt>
      <trkpt lat="43.73147" lon="3.59335">
        <ele>354.86377</ele>
        <time>2015-02-22T09:44:46Z</time>
      </trkpt>
      <trkpt lat="43.73161" lon="3.59339">
        <ele>353.902588</ele>
        <time>2015-02-22T09:45:01Z</time>
      </trkpt>
      <trkpt lat="43.73174" lon="3.59337">
        <ele>352.941162</ele>
        <time>2015-02-22T09:45:19Z</time>
      </trkpt>
      <trkpt lat="43.73174" lon="3.59337">
        <ele>350.057251</ele>
        <time>2015-02-22T09:45:27Z</time>
      </trkpt>
      <trkpt lat="43.73174" lon="3.59337">
        <ele>350.537842</ele>
        <time>2015-02-22T09:45:28Z</time>
      </trkpt>
      <trkpt lat="43.73175" lon="3.59337">
        <ele>352.941162</ele>
        <time>2015-02-22T09:45:30Z</time>
      </trkpt>
      <trkpt lat="43.73176" lon="3.59337">
        <ele>353.421875</ele>
        <time>2015-02-22T09:45:31Z</time>
      </trkpt>
      <trkpt lat="43.73179" lon="3.59334">
        <ele>351.018433</ele>
        <time>2015-02-22T09:45:35Z</time>
      </trkpt>
      <trkpt lat="43.73185" lon="3.5933">
        <ele>349.576538</ele>
        <time>2015-02-22T09:45:42Z</time>
      </trkpt>
      <trkpt lat="43.73187" lon="3.59329">
        <ele>350.057251</ele>
        <time>2015-02-22T09:45:44Z</time>
      </trkpt>
      <trkpt lat="43.73192" lon="3.59325">
        <ele>351.018433</ele>
        <time>2015-02-22T09:45:50Z</time>
      </trkpt>
      <trkpt lat="43.73208" lon="3.59318">
        <ele>350.057251</ele>
        <time>2015-02-22T09:46:07Z</time>
      </trkpt>
      <trkpt lat="43.73209" lon="3.59317">
        <ele>350.057251</ele>
        <time>2015-02-22T09:46:09Z</time>
      </trkpt>
      <trkpt lat="43.73223" lon="3.59303">
        <ele>350.057251</ele>
        <time>2015-02-22T09:46:24Z</time>
      </trkpt>
      <trkpt lat="43.73228" lon="3.59296">
        <ele>350.537842</ele>
        <time>2015-02-22T09:46:29Z</time>
      </trkpt>
      <trkpt lat="43.73227" lon="3.59293">
        <ele>350.537842</ele>
        <time>2015-02-22T09:46:31Z</time>
      </trkpt>
      <trkpt lat="43.73231" lon="3.59286">
        <ele>351.018433</ele>
        <time>2015-02-22T09:46:38Z</time>
      </trkpt>
      <trkpt lat="43.73232" lon="3.59271">
        <ele>351.499146</ele>
        <time>2015-02-22T09:46:49Z</time>
      </trkpt>
      <trkpt lat="43.73231" lon="3.59263">
        <ele>351.018433</ele>
        <time>2015-02-22T09:46:54Z</time>
      </trkpt>
      <trkpt lat="43.73232" lon="3.59243">
        <ele>353.421875</ele>
        <time>2015-02-22T09:47:09Z</time>
      </trkpt>
      <trkpt lat="43.73232" lon="3.59243">
        <ele>352.460571</ele>
        <time>2015-02-22T09:47:10Z</time>
      </trkpt>
      <trkpt lat="43.73234" lon="3.5924">
        <ele>351.979858</ele>
        <time>2015-02-22T09:47:13Z</time>
      </trkpt>
      <trkpt lat="43.73235" lon="3.59237">
        <ele>352.460571</ele>
        <time>2015-02-22T09:47:16Z</time>
      </trkpt>
      <trkpt lat="43.73242" lon="3.59225">
        <ele>351.979858</ele>
        <time>2015-02-22T09:47:26Z</time>
      </trkpt>
      <trkpt lat="43.73249" lon="3.59215">
        <ele>351.499146</ele>
        <time>2015-02-22T09:47:36Z</time>
      </trkpt>
      <trkpt lat="43.73253" lon="3.59213">
        <ele>351.499146</ele>
        <time>2015-02-22T09:47:41Z</time>
      </trkpt>
      <trkpt lat="43.73266" lon="3.5921">
        <ele>351.979858</ele>
        <time>2015-02-22T09:47:54Z</time>
      </trkpt>
      <trkpt lat="43.73279" lon="3.59203">
        <ele>352.460571</ele>
        <time>2015-02-22T09:48:07Z</time>
      </trkpt>
      <trkpt lat="43.73282" lon="3.59202">
        <ele>351.979858</ele>
        <time>2015-02-22T09:48:10Z</time>
      </trkpt>
      <trkpt lat="43.73285" lon="3.59201">
        <ele>351.979858</ele>
        <time>2015-02-22T09:48:13Z</time>
      </trkpt>
      <trkpt lat="43.73291" lon="3.59199">
        <ele>351.979858</ele>
        <time>2015-02-22T09:48:19Z</time>
      </trkpt>
      <trkpt lat="43.73307" lon="3.59198">
        <ele>351.499146</ele>
        <time>2015-02-22T09:48:33Z</time>
      </trkpt>
      <trkpt lat="43.73315" lon="3.59196">
        <ele>351.499146</ele>
        <time>2015-02-22T09:48:39Z</time>
      </trkpt>
      <trkpt lat="43.7332" lon="3.59195">
        <ele>351.499146</ele>
        <time>2015-02-22T09:48:43Z</time>
      </trkpt>
      <trkpt lat="43.73338" lon="3.59195">
        <ele>351.018433</ele>
        <time>2015-02-22T09:48:58Z</time>
      </trkpt>
      <trkpt lat="43.73345" lon="3.59193">
        <ele>351.018433</ele>
        <time>2015-02-22T09:49:05Z</time>
      </trkpt>
      <trkpt lat="43.73356" lon="3.59185">
        <ele>350.057251</ele>
        <time>2015-02-22T09:49:16Z</time>
      </trkpt>
      <trkpt lat="43.73356" lon="3.59183">
        <ele>350.057251</ele>
        <time>2015-02-22T09:49:34Z</time>
      </trkpt>
      <trkpt lat="43.73362" lon="3.59169">
        <ele>349.576538</ele>
        <time>2015-02-22T09:49:47Z</time>
      </trkpt>
      <trkpt lat="43.7337" lon="3.59156">
        <ele>348.615234</ele>
        <time>2015-02-22T09:50:02Z</time>
      </trkpt>
      <trkpt lat="43.73375" lon="3.59146">
        <ele>349.095825</ele>
        <time>2015-02-22T09:50:13Z</time>
      </trkpt>
      <trkpt lat="43.73385" lon="3.59123">
        <ele>348.134644</ele>
        <time>2015-02-22T09:50:30Z</time>
      </trkpt>
      <trkpt lat="43.73393" lon="3.59112">
        <ele>347.173218</ele>
        <time>2015-02-22T09:50:38Z</time>
      </trkpt>
      <trkpt lat="43.73395" lon="3.5911">
        <ele>348.134644</ele>
        <time>2015-02-22T09:50:40Z</time>
      </trkpt>
      <trkpt lat="43.73408" lon="3.59101">
        <ele>347.653931</ele>
        <time>2015-02-22T09:50:54Z</time>
      </trkpt>
      <trkpt lat="43.73409" lon="3.59098">
        <ele>348.615234</ele>
        <time>2015-02-22T09:50:57Z</time>
      </trkpt>
      <trkpt lat="43.73413" lon="3.59092">
        <ele>349.095825</ele>
        <time>2015-02-22T09:51:02Z</time>
      </trkpt>
      <trkpt lat="43.73429" lon="3.59084">
        <ele>348.134644</ele>
        <time>2015-02-22T09:51:13Z</time>
      </trkpt>
      <trkpt lat="43.7344" lon="3.59078">
        <ele>348.134644</ele>
        <time>2015-02-22T09:51:24Z</time>
      </trkpt>
      <trkpt lat="43.7345" lon="3.59077">
        <ele>349.576538</ele>
        <time>2015-02-22T09:51:30Z</time>
      </trkpt>
      <trkpt lat="43.73452" lon="3.59073">
        <ele>349.576538</ele>
        <time>2015-02-22T09:51:33Z</time>
      </trkpt>
      <trkpt lat="43.73469" lon="3.59059">
        <ele>348.615234</ele>
        <time>2015-02-22T09:51:48Z</time>
      </trkpt>
      <trkpt lat="43.73481" lon="3.59045">
        <ele>347.653931</ele>
        <time>2015-02-22T09:52:02Z</time>
      </trkpt>
      <trkpt lat="43.73483" lon="3.59042">
        <ele>347.653931</ele>
        <time>2015-02-22T09:52:05Z</time>
      </trkpt>
      <trkpt lat="43.73495" lon="3.5903">
        <ele>348.134644</ele>
        <time>2015-02-22T09:52:19Z</time>
      </trkpt>
      <trkpt lat="43.73513" lon="3.59015">
        <ele>346.692627</ele>
        <time>2015-02-22T09:52:34Z</time>
      </trkpt>
      <trkpt lat="43.73525" lon="3.59">
        <ele>348.134644</ele>
        <time>2015-02-22T09:52:48Z</time>
      </trkpt>
      <trkpt lat="43.73529" lon="3.58991">
        <ele>347.653931</ele>
        <time>2015-02-22T09:52:54Z</time>
      </trkpt>
      <trkpt lat="43.73536" lon="3.58974">
        <ele>347.653931</ele>
        <time>2015-02-22T09:53:08Z</time>
      </trkpt>
      <trkpt lat="43.73539" lon="3.58969">
        <ele>348.615234</ele>
        <time>2015-02-22T09:53:12Z</time>
      </trkpt>
      <trkpt lat="43.73541" lon="3.58967">
        <ele>349.095825</ele>
        <time>2015-02-22T09:53:14Z</time>
      </trkpt>
      <trkpt lat="43.73544" lon="3.58957">
        <ele>349.095825</ele>
        <time>2015-02-22T09:53:20Z</time>
      </trkpt>
      <trkpt lat="43.7355" lon="3.58939">
        <ele>349.576538</ele>
        <time>2015-02-22T09:53:34Z</time>
      </trkpt>
      <trkpt lat="43.73555" lon="3.58937">
        <ele>349.576538</ele>
        <time>2015-02-22T09:53:38Z</time>
      </trkpt>
      <trkpt lat="43.73558" lon="3.58936">
        <ele>349.576538</ele>
        <time>2015-02-22T09:53:41Z</time>
      </trkpt>
      <trkpt lat="43.73561" lon="3.58934">
        <ele>349.576538</ele>
        <time>2015-02-22T09:53:44Z</time>
      </trkpt>
      <trkpt lat="43.73567" lon="3.58923">
        <ele>349.576538</ele>
        <time>2015-02-22T09:53:53Z</time>
      </trkpt>
      <trkpt lat="43.73567" lon="3.58908">
        <ele>351.018433</ele>
        <time>2015-02-22T09:54:01Z</time>
      </trkpt>
      <trkpt lat="43.73572" lon="3.58894">
        <ele>351.018433</ele>
        <time>2015-02-22T09:54:11Z</time>
      </trkpt>
      <trkpt lat="43.73572" lon="3.58891">
        <ele>350.537842</ele>
        <time>2015-02-22T09:54:13Z</time>
      </trkpt>
      <trkpt lat="43.73573" lon="3.58889">
        <ele>349.576538</ele>
        <time>2015-02-22T09:54:15Z</time>
      </trkpt>
      <trkpt lat="43.73579" lon="3.58882">
        <ele>351.499146</ele>
        <time>2015-02-22T09:54:21Z</time>
      </trkpt>
      <trkpt lat="43.73591" lon="3.58874">
        <ele>350.057251</ele>
        <time>2015-02-22T09:54:31Z</time>
      </trkpt>
      <trkpt lat="43.73602" lon="3.58864">
        <ele>349.095825</ele>
        <time>2015-02-22T09:54:43Z</time>
      </trkpt>
      <trkpt lat="43.73606" lon="3.5886">
        <ele>349.095825</ele>
        <time>2015-02-22T09:54:48Z</time>
      </trkpt>
      <trkpt lat="43.73618" lon="3.58847">
        <ele>350.057251</ele>
        <time>2015-02-22T09:55:04Z</time>
      </trkpt>
      <trkpt lat="43.73625" lon="3.58836">
        <ele>350.537842</ele>
        <time>2015-02-22T09:55:16Z</time>
      </trkpt>
      <trkpt lat="43.73626" lon="3.58836">
        <ele>351.018433</ele>
        <time>2015-02-22T09:55:17Z</time>
      </trkpt>
      <trkpt lat="43.73632" lon="3.58824">
        <ele>352.941162</ele>
        <time>2015-02-22T09:55:30Z</time>
      </trkpt>
      <trkpt lat="43.73633" lon="3.58823">
        <ele>352.941162</ele>
        <time>2015-02-22T09:55:31Z</time>
      </trkpt>
      <trkpt lat="43.73636" lon="3.58821">
        <ele>352.941162</ele>
        <time>2015-02-22T09:55:45Z</time>
      </trkpt>
      <trkpt lat="43.7364" lon="3.58819">
        <ele>352.460571</ele>
        <time>2015-02-22T09:56:05Z</time>
      </trkpt>
      <trkpt lat="43.73645" lon="3.58815">
        <ele>352.941162</ele>
        <time>2015-02-22T09:56:11Z</time>
      </trkpt>
      <trkpt lat="43.73647" lon="3.58813">
        <ele>354.383179</ele>
        <time>2015-02-22T09:56:14Z</time>
      </trkpt>
      <trkpt lat="43.73658" lon="3.58804">
        <ele>354.383179</ele>
        <time>2015-02-22T09:56:26Z</time>
      </trkpt>
      <trkpt lat="43.73668" lon="3.58794">
        <ele>353.902588</ele>
        <time>2015-02-22T09:56:39Z</time>
      </trkpt>
      <trkpt lat="43.73683" lon="3.58785">
        <ele>353.902588</ele>
        <time>2015-02-22T09:56:54Z</time>
      </trkpt>
      <trkpt lat="43.73695" lon="3.58785">
        <ele>353.421875</ele>
        <time>2015-02-22T09:57:04Z</time>
      </trkpt>
      <trkpt lat="43.7371" lon="3.58776">
        <ele>355.344482</ele>
        <time>2015-02-22T09:57:18Z</time>
      </trkpt>
      <trkpt lat="43.73715" lon="3.58769">
        <ele>355.344482</ele>
        <time>2015-02-22T09:57:25Z</time>
      </trkpt>
      <trkpt lat="43.73719" lon="3.58761">
        <ele>356.786377</ele>
        <time>2015-02-22T09:57:33Z</time>
      </trkpt>
      <trkpt lat="43.7372" lon="3.58761">
        <ele>357.26709</ele>
        <time>2015-02-22T09:57:34Z</time>
      </trkpt>
      <trkpt lat="43.73725" lon="3.58754">
        <ele>359.189697</ele>
        <time>2015-02-22T09:57:43Z</time>
      </trkpt>
      <trkpt lat="43.73732" lon="3.58747">
        <ele>359.67041</ele>
        <time>2015-02-22T09:57:51Z</time>
      </trkpt>
      <trkpt lat="43.73735" lon="3.58743">
        <ele>360.631714</ele>
        <time>2015-02-22T09:57:55Z</time>
      </trkpt>
      <trkpt lat="43.73748" lon="3.58734">
        <ele>359.67041</ele>
        <time>2015-02-22T09:58:10Z</time>
      </trkpt>
      <trkpt lat="43.73752" lon="3.58728">
        <ele>360.151123</ele>
        <time>2015-02-22T09:58:16Z</time>
      </trkpt>
      <trkpt lat="43.73769" lon="3.58719">
        <ele>360.151123</ele>
        <time>2015-02-22T09:58:35Z</time>
      </trkpt>
      <trkpt lat="43.7377" lon="3.58718">
        <ele>362.554321</ele>
        <time>2015-02-22T09:58:37Z</time>
      </trkpt>
      <trkpt lat="43.73777" lon="3.58717">
        <ele>364.957642</ele>
        <time>2015-02-22T09:58:43Z</time>
      </trkpt>
      <trkpt lat="43.73781" lon="3.58714">
        <ele>364.476929</ele>
        <time>2015-02-22T09:58:48Z</time>
      </trkpt>
      <trkpt lat="43.73791" lon="3.58703">
        <ele>363.515747</ele>
        <time>2015-02-22T09:59:02Z</time>
      </trkpt>
      <trkpt lat="43.73792" lon="3.58702">
        <ele>363.515747</ele>
        <time>2015-02-22T09:59:03Z</time>
      </trkpt>
      <trkpt lat="43.73795" lon="3.58698">
        <ele>363.515747</ele>
        <time>2015-02-22T09:59:07Z</time>
      </trkpt>
      <trkpt lat="43.73798" lon="3.58696">
        <ele>365.918945</ele>
        <time>2015-02-22T09:59:11Z</time>
      </trkpt>
      <trkpt lat="43.73811" lon="3.58686">
        <ele>365.438354</ele>
        <time>2015-02-22T09:59:25Z</time>
      </trkpt>
      <trkpt lat="43.73813" lon="3.58685">
        <ele>365.918945</ele>
        <time>2015-02-22T09:59:27Z</time>
      </trkpt>
      <trkpt lat="43.73814" lon="3.58684">
        <ele>365.918945</ele>
        <time>2015-02-22T09:59:29Z</time>
      </trkpt>
      <trkpt lat="43.73826" lon="3.58673">
        <ele>367.841553</ele>
        <time>2015-02-22T09:59:43Z</time>
      </trkpt>
      <trkpt lat="43.7383" lon="3.5867">
        <ele>367.841553</ele>
        <time>2015-02-22T09:59:47Z</time>
      </trkpt>
      <trkpt lat="43.73833" lon="3.58663">
        <ele>367.841553</ele>
        <time>2015-02-22T09:59:53Z</time>
      </trkpt>
      <trkpt lat="43.73843" lon="3.58652">
        <ele>369.764282</ele>
        <time>2015-02-22T10:00:05Z</time>
      </trkpt>
      <trkpt lat="43.73851" lon="3.58645">
        <ele>368.802979</ele>
        <time>2015-02-22T10:00:16Z</time>
      </trkpt>
      <trkpt lat="43.73852" lon="3.58644">
        <ele>368.802979</ele>
        <time>2015-02-22T10:00:17Z</time>
      </trkpt>
      <trkpt lat="43.73861" lon="3.58639">
        <ele>371.68689</ele>
        <time>2015-02-22T10:00:28Z</time>
      </trkpt>
      <trkpt lat="43.73873" lon="3.58627">
        <ele>369.764282</ele>
        <time>2015-02-22T10:00:40Z</time>
      </trkpt>
      <trkpt lat="43.73873" lon="3.58627">
        <ele>369.764282</ele>
        <time>2015-02-22T10:00:41Z</time>
      </trkpt>
      <trkpt lat="43.73878" lon="3.58621">
        <ele>368.802979</ele>
        <time>2015-02-22T10:00:47Z</time>
      </trkpt>
      <trkpt lat="43.7388" lon="3.58617">
        <ele>370.244873</ele>
        <time>2015-02-22T10:00:50Z</time>
      </trkpt>
      <trkpt lat="43.73885" lon="3.58614">
        <ele>370.725586</ele>
        <time>2015-02-22T10:00:55Z</time>
      </trkpt>
      <trkpt lat="43.73902" lon="3.58602">
        <ele>370.725586</ele>
        <time>2015-02-22T10:01:11Z</time>
      </trkpt>
      <trkpt lat="43.73902" lon="3.58601">
        <ele>371.206299</ele>
        <time>2015-02-22T10:01:12Z</time>
      </trkpt>
      <trkpt lat="43.73908" lon="3.58592">
        <ele>371.206299</ele>
        <time>2015-02-22T10:01:20Z</time>
      </trkpt>
      <trkpt lat="43.73923" lon="3.58585">
        <ele>369.764282</ele>
        <time>2015-02-22T10:01:34Z</time>
      </trkpt>
      <trkpt lat="43.73942" lon="3.58578">
        <ele>367.841553</ele>
        <time>2015-02-22T10:01:50Z</time>
      </trkpt>
      <trkpt lat="43.73946" lon="3.58576">
        <ele>366.399536</ele>
        <time>2015-02-22T10:01:54Z</time>
      </trkpt>
      <trkpt lat="43.73962" lon="3.58568">
        <ele>366.399536</ele>
        <time>2015-02-22T10:02:08Z</time>
      </trkpt>
      <trkpt lat="43.73972" lon="3.58567">
        <ele>365.438354</ele>
        <time>2015-02-22T10:02:17Z</time>
      </trkpt>
      <trkpt lat="43.73988" lon="3.58565">
        <ele>364.476929</ele>
        <time>2015-02-22T10:02:30Z</time>
      </trkpt>
      <trkpt lat="43.73992" lon="3.58563">
        <ele>363.996338</ele>
        <time>2015-02-22T10:02:35Z</time>
      </trkpt>
      <trkpt lat="43.74008" lon="3.5856">
        <ele>363.035034</ele>
        <time>2015-02-22T10:02:50Z</time>
      </trkpt>
      <trkpt lat="43.74011" lon="3.58559">
        <ele>362.07373</ele>
        <time>2015-02-22T10:02:52Z</time>
      </trkpt>
      <trkpt lat="43.74017" lon="3.58553">
        <ele>362.07373</ele>
        <time>2015-02-22T10:03:05Z</time>
      </trkpt>
      <trkpt lat="43.74018" lon="3.58553">
        <ele>361.112427</ele>
        <time>2015-02-22T10:03:17Z</time>
      </trkpt>
      <trkpt lat="43.74022" lon="3.58552">
        <ele>362.07373</ele>
        <time>2015-02-22T10:03:28Z</time>
      </trkpt>
      <trkpt lat="43.74036" lon="3.58541">
        <ele>361.59314</ele>
        <time>2015-02-22T10:03:41Z</time>
      </trkpt>
      <trkpt lat="43.74038" lon="3.58539">
        <ele>362.554321</ele>
        <time>2015-02-22T10:03:43Z</time>
      </trkpt>
      <trkpt lat="43.74039" lon="3.58536">
        <ele>361.59314</ele>
        <time>2015-02-22T10:03:45Z</time>
      </trkpt>
      <trkpt lat="43.7404" lon="3.58531">
        <ele>363.035034</ele>
        <time>2015-02-22T10:03:50Z</time>
      </trkpt>
      <trkpt lat="43.74042" lon="3.58527">
        <ele>362.554321</ele>
        <time>2015-02-22T10:04:04Z</time>
      </trkpt>
      <trkpt lat="43.74041" lon="3.58526">
        <ele>362.554321</ele>
        <time>2015-02-22T10:04:07Z</time>
      </trkpt>
      <trkpt lat="43.7404" lon="3.58518">
        <ele>363.515747</ele>
        <time>2015-02-22T10:04:12Z</time>
      </trkpt>
      <trkpt lat="43.74037" lon="3.5851">
        <ele>363.515747</ele>
        <time>2015-02-22T10:04:18Z</time>
      </trkpt>
      <trkpt lat="43.74035" lon="3.58492">
        <ele>365.918945</ele>
        <time>2015-02-22T10:04:32Z</time>
      </trkpt>
      <trkpt lat="43.74035" lon="3.5849">
        <ele>365.918945</ele>
        <time>2015-02-22T10:04:33Z</time>
      </trkpt>
      <trkpt lat="43.74033" lon="3.5848">
        <ele>365.438354</ele>
        <time>2015-02-22T10:04:41Z</time>
      </trkpt>
      <trkpt lat="43.74033" lon="3.58472">
        <ele>368.802979</ele>
        <time>2015-02-22T10:04:46Z</time>
      </trkpt>
      <trkpt lat="43.74035" lon="3.58465">
        <ele>365.918945</ele>
        <time>2015-02-22T10:04:51Z</time>
      </trkpt>
      <trkpt lat="43.74035" lon="3.58463">
        <ele>365.918945</ele>
        <time>2015-02-22T10:04:52Z</time>
      </trkpt>
      <trkpt lat="43.74035" lon="3.58451">
        <ele>367.360962</ele>
        <time>2015-02-22T10:04:59Z</time>
      </trkpt>
      <trkpt lat="43.74029" lon="3.58437">
        <ele>368.802979</ele>
        <time>2015-02-22T10:05:11Z</time>
      </trkpt>
      <trkpt lat="43.74025" lon="3.58423">
        <ele>368.802979</ele>
        <time>2015-02-22T10:05:22Z</time>
      </trkpt>
      <trkpt lat="43.74024" lon="3.58409">
        <ele>369.764282</ele>
        <time>2015-02-22T10:05:32Z</time>
      </trkpt>
      <trkpt lat="43.74023" lon="3.58399">
        <ele>370.244873</ele>
        <time>2015-02-22T10:05:38Z</time>
      </trkpt>
      <trkpt lat="43.74016" lon="3.58376">
        <ele>370.725586</ele>
        <time>2015-02-22T10:05:53Z</time>
      </trkpt>
      <trkpt lat="43.74009" lon="3.58355">
        <ele>372.648193</ele>
        <time>2015-02-22T10:06:07Z</time>
      </trkpt>
      <trkpt lat="43.74007" lon="3.58352">
        <ele>371.68689</ele>
        <time>2015-02-22T10:06:09Z</time>
      </trkpt>
      <trkpt lat="43.74001" lon="3.58339">
        <ele>371.206299</ele>
        <time>2015-02-22T10:06:23Z</time>
      </trkpt>
      <trkpt lat="43.74" lon="3.58335">
        <ele>370.725586</ele>
        <time>2015-02-22T10:06:35Z</time>
      </trkpt>
      <trkpt lat="43.74001" lon="3.58334">
        <ele>370.725586</ele>
        <time>2015-02-22T10:07:04Z</time>
      </trkpt>
      <trkpt lat="43.74003" lon="3.58325">
        <ele>370.244873</ele>
        <time>2015-02-22T10:07:15Z</time>
      </trkpt>
      <trkpt lat="43.74004" lon="3.58326">
        <ele>368.322266</ele>
        <time>2015-02-22T10:07:21Z</time>
      </trkpt>
      <trkpt lat="43.74004" lon="3.58326">
        <ele>371.68689</ele>
        <time>2015-02-22T10:07:36Z</time>
      </trkpt>
      <trkpt lat="43.74004" lon="3.58327">
        <ele>369.764282</ele>
        <time>2015-02-22T10:08:05Z</time>
      </trkpt>
      <trkpt lat="43.74003" lon="3.58328">
        <ele>369.283691</ele>
        <time>2015-02-22T10:08:34Z</time>
      </trkpt>
      <trkpt lat="43.74003" lon="3.58327">
        <ele>371.206299</ele>
        <time>2015-02-22T10:08:43Z</time>
      </trkpt>
      <trkpt lat="43.74003" lon="3.58328">
        <ele>368.322266</ele>
        <time>2015-02-22T10:08:45Z</time>
      </trkpt>
      <trkpt lat="43.74004" lon="3.58329">
        <ele>367.360962</ele>
        <time>2015-02-22T10:08:55Z</time>
      </trkpt>
      <trkpt lat="43.74003" lon="3.58327">
        <ele>370.725586</ele>
        <time>2015-02-22T10:09:02Z</time>
      </trkpt>
      <trkpt lat="43.74003" lon="3.58327">
        <ele>370.244873</ele>
        <time>2015-02-22T10:09:03Z</time>
      </trkpt>
      <trkpt lat="43.74002" lon="3.58326">
        <ele>370.725586</ele>
        <time>2015-02-22T10:09:06Z</time>
      </trkpt>
      <trkpt lat="43.74002" lon="3.58326">
        <ele>371.68689</ele>
        <time>2015-02-22T10:09:13Z</time>
      </trkpt>
      <trkpt lat="43.74004" lon="3.58327">
        <ele>368.802979</ele>
        <time>2015-02-22T10:09:15Z</time>
      </trkpt>
      <trkpt lat="43.74005" lon="3.58327">
        <ele>371.206299</ele>
        <time>2015-02-22T10:09:17Z</time>
      </trkpt>
      <trkpt lat="43.74003" lon="3.58328">
        <ele>369.283691</ele>
        <time>2015-02-22T10:09:29Z</time>
      </trkpt>
      <trkpt lat="43.74002" lon="3.58328">
        <ele>370.725586</ele>
        <time>2015-02-22T10:09:31Z</time>
      </trkpt>
      <trkpt lat="43.74003" lon="3.58329">
        <ele>367.360962</ele>
        <time>2015-02-22T10:09:41Z</time>
      </trkpt>
      <trkpt lat="43.74003" lon="3.5833">
        <ele>367.841553</ele>
        <time>2015-02-22T10:09:42Z</time>
      </trkpt>
      <trkpt lat="43.74" lon="3.58329">
        <ele>368.802979</ele>
        <time>2015-02-22T10:09:45Z</time>
      </trkpt>
      <trkpt lat="43.73998" lon="3.58328">
        <ele>366.880249</ele>
        <time>2015-02-22T10:09:50Z</time>
      </trkpt>
      <trkpt lat="43.73997" lon="3.58328">
        <ele>367.841553</ele>
        <time>2015-02-22T10:09:52Z</time>
      </trkpt>
      <trkpt lat="43.73997" lon="3.58327">
        <ele>366.399536</ele>
        <time>2015-02-22T10:10:14Z</time>
      </trkpt>
      <trkpt lat="43.73997" lon="3.58327">
        <ele>367.841553</ele>
        <time>2015-02-22T10:10:16Z</time>
      </trkpt>
      <trkpt lat="43.73994" lon="3.58326">
        <ele>367.360962</ele>
        <time>2015-02-22T10:10:25Z</time>
      </trkpt>
      <trkpt lat="43.73988" lon="3.58322">
        <ele>366.399536</ele>
        <time>2015-02-22T10:10:30Z</time>
      </trkpt>
      <trkpt lat="43.73978" lon="3.58311">
        <ele>367.360962</ele>
        <time>2015-02-22T10:10:42Z</time>
      </trkpt>
      <trkpt lat="43.73966" lon="3.58299">
        <ele>364.957642</ele>
        <time>2015-02-22T10:10:54Z</time>
      </trkpt>
      <trkpt lat="43.73961" lon="3.58289">
        <ele>365.438354</ele>
        <time>2015-02-22T10:11:01Z</time>
      </trkpt>
      <trkpt lat="43.73958" lon="3.58279">
        <ele>366.880249</ele>
        <time>2015-02-22T10:11:07Z</time>
      </trkpt>
      <trkpt lat="43.73953" lon="3.58271">
        <ele>365.918945</ele>
        <time>2015-02-22T10:11:13Z</time>
      </trkpt>
      <trkpt lat="43.73951" lon="3.58263">
        <ele>365.438354</ele>
        <time>2015-02-22T10:11:17Z</time>
      </trkpt>
      <trkpt lat="43.73947" lon="3.58256">
        <ele>367.360962</ele>
        <time>2015-02-22T10:11:22Z</time>
      </trkpt>
      <trkpt lat="43.73938" lon="3.58239">
        <ele>367.360962</ele>
        <time>2015-02-22T10:11:33Z</time>
      </trkpt>
      <trkpt lat="43.73929" lon="3.58219">
        <ele>366.399536</ele>
        <time>2015-02-22T10:11:46Z</time>
      </trkpt>
      <trkpt lat="43.73921" lon="3.58209">
        <ele>365.438354</ele>
        <time>2015-02-22T10:11:55Z</time>
      </trkpt>
      <trkpt lat="43.73911" lon="3.58189">
        <ele>363.996338</ele>
        <time>2015-02-22T10:12:10Z</time>
      </trkpt>
      <trkpt lat="43.73902" lon="3.58168">
        <ele>363.515747</ele>
        <time>2015-02-22T10:12:24Z</time>
      </trkpt>
      <trkpt lat="43.73901" lon="3.58166">
        <ele>363.515747</ele>
        <time>2015-02-22T10:12:26Z</time>
      </trkpt>
      <trkpt lat="43.73897" lon="3.58152">
        <ele>362.07373</ele>
        <time>2015-02-22T10:12:34Z</time>
      </trkpt>
      <trkpt lat="43.73897" lon="3.58147">
        <ele>363.515747</ele>
        <time>2015-02-22T10:12:37Z</time>
      </trkpt>
      <trkpt lat="43.739" lon="3.58134">
        <ele>359.67041</ele>
        <time>2015-02-22T10:12:45Z</time>
      </trkpt>
      <trkpt lat="43.73904" lon="3.58126">
        <ele>358.228394</ele>
        <time>2015-02-22T10:12:52Z</time>
      </trkpt>
      <trkpt lat="43.73906" lon="3.58123">
        <ele>356.786377</ele>
        <time>2015-02-22T10:12:55Z</time>
      </trkpt>
      <trkpt lat="43.73912" lon="3.58107">
        <ele>356.786377</ele>
        <time>2015-02-22T10:13:03Z</time>
      </trkpt>
      <trkpt lat="43.73907" lon="3.58105">
        <ele>356.786377</ele>
        <time>2015-02-22T10:13:06Z</time>
      </trkpt>
      <trkpt lat="43.73905" lon="3.58097">
        <ele>356.786377</ele>
        <time>2015-02-22T10:13:11Z</time>
      </trkpt>
      <trkpt lat="43.73906" lon="3.58092">
        <ele>356.305786</ele>
        <time>2015-02-22T10:13:15Z</time>
      </trkpt>
      <trkpt lat="43.73911" lon="3.58074">
        <ele>354.383179</ele>
        <time>2015-02-22T10:13:28Z</time>
      </trkpt>
      <trkpt lat="43.73914" lon="3.58071">
        <ele>353.421875</ele>
        <time>2015-02-22T10:13:31Z</time>
      </trkpt>
      <trkpt lat="43.73915" lon="3.58063">
        <ele>350.057251</ele>
        <time>2015-02-22T10:13:34Z</time>
      </trkpt>
      <trkpt lat="43.73915" lon="3.58059">
        <ele>350.057251</ele>
        <time>2015-02-22T10:13:35Z</time>
      </trkpt>
      <trkpt lat="43.73913" lon="3.58053">
        <ele>348.615234</ele>
        <time>2015-02-22T10:13:37Z</time>
      </trkpt>
      <trkpt lat="43.73913" lon="3.58046">
        <ele>347.173218</ele>
        <time>2015-02-22T10:13:41Z</time>
      </trkpt>
      <trkpt lat="43.73918" lon="3.58044">
        <ele>346.212036</ele>
        <time>2015-02-22T10:13:46Z</time>
      </trkpt>
      <trkpt lat="43.73923" lon="3.58043">
        <ele>346.212036</ele>
        <time>2015-02-22T10:13:50Z</time>
      </trkpt>
      <trkpt lat="43.73926" lon="3.58038">
        <ele>344.77002</ele>
        <time>2015-02-22T10:13:56Z</time>
      </trkpt>
      <trkpt lat="43.73926" lon="3.58034">
        <ele>342.366699</ele>
        <time>2015-02-22T10:14:08Z</time>
      </trkpt>
      <trkpt lat="43.73927" lon="3.58029">
        <ele>341.405273</ele>
        <time>2015-02-22T10:14:12Z</time>
      </trkpt>
      <trkpt lat="43.73928" lon="3.58028">
        <ele>342.84729</ele>
        <time>2015-02-22T10:14:14Z</time>
      </trkpt>
      <trkpt lat="43.73933" lon="3.58028">
        <ele>342.366699</ele>
        <time>2015-02-22T10:14:24Z</time>
      </trkpt>
      <trkpt lat="43.73937" lon="3.58023">
        <ele>339.002075</ele>
        <time>2015-02-22T10:14:34Z</time>
      </trkpt>
      <trkpt lat="43.73938" lon="3.58023">
        <ele>340.444092</ele>
        <time>2015-02-22T10:14:43Z</time>
      </trkpt>
      <trkpt lat="43.7394" lon="3.58023">
        <ele>339.002075</ele>
        <time>2015-02-22T10:14:45Z</time>
      </trkpt>
      <trkpt lat="43.73952" lon="3.58032">
        <ele>339.963379</ele>
        <time>2015-02-22T10:14:57Z</time>
      </trkpt>
      <trkpt lat="43.73958" lon="3.58039">
        <ele>339.963379</ele>
        <time>2015-02-22T10:15:09Z</time>
      </trkpt>
      <trkpt lat="43.73961" lon="3.5804">
        <ele>339.482666</ele>
        <time>2015-02-22T10:15:22Z</time>
      </trkpt>
      <trkpt lat="43.73963" lon="3.58046">
        <ele>339.963379</ele>
        <time>2015-02-22T10:15:32Z</time>
      </trkpt>
      <trkpt lat="43.73962" lon="3.58044">
        <ele>340.444092</ele>
        <time>2015-02-22T10:15:57Z</time>
      </trkpt>
      <trkpt lat="43.73965" lon="3.58046">
        <ele>341.405273</ele>
        <time>2015-02-22T10:16:22Z</time>
      </trkpt>
      <trkpt lat="43.73963" lon="3.58045">
        <ele>339.963379</ele>
        <time>2015-02-22T10:16:41Z</time>
      </trkpt>
      <trkpt lat="43.73963" lon="3.58044">
        <ele>341.405273</ele>
        <time>2015-02-22T10:16:44Z</time>
      </trkpt>
      <trkpt lat="43.73963" lon="3.58045">
        <ele>339.963379</ele>
        <time>2015-02-22T10:16:49Z</time>
      </trkpt>
      <trkpt lat="43.73963" lon="3.58045">
        <ele>341.885986</ele>
        <time>2015-02-22T10:16:51Z</time>
      </trkpt>
      <trkpt lat="43.73963" lon="3.58045">
        <ele>338.521484</ele>
        <time>2015-02-22T10:17:05Z</time>
      </trkpt>
      <trkpt lat="43.73963" lon="3.58044">
        <ele>342.366699</ele>
        <time>2015-02-22T10:17:09Z</time>
      </trkpt>
      <trkpt lat="43.73964" lon="3.58044">
        <ele>339.482666</ele>
        <time>2015-02-22T10:17:12Z</time>
      </trkpt>
      <trkpt lat="43.73961" lon="3.58037">
        <ele>339.963379</ele>
        <time>2015-02-22T10:17:20Z</time>
      </trkpt>
      <trkpt lat="43.7396" lon="3.58035">
        <ele>339.002075</ele>
        <time>2015-02-22T10:17:24Z</time>
      </trkpt>
      <trkpt lat="43.73961" lon="3.58035">
        <ele>338.040771</ele>
        <time>2015-02-22T10:17:43Z</time>
      </trkpt>
      <trkpt lat="43.73962" lon="3.58035">
        <ele>339.963379</ele>
        <time>2015-02-22T10:17:46Z</time>
      </trkpt>
      <trkpt lat="43.73962" lon="3.58035">
        <ele>336.598877</ele>
        <time>2015-02-22T10:17:51Z</time>
      </trkpt>
      <trkpt lat="43.73962" lon="3.58035">
        <ele>337.079468</ele>
        <time>2015-02-22T10:17:55Z</time>
      </trkpt>
      <trkpt lat="43.73963" lon="3.58038">
        <ele>338.040771</ele>
        <time>2015-02-22T10:18:19Z</time>
      </trkpt>
      <trkpt lat="43.73962" lon="3.58037">
        <ele>341.405273</ele>
        <time>2015-02-22T10:18:24Z</time>
      </trkpt>
      <trkpt lat="43.73962" lon="3.58036">
        <ele>337.560059</ele>
        <time>2015-02-22T10:18:28Z</time>
      </trkpt>
      <trkpt lat="43.73959" lon="3.58034">
        <ele>339.002075</ele>
        <time>2015-02-22T10:18:47Z</time>
      </trkpt>
      <trkpt lat="43.7396" lon="3.58036">
        <ele>337.079468</ele>
        <time>2015-02-22T10:19:15Z</time>
      </trkpt>
      <trkpt lat="43.73959" lon="3.58035">
        <ele>336.118164</ele>
        <time>2015-02-22T10:19:37Z</time>
      </trkpt>
      <trkpt lat="43.73959" lon="3.58035">
        <ele>337.079468</ele>
        <time>2015-02-22T10:19:50Z</time>
      </trkpt>
      <trkpt lat="43.73959" lon="3.58035">
        <ele>336.118164</ele>
        <time>2015-02-22T10:19:52Z</time>
      </trkpt>
      <trkpt lat="43.73958" lon="3.58034">
        <ele>337.079468</ele>
        <time>2015-02-22T10:20:00Z</time>
      </trkpt>
      <trkpt lat="43.73961" lon="3.58035">
        <ele>336.598877</ele>
        <time>2015-02-22T10:20:28Z</time>
      </trkpt>
      <trkpt lat="43.73959" lon="3.58036">
        <ele>334.676147</ele>
        <time>2015-02-22T10:21:21Z</time>
      </trkpt>
      <trkpt lat="43.73959" lon="3.58036">
        <ele>337.560059</ele>
        <time>2015-02-22T10:21:29Z</time>
      </trkpt>
      <trkpt lat="43.73958" lon="3.58036">
        <ele>336.118164</ele>
        <time>2015-02-22T10:21:50Z</time>
      </trkpt>
      <trkpt lat="43.73957" lon="3.58038">
        <ele>334.676147</ele>
        <time>2015-02-22T10:22:11Z</time>
      </trkpt>
      <trkpt lat="43.73958" lon="3.58035">
        <ele>335.637329</ele>
        <time>2015-02-22T10:22:23Z</time>
      </trkpt>
      <trkpt lat="43.73954" lon="3.58032">
        <ele>335.637329</ele>
        <time>2015-02-22T10:22:31Z</time>
      </trkpt>
      <trkpt lat="43.7395" lon="3.58028">
        <ele>336.598877</ele>
        <time>2015-02-22T10:22:38Z</time>
      </trkpt>
      <trkpt lat="43.73948" lon="3.5802">
        <ele>336.598877</ele>
        <time>2015-02-22T10:22:48Z</time>
      </trkpt>
      <trkpt lat="43.73941" lon="3.58011">
        <ele>334.676147</ele>
        <time>2015-02-22T10:23:01Z</time>
      </trkpt>
      <trkpt lat="43.73942" lon="3.58014">
        <ele>333.234131</ele>
        <time>2015-02-22T10:23:04Z</time>
      </trkpt>
      <trkpt lat="43.73942" lon="3.58011">
        <ele>332.75354</ele>
        <time>2015-02-22T10:23:08Z</time>
      </trkpt>
      <trkpt lat="43.7394" lon="3.58008">
        <ele>331.311523</ele>
        <time>2015-02-22T10:23:10Z</time>
      </trkpt>
      <trkpt lat="43.73939" lon="3.58004">
        <ele>330.35022</ele>
        <time>2015-02-22T10:23:12Z</time>
      </trkpt>
      <trkpt lat="43.73939" lon="3.58003">
        <ele>329.869507</ele>
        <time>2015-02-22T10:23:13Z</time>
      </trkpt>
      <trkpt lat="43.73935" lon="3.57993">
        <ele>329.388916</ele>
        <time>2015-02-22T10:23:21Z</time>
      </trkpt>
      <trkpt lat="43.73934" lon="3.57984">
        <ele>328.908325</ele>
        <time>2015-02-22T10:23:27Z</time>
      </trkpt>
      <trkpt lat="43.73935" lon="3.57976">
        <ele>327.466187</ele>
        <time>2015-02-22T10:23:38Z</time>
      </trkpt>
      <trkpt lat="43.73933" lon="3.57975">
        <ele>326.504883</ele>
        <time>2015-02-22T10:23:43Z</time>
      </trkpt>
      <trkpt lat="43.73925" lon="3.5797">
        <ele>325.062988</ele>
        <time>2015-02-22T10:23:54Z</time>
      </trkpt>
      <trkpt lat="43.73924" lon="3.57969">
        <ele>324.582275</ele>
        <time>2015-02-22T10:23:55Z</time>
      </trkpt>
      <trkpt lat="43.73924" lon="3.57968">
        <ele>323.620972</ele>
        <time>2015-02-22T10:23:56Z</time>
      </trkpt>
      <trkpt lat="43.7392" lon="3.57954">
        <ele>323.140381</ele>
        <time>2015-02-22T10:24:06Z</time>
      </trkpt>
      <trkpt lat="43.73917" lon="3.57942">
        <ele>322.178955</ele>
        <time>2015-02-22T10:24:14Z</time>
      </trkpt>
      <trkpt lat="43.73913" lon="3.57931">
        <ele>320.737061</ele>
        <time>2015-02-22T10:24:25Z</time>
      </trkpt>
      <trkpt lat="43.7391" lon="3.57928">
        <ele>319.775635</ele>
        <time>2015-02-22T10:24:28Z</time>
      </trkpt>
      <trkpt lat="43.7391" lon="3.57924">
        <ele>325.062988</ele>
        <time>2015-02-22T10:24:30Z</time>
      </trkpt>
      <trkpt lat="43.73909" lon="3.57923">
        <ele>321.217773</ele>
        <time>2015-02-22T10:24:31Z</time>
      </trkpt>
      <trkpt lat="43.73907" lon="3.57914">
        <ele>318.814331</ele>
        <time>2015-02-22T10:24:39Z</time>
      </trkpt>
      <trkpt lat="43.73901" lon="3.57901">
        <ele>316.411011</ele>
        <time>2015-02-22T10:24:50Z</time>
      </trkpt>
      <trkpt lat="43.73899" lon="3.57895">
        <ele>319.295044</ele>
        <time>2015-02-22T10:25:00Z</time>
      </trkpt>
      <trkpt lat="43.73898" lon="3.57894">
        <ele>317.853027</ele>
        <time>2015-02-22T10:25:07Z</time>
      </trkpt>
      <trkpt lat="43.73896" lon="3.57886">
        <ele>319.295044</ele>
        <time>2015-02-22T10:25:19Z</time>
      </trkpt>
      <trkpt lat="43.73894" lon="3.57876">
        <ele>315.93042</ele>
        <time>2015-02-22T10:25:26Z</time>
      </trkpt>
      <trkpt lat="43.7389" lon="3.57867">
        <ele>320.256348</ele>
        <time>2015-02-22T10:25:32Z</time>
      </trkpt>
      <trkpt lat="43.7389" lon="3.57864">
        <ele>318.814331</ele>
        <time>2015-02-22T10:25:34Z</time>
      </trkpt>
      <trkpt lat="43.73886" lon="3.57849">
        <ele>317.372437</ele>
        <time>2015-02-22T10:25:42Z</time>
      </trkpt>
      <trkpt lat="43.73886" lon="3.57847">
        <ele>316.891724</ele>
        <time>2015-02-22T10:25:44Z</time>
      </trkpt>
      <trkpt lat="43.73886" lon="3.57843">
        <ele>315.449829</ele>
        <time>2015-02-22T10:25:46Z</time>
      </trkpt>
      <trkpt lat="43.73886" lon="3.57838">
        <ele>318.333618</ele>
        <time>2015-02-22T10:25:51Z</time>
      </trkpt>
      <trkpt lat="43.73886" lon="3.57836">
        <ele>319.295044</ele>
        <time>2015-02-22T10:25:52Z</time>
      </trkpt>
      <trkpt lat="43.73883" lon="3.5783">
        <ele>318.333618</ele>
        <time>2015-02-22T10:25:56Z</time>
      </trkpt>
      <trkpt lat="43.73879" lon="3.57819">
        <ele>317.372437</ele>
        <time>2015-02-22T10:26:04Z</time>
      </trkpt>
      <trkpt lat="43.73874" lon="3.57808">
        <ele>320.737061</ele>
        <time>2015-02-22T10:26:13Z</time>
      </trkpt>
      <trkpt lat="43.73874" lon="3.57806">
        <ele>319.295044</ele>
        <time>2015-02-22T10:26:14Z</time>
      </trkpt>
      <trkpt lat="43.73869" lon="3.57798">
        <ele>317.372437</ele>
        <time>2015-02-22T10:26:20Z</time>
      </trkpt>
      <trkpt lat="43.73866" lon="3.57795">
        <ele>318.333618</ele>
        <time>2015-02-22T10:26:23Z</time>
      </trkpt>
      <trkpt lat="43.73856" lon="3.57785">
        <ele>316.891724</ele>
        <time>2015-02-22T10:26:33Z</time>
      </trkpt>
      <trkpt lat="43.73854" lon="3.57784">
        <ele>318.333618</ele>
        <time>2015-02-22T10:26:35Z</time>
      </trkpt>
      <trkpt lat="43.73853" lon="3.57783">
        <ele>314.969116</ele>
        <time>2015-02-22T10:26:36Z</time>
      </trkpt>
      <trkpt lat="43.73852" lon="3.57782">
        <ele>314.969116</ele>
        <time>2015-02-22T10:26:37Z</time>
      </trkpt>
      <trkpt lat="43.7385" lon="3.5778">
        <ele>313.527222</ele>
        <time>2015-02-22T10:26:39Z</time>
      </trkpt>
      <trkpt lat="43.7384" lon="3.5777">
        <ele>312.565796</ele>
        <time>2015-02-22T10:26:50Z</time>
      </trkpt>
      <trkpt lat="43.73832" lon="3.57767">
        <ele>312.085205</ele>
        <time>2015-02-22T10:26:59Z</time>
      </trkpt>
      <trkpt lat="43.7382" lon="3.57762">
        <ele>311.604492</ele>
        <time>2015-02-22T10:27:13Z</time>
      </trkpt>
      <trkpt lat="43.73809" lon="3.57754">
        <ele>313.046509</ele>
        <time>2015-02-22T10:27:24Z</time>
      </trkpt>
      <trkpt lat="43.73808" lon="3.57753">
        <ele>312.565796</ele>
        <time>2015-02-22T10:27:25Z</time>
      </trkpt>
      <trkpt lat="43.73808" lon="3.57748">
        <ele>311.604492</ele>
        <time>2015-02-22T10:27:28Z</time>
      </trkpt>
      <trkpt lat="43.73806" lon="3.57744">
        <ele>311.604492</ele>
        <time>2015-02-22T10:27:31Z</time>
      </trkpt>
      <trkpt lat="43.73808" lon="3.57733">
        <ele>312.565796</ele>
        <time>2015-02-22T10:27:37Z</time>
      </trkpt>
      <trkpt lat="43.73805" lon="3.57726">
        <ele>312.565796</ele>
        <time>2015-02-22T10:27:41Z</time>
      </trkpt>
      <trkpt lat="43.73801" lon="3.57711">
        <ele>313.527222</ele>
        <time>2015-02-22T10:27:52Z</time>
      </trkpt>
      <trkpt lat="43.73795" lon="3.57705">
        <ele>314.007812</ele>
        <time>2015-02-22T10:27:59Z</time>
      </trkpt>
      <trkpt lat="43.73791" lon="3.577">
        <ele>314.969116</ele>
        <time>2015-02-22T10:28:03Z</time>
      </trkpt>
      <trkpt lat="43.7378" lon="3.5769">
        <ele>316.891724</ele>
        <time>2015-02-22T10:28:16Z</time>
      </trkpt>
      <trkpt lat="43.73778" lon="3.57688">
        <ele>315.449829</ele>
        <time>2015-02-22T10:28:19Z</time>
      </trkpt>
      <trkpt lat="43.73768" lon="3.57677">
        <ele>314.488403</ele>
        <time>2015-02-22T10:28:30Z</time>
      </trkpt>
      <trkpt lat="43.7376" lon="3.57674">
        <ele>314.007812</ele>
        <time>2015-02-22T10:28:57Z</time>
      </trkpt>
      <trkpt lat="43.73756" lon="3.57669">
        <ele>314.007812</ele>
        <time>2015-02-22T10:29:05Z</time>
      </trkpt>
      <trkpt lat="43.73751" lon="3.57666">
        <ele>312.565796</ele>
        <time>2015-02-22T10:29:10Z</time>
      </trkpt>
      <trkpt lat="43.73746" lon="3.57662">
        <ele>312.085205</ele>
        <time>2015-02-22T10:29:22Z</time>
      </trkpt>
      <trkpt lat="43.73746" lon="3.57662">
        <ele>314.488403</ele>
        <time>2015-02-22T10:29:25Z</time>
      </trkpt>
      <trkpt lat="43.73746" lon="3.57661">
        <ele>313.046509</ele>
        <time>2015-02-22T10:29:27Z</time>
      </trkpt>
      <trkpt lat="43.73745" lon="3.5766">
        <ele>312.565796</ele>
        <time>2015-02-22T10:29:33Z</time>
      </trkpt>
      <trkpt lat="43.7374" lon="3.57659">
        <ele>313.046509</ele>
        <time>2015-02-22T10:29:37Z</time>
      </trkpt>
      <trkpt lat="43.73736" lon="3.5766">
        <ele>313.046509</ele>
        <time>2015-02-22T10:29:41Z</time>
      </trkpt>
      <trkpt lat="43.73719" lon="3.57667">
        <ele>313.046509</ele>
        <time>2015-02-22T10:29:56Z</time>
      </trkpt>
      <trkpt lat="43.73706" lon="3.5767">
        <ele>312.085205</ele>
        <time>2015-02-22T10:30:09Z</time>
      </trkpt>
      <trkpt lat="43.73702" lon="3.57669">
        <ele>312.085205</ele>
        <time>2015-02-22T10:30:27Z</time>
      </trkpt>
      <trkpt lat="43.7369" lon="3.57667">
        <ele>311.123779</ele>
        <time>2015-02-22T10:30:50Z</time>
      </trkpt>
      <trkpt lat="43.73689" lon="3.57669">
        <ele>311.123779</ele>
        <time>2015-02-22T10:30:52Z</time>
      </trkpt>
      <trkpt lat="43.73685" lon="3.57668">
        <ele>312.085205</ele>
        <time>2015-02-22T10:30:56Z</time>
      </trkpt>
      <trkpt lat="43.73668" lon="3.57661">
        <ele>310.643066</ele>
        <time>2015-02-22T10:31:11Z</time>
      </trkpt>
      <trkpt lat="43.73655" lon="3.57659">
        <ele>310.643066</ele>
        <time>2015-02-22T10:31:23Z</time>
      </trkpt>
      <trkpt lat="43.73649" lon="3.57654">
        <ele>310.162476</ele>
        <time>2015-02-22T10:31:29Z</time>
      </trkpt>
      <trkpt lat="43.73643" lon="3.57653">
        <ele>309.201172</ele>
        <time>2015-02-22T10:31:35Z</time>
      </trkpt>
      <trkpt lat="43.73637" lon="3.57654">
        <ele>309.681885</ele>
        <time>2015-02-22T10:31:40Z</time>
      </trkpt>
      <trkpt lat="43.73632" lon="3.57655">
        <ele>309.201172</ele>
        <time>2015-02-22T10:31:44Z</time>
      </trkpt>
      <trkpt lat="43.73621" lon="3.57653">
        <ele>308.720459</ele>
        <time>2015-02-22T10:31:53Z</time>
      </trkpt>
      <trkpt lat="43.73605" lon="3.57645">
        <ele>307.759277</ele>
        <time>2015-02-22T10:32:07Z</time>
      </trkpt>
      <trkpt lat="43.73597" lon="3.57639">
        <ele>309.201172</ele>
        <time>2015-02-22T10:32:16Z</time>
      </trkpt>
      <trkpt lat="43.7359" lon="3.57637">
        <ele>309.201172</ele>
        <time>2015-02-22T10:32:21Z</time>
      </trkpt>
      <trkpt lat="43.73577" lon="3.57629">
        <ele>307.278564</ele>
        <time>2015-02-22T10:32:33Z</time>
      </trkpt>
      <trkpt lat="43.73568" lon="3.57625">
        <ele>308.239868</ele>
        <time>2015-02-22T10:32:42Z</time>
      </trkpt>
      <trkpt lat="43.7356" lon="3.57618">
        <ele>308.720459</ele>
        <time>2015-02-22T10:32:49Z</time>
      </trkpt>
      <trkpt lat="43.73554" lon="3.57614">
        <ele>307.278564</ele>
        <time>2015-02-22T10:32:54Z</time>
      </trkpt>
      <trkpt lat="43.73545" lon="3.57604">
        <ele>306.797852</ele>
        <time>2015-02-22T10:33:03Z</time>
      </trkpt>
      <trkpt lat="43.73542" lon="3.57599">
        <ele>306.797852</ele>
        <time>2015-02-22T10:33:07Z</time>
      </trkpt>
      <trkpt lat="43.7354" lon="3.57597">
        <ele>307.278564</ele>
        <time>2015-02-22T10:33:09Z</time>
      </trkpt>
      <trkpt lat="43.73535" lon="3.57592">
        <ele>306.317261</ele>
        <time>2015-02-22T10:33:16Z</time>
      </trkpt>
      <trkpt lat="43.73531" lon="3.5759">
        <ele>305.83667</ele>
        <time>2015-02-22T10:33:19Z</time>
      </trkpt>
      <trkpt lat="43.73528" lon="3.57586">
        <ele>303.433228</ele>
        <time>2015-02-22T10:33:23Z</time>
      </trkpt>
      <trkpt lat="43.73528" lon="3.57586">
        <ele>302.952515</ele>
        <time>2015-02-22T10:33:24Z</time>
      </trkpt>
      <trkpt lat="43.73524" lon="3.57584">
        <ele>302.471924</ele>
        <time>2015-02-22T10:33:28Z</time>
      </trkpt>
      <trkpt lat="43.73514" lon="3.57568">
        <ele>302.952515</ele>
        <time>2015-02-22T10:33:38Z</time>
      </trkpt>
      <trkpt lat="43.73512" lon="3.57561">
        <ele>302.952515</ele>
        <time>2015-02-22T10:33:43Z</time>
      </trkpt>
      <trkpt lat="43.73511" lon="3.57551">
        <ele>302.471924</ele>
        <time>2015-02-22T10:33:49Z</time>
      </trkpt>
      <trkpt lat="43.735" lon="3.57535">
        <ele>302.952515</ele>
        <time>2015-02-22T10:34:03Z</time>
      </trkpt>
      <trkpt lat="43.73498" lon="3.57533">
        <ele>302.952515</ele>
        <time>2015-02-22T10:34:06Z</time>
      </trkpt>
      <trkpt lat="43.73493" lon="3.57533">
        <ele>302.471924</ele>
        <time>2015-02-22T10:34:12Z</time>
      </trkpt>
      <trkpt lat="43.73489" lon="3.57528">
        <ele>301.029907</ele>
        <time>2015-02-22T10:34:15Z</time>
      </trkpt>
      <trkpt lat="43.73488" lon="3.57527">
        <ele>302.952515</ele>
        <time>2015-02-22T10:34:19Z</time>
      </trkpt>
      <trkpt lat="43.73491" lon="3.57519">
        <ele>301.029907</ele>
        <time>2015-02-22T10:34:40Z</time>
      </trkpt>
      <trkpt lat="43.73491" lon="3.57514">
        <ele>302.471924</ele>
        <time>2015-02-22T10:34:44Z</time>
      </trkpt>
      <trkpt lat="43.73493" lon="3.57508">
        <ele>301.51062</ele>
        <time>2015-02-22T10:34:49Z</time>
      </trkpt>
      <trkpt lat="43.73496" lon="3.57498">
        <ele>300.549316</ele>
        <time>2015-02-22T10:34:57Z</time>
      </trkpt>
      <trkpt lat="43.73501" lon="3.57483">
        <ele>300.068726</ele>
        <time>2015-02-22T10:35:08Z</time>
      </trkpt>
      <trkpt lat="43.73506" lon="3.57475">
        <ele>299.588013</ele>
        <time>2015-02-22T10:35:15Z</time>
      </trkpt>
      <trkpt lat="43.7351" lon="3.57472">
        <ele>299.1073</ele>
        <time>2015-02-22T10:35:18Z</time>
      </trkpt>
      <trkpt lat="43.7352" lon="3.57461">
        <ele>297.184692</ele>
        <time>2015-02-22T10:35:30Z</time>
      </trkpt>
      <trkpt lat="43.73522" lon="3.57458">
        <ele>299.1073</ele>
        <time>2015-02-22T10:35:33Z</time>
      </trkpt>
      <trkpt lat="43.73523" lon="3.57454">
        <ele>297.184692</ele>
        <time>2015-02-22T10:35:36Z</time>
      </trkpt>
      <trkpt lat="43.73528" lon="3.57447">
        <ele>298.146118</ele>
        <time>2015-02-22T10:35:52Z</time>
      </trkpt>
      <trkpt lat="43.73531" lon="3.57443">
        <ele>297.184692</ele>
        <time>2015-02-22T10:35:56Z</time>
      </trkpt>
      <trkpt lat="43.73539" lon="3.57434">
        <ele>297.184692</ele>
        <time>2015-02-22T10:36:07Z</time>
      </trkpt>
      <trkpt lat="43.73542" lon="3.57431">
        <ele>296.223511</ele>
        <time>2015-02-22T10:36:11Z</time>
      </trkpt>
      <trkpt lat="43.73548" lon="3.5742">
        <ele>295.742676</ele>
        <time>2015-02-22T10:36:27Z</time>
      </trkpt>
      <trkpt lat="43.73555" lon="3.5741">
        <ele>292.858765</ele>
        <time>2015-02-22T10:36:35Z</time>
      </trkpt>
      <trkpt lat="43.73556" lon="3.57409">
        <ele>292.858765</ele>
        <time>2015-02-22T10:36:36Z</time>
      </trkpt>
      <trkpt lat="43.73563" lon="3.57396">
        <ele>293.820068</ele>
        <time>2015-02-22T10:36:47Z</time>
      </trkpt>
      <trkpt lat="43.73565" lon="3.57392">
        <ele>291.416748</ele>
        <time>2015-02-22T10:36:50Z</time>
      </trkpt>
      <trkpt lat="43.73569" lon="3.57385">
        <ele>290.936157</ele>
        <time>2015-02-22T10:36:55Z</time>
      </trkpt>
      <trkpt lat="43.73578" lon="3.57363">
        <ele>289.974854</ele>
        <time>2015-02-22T10:37:10Z</time>
      </trkpt>
      <trkpt lat="43.73578" lon="3.5736">
        <ele>289.974854</ele>
        <time>2015-02-22T10:37:12Z</time>
      </trkpt>
      <trkpt lat="43.73581" lon="3.57356">
        <ele>290.455566</ele>
        <time>2015-02-22T10:37:15Z</time>
      </trkpt>
      <trkpt lat="43.73581" lon="3.57353">
        <ele>289.974854</ele>
        <time>2015-02-22T10:37:17Z</time>
      </trkpt>
      <trkpt lat="43.73583" lon="3.57349">
        <ele>291.897461</ele>
        <time>2015-02-22T10:37:20Z</time>
      </trkpt>
      <trkpt lat="43.73584" lon="3.57346">
        <ele>290.455566</ele>
        <time>2015-02-22T10:37:22Z</time>
      </trkpt>
      <trkpt lat="43.73585" lon="3.57343">
        <ele>289.974854</ele>
        <time>2015-02-22T10:37:24Z</time>
      </trkpt>
      <trkpt lat="43.73589" lon="3.57335">
        <ele>289.494141</ele>
        <time>2015-02-22T10:37:30Z</time>
      </trkpt>
      <trkpt lat="43.73594" lon="3.57325">
        <ele>290.455566</ele>
        <time>2015-02-22T10:37:37Z</time>
      </trkpt>
      <trkpt lat="43.73604" lon="3.57308">
        <ele>289.494141</ele>
        <time>2015-02-22T10:37:50Z</time>
      </trkpt>
      <trkpt lat="43.73609" lon="3.57295">
        <ele>289.494141</ele>
        <time>2015-02-22T10:37:58Z</time>
      </trkpt>
      <trkpt lat="43.73616" lon="3.57272">
        <ele>289.974854</ele>
        <time>2015-02-22T10:38:12Z</time>
      </trkpt>
      <trkpt lat="43.73618" lon="3.57266">
        <ele>288.532959</ele>
        <time>2015-02-22T10:38:15Z</time>
      </trkpt>
      <trkpt lat="43.73619" lon="3.57264">
        <ele>287.571411</ele>
        <time>2015-02-22T10:38:17Z</time>
      </trkpt>
      <trkpt lat="43.73622" lon="3.57243">
        <ele>286.610229</ele>
        <time>2015-02-22T10:38:29Z</time>
      </trkpt>
      <trkpt lat="43.73622" lon="3.57243">
        <ele>288.052246</ele>
        <time>2015-02-22T10:38:32Z</time>
      </trkpt>
      <trkpt lat="43.73619" lon="3.57243">
        <ele>287.09082</ele>
        <time>2015-02-22T10:38:43Z</time>
      </trkpt>
      <trkpt lat="43.73617" lon="3.57243">
        <ele>286.610229</ele>
        <time>2015-02-22T10:38:47Z</time>
      </trkpt>
      <trkpt lat="43.73608" lon="3.5724">
        <ele>287.571411</ele>
        <time>2015-02-22T10:38:59Z</time>
      </trkpt>
      <trkpt lat="43.73603" lon="3.57244">
        <ele>287.571411</ele>
        <time>2015-02-22T10:39:13Z</time>
      </trkpt>
      <trkpt lat="43.73604" lon="3.5724">
        <ele>288.532959</ele>
        <time>2015-02-22T10:39:40Z</time>
      </trkpt>
      <trkpt lat="43.73604" lon="3.57243">
        <ele>287.09082</ele>
        <time>2015-02-22T10:40:14Z</time>
      </trkpt>
      <trkpt lat="43.73604" lon="3.57244">
        <ele>288.052246</ele>
        <time>2015-02-22T10:40:21Z</time>
      </trkpt>
      <trkpt lat="43.73607" lon="3.57246">
        <ele>288.532959</ele>
        <time>2015-02-22T10:40:41Z</time>
      </trkpt>
      <trkpt lat="43.73607" lon="3.57245">
        <ele>289.494141</ele>
        <time>2015-02-22T10:40:46Z</time>
      </trkpt>
      <trkpt lat="43.73609" lon="3.57242">
        <ele>288.532959</ele>
        <time>2015-02-22T10:41:06Z</time>
      </trkpt>
      <trkpt lat="43.73615" lon="3.57243">
        <ele>287.571411</ele>
        <time>2015-02-22T10:41:17Z</time>
      </trkpt>
      <trkpt lat="43.73622" lon="3.57243">
        <ele>287.09082</ele>
        <time>2015-02-22T10:41:23Z</time>
      </trkpt>
      <trkpt lat="43.73624" lon="3.57238">
        <ele>289.494141</ele>
        <time>2015-02-22T10:41:27Z</time>
      </trkpt>
      <trkpt lat="43.73629" lon="3.57229">
        <ele>288.052246</ele>
        <time>2015-02-22T10:41:34Z</time>
      </trkpt>
      <trkpt lat="43.73631" lon="3.5722">
        <ele>287.09082</ele>
        <time>2015-02-22T10:41:39Z</time>
      </trkpt>
      <trkpt lat="43.73632" lon="3.57217">
        <ele>288.532959</ele>
        <time>2015-02-22T10:41:41Z</time>
      </trkpt>
      <trkpt lat="43.73633" lon="3.57205">
        <ele>286.610229</ele>
        <time>2015-02-22T10:41:48Z</time>
      </trkpt>
      <trkpt lat="43.73633" lon="3.57194">
        <ele>286.610229</ele>
        <time>2015-02-22T10:41:55Z</time>
      </trkpt>
      <trkpt lat="43.73634" lon="3.57188">
        <ele>287.09082</ele>
        <time>2015-02-22T10:41:59Z</time>
      </trkpt>
      <trkpt lat="43.73637" lon="3.57179">
        <ele>288.052246</ele>
        <time>2015-02-22T10:42:06Z</time>
      </trkpt>
      <trkpt lat="43.73638" lon="3.57177">
        <ele>287.571411</ele>
        <time>2015-02-22T10:42:07Z</time>
      </trkpt>
      <trkpt lat="43.73639" lon="3.57173">
        <ele>287.09082</ele>
        <time>2015-02-22T10:42:10Z</time>
      </trkpt>
      <trkpt lat="43.73642" lon="3.57161">
        <ele>286.610229</ele>
        <time>2015-02-22T10:42:19Z</time>
      </trkpt>
      <trkpt lat="43.73649" lon="3.57144">
        <ele>287.09082</ele>
        <time>2015-02-22T10:42:32Z</time>
      </trkpt>
      <trkpt lat="43.7365" lon="3.5714">
        <ele>289.01355</ele>
        <time>2015-02-22T10:42:35Z</time>
      </trkpt>
      <trkpt lat="43.73657" lon="3.57131">
        <ele>289.01355</ele>
        <time>2015-02-22T10:42:44Z</time>
      </trkpt>
      <trkpt lat="43.73662" lon="3.57126">
        <ele>289.01355</ele>
        <time>2015-02-22T10:42:56Z</time>
      </trkpt>
      <trkpt lat="43.73664" lon="3.57122">
        <ele>289.01355</ele>
        <time>2015-02-22T10:43:00Z</time>
      </trkpt>
      <trkpt lat="43.73666" lon="3.57111">
        <ele>289.494141</ele>
        <time>2015-02-22T10:43:08Z</time>
      </trkpt>
      <trkpt lat="43.73669" lon="3.57103">
        <ele>290.455566</ele>
        <time>2015-02-22T10:43:14Z</time>
      </trkpt>
      <trkpt lat="43.73671" lon="3.5709">
        <ele>289.974854</ele>
        <time>2015-02-22T10:43:22Z</time>
      </trkpt>
      <trkpt lat="43.73676" lon="3.57069">
        <ele>289.974854</ele>
        <time>2015-02-22T10:43:34Z</time>
      </trkpt>
      <trkpt lat="43.73677" lon="3.57047">
        <ele>290.936157</ele>
        <time>2015-02-22T10:43:46Z</time>
      </trkpt>
      <trkpt lat="43.73676" lon="3.57023">
        <ele>290.936157</ele>
        <time>2015-02-22T10:43:59Z</time>
      </trkpt>
      <trkpt lat="43.73682" lon="3.57006">
        <ele>291.897461</ele>
        <time>2015-02-22T10:44:09Z</time>
      </trkpt>
      <trkpt lat="43.73689" lon="3.56986">
        <ele>291.897461</ele>
        <time>2015-02-22T10:44:22Z</time>
      </trkpt>
      <trkpt lat="43.73697" lon="3.56972">
        <ele>292.378174</ele>
        <time>2015-02-22T10:44:33Z</time>
      </trkpt>
      <trkpt lat="43.73702" lon="3.5696">
        <ele>292.378174</ele>
        <time>2015-02-22T10:44:41Z</time>
      </trkpt>
      <trkpt lat="43.73701" lon="3.56935">
        <ele>291.897461</ele>
        <time>2015-02-22T10:44:55Z</time>
      </trkpt>
      <trkpt lat="43.737" lon="3.56925">
        <ele>292.378174</ele>
        <time>2015-02-22T10:45:00Z</time>
      </trkpt>
      <trkpt lat="43.73701" lon="3.56922">
        <ele>292.858765</ele>
        <time>2015-02-22T10:45:02Z</time>
      </trkpt>
      <trkpt lat="43.737" lon="3.56914">
        <ele>292.378174</ele>
        <time>2015-02-22T10:45:07Z</time>
      </trkpt>
      <trkpt lat="43.73705" lon="3.56901">
        <ele>291.897461</ele>
        <time>2015-02-22T10:45:14Z</time>
      </trkpt>
      <trkpt lat="43.73707" lon="3.56895">
        <ele>292.378174</ele>
        <time>2015-02-22T10:45:18Z</time>
      </trkpt>
      <trkpt lat="43.73711" lon="3.56884">
        <ele>291.897461</ele>
        <time>2015-02-22T10:45:26Z</time>
      </trkpt>
      <trkpt lat="43.7372" lon="3.56869">
        <ele>291.897461</ele>
        <time>2015-02-22T10:45:36Z</time>
      </trkpt>
      <trkpt lat="43.73723" lon="3.56858">
        <ele>291.897461</ele>
        <time>2015-02-22T10:45:42Z</time>
      </trkpt>
      <trkpt lat="43.73724" lon="3.56854">
        <ele>291.897461</ele>
        <time>2015-02-22T10:45:45Z</time>
      </trkpt>
      <trkpt lat="43.73731" lon="3.5683">
        <ele>292.858765</ele>
        <time>2015-02-22T10:46:01Z</time>
      </trkpt>
      <trkpt lat="43.73739" lon="3.56812">
        <ele>291.897461</ele>
        <time>2015-02-22T10:46:14Z</time>
      </trkpt>
      <trkpt lat="43.73739" lon="3.5681">
        <ele>291.897461</ele>
        <time>2015-02-22T10:46:25Z</time>
      </trkpt>
      <trkpt lat="43.7374" lon="3.56796">
        <ele>291.897461</ele>
        <time>2015-02-22T10:46:38Z</time>
      </trkpt>
      <trkpt lat="43.73741" lon="3.56789">
        <ele>292.378174</ele>
        <time>2015-02-22T10:46:43Z</time>
      </trkpt>
      <trkpt lat="43.73747" lon="3.56782">
        <ele>292.378174</ele>
        <time>2015-02-22T10:46:50Z</time>
      </trkpt>
      <trkpt lat="43.73747" lon="3.56778">
        <ele>293.339355</ele>
        <time>2015-02-22T10:46:52Z</time>
      </trkpt>
      <trkpt lat="43.73747" lon="3.56763">
        <ele>291.897461</ele>
        <time>2015-02-22T10:47:00Z</time>
      </trkpt>
      <trkpt lat="43.73746" lon="3.5675">
        <ele>291.897461</ele>
        <time>2015-02-22T10:47:06Z</time>
      </trkpt>
      <trkpt lat="43.73749" lon="3.56731">
        <ele>292.378174</ele>
        <time>2015-02-22T10:47:17Z</time>
      </trkpt>
      <trkpt lat="43.73751" lon="3.56714">
        <ele>291.416748</ele>
        <time>2015-02-22T10:47:28Z</time>
      </trkpt>
      <trkpt lat="43.73749" lon="3.56704">
        <ele>290.936157</ele>
        <time>2015-02-22T10:47:34Z</time>
      </trkpt>
      <trkpt lat="43.73749" lon="3.56688">
        <ele>290.455566</ele>
        <time>2015-02-22T10:47:42Z</time>
      </trkpt>
      <trkpt lat="43.73751" lon="3.56672">
        <ele>289.974854</ele>
        <time>2015-02-22T10:47:55Z</time>
      </trkpt>
      <trkpt lat="43.7375" lon="3.56666">
        <ele>289.974854</ele>
        <time>2015-02-22T10:47:59Z</time>
      </trkpt>
      <trkpt lat="43.73753" lon="3.56645">
        <ele>290.455566</ele>
        <time>2015-02-22T10:48:14Z</time>
      </trkpt>
      <trkpt lat="43.73756" lon="3.56645">
        <ele>289.01355</ele>
        <time>2015-02-22T10:48:31Z</time>
      </trkpt>
      <trkpt lat="43.73757" lon="3.56646">
        <ele>289.01355</ele>
        <time>2015-02-22T10:48:47Z</time>
      </trkpt>
      <trkpt lat="43.73756" lon="3.56641">
        <ele>289.494141</ele>
        <time>2015-02-22T10:49:04Z</time>
      </trkpt>
      <trkpt lat="43.73755" lon="3.5664">
        <ele>287.571411</ele>
        <time>2015-02-22T10:49:20Z</time>
      </trkpt>
      <trkpt lat="43.73755" lon="3.5664">
        <ele>288.532959</ele>
        <time>2015-02-22T10:49:34Z</time>
      </trkpt>
      <trkpt lat="43.73756" lon="3.5664">
        <ele>289.01355</ele>
        <time>2015-02-22T10:49:44Z</time>
      </trkpt>
      <trkpt lat="43.73755" lon="3.56638">
        <ele>288.052246</ele>
        <time>2015-02-22T10:49:55Z</time>
      </trkpt>
      <trkpt lat="43.73757" lon="3.56637">
        <ele>289.01355</ele>
        <time>2015-02-22T10:50:15Z</time>
      </trkpt>
      <trkpt lat="43.73757" lon="3.56637">
        <ele>290.936157</ele>
        <time>2015-02-22T10:50:35Z</time>
      </trkpt>
      <trkpt lat="43.73756" lon="3.56637">
        <ele>288.532959</ele>
        <time>2015-02-22T10:50:39Z</time>
      </trkpt>
      <trkpt lat="43.73757" lon="3.56637">
        <ele>290.455566</ele>
        <time>2015-02-22T10:50:54Z</time>
      </trkpt>
      <trkpt lat="43.73758" lon="3.56636">
        <ele>288.052246</ele>
        <time>2015-02-22T10:51:24Z</time>
      </trkpt>
      <trkpt lat="43.73757" lon="3.56637">
        <ele>289.01355</ele>
        <time>2015-02-22T10:51:37Z</time>
      </trkpt>
      <trkpt lat="43.73758" lon="3.56637">
        <ele>289.494141</ele>
        <time>2015-02-22T10:51:51Z</time>
      </trkpt>
      <trkpt lat="43.73758" lon="3.56637">
        <ele>287.571411</ele>
        <time>2015-02-22T10:52:04Z</time>
      </trkpt>
      <trkpt lat="43.73758" lon="3.56637">
        <ele>288.532959</ele>
        <time>2015-02-22T10:52:20Z</time>
      </trkpt>
      <trkpt lat="43.73758" lon="3.56637">
        <ele>286.610229</ele>
        <time>2015-02-22T10:52:23Z</time>
      </trkpt>
      <trkpt lat="43.73758" lon="3.56636">
        <ele>286.129517</ele>
        <time>2015-02-22T10:52:44Z</time>
      </trkpt>
      <trkpt lat="43.73757" lon="3.56633">
        <ele>288.052246</ele>
        <time>2015-02-22T10:53:17Z</time>
      </trkpt>
      <trkpt lat="43.73754" lon="3.56629">
        <ele>288.052246</ele>
        <time>2015-02-22T10:53:23Z</time>
      </trkpt>
      <trkpt lat="43.73745" lon="3.5662">
        <ele>289.974854</ele>
        <time>2015-02-22T10:53:38Z</time>
      </trkpt>
      <trkpt lat="43.73738" lon="3.56611">
        <ele>290.455566</ele>
        <time>2015-02-22T10:53:52Z</time>
      </trkpt>
      <trkpt lat="43.73737" lon="3.56608">
        <ele>289.01355</ele>
        <time>2015-02-22T10:54:09Z</time>
      </trkpt>
      <trkpt lat="43.73737" lon="3.56608">
        <ele>289.01355</ele>
        <time>2015-02-22T10:54:29Z</time>
      </trkpt>
      <trkpt lat="43.73735" lon="3.56607">
        <ele>288.532959</ele>
        <time>2015-02-22T10:54:45Z</time>
      </trkpt>
      <trkpt lat="43.73736" lon="3.56602">
        <ele>289.01355</ele>
        <time>2015-02-22T10:54:57Z</time>
      </trkpt>
      <trkpt lat="43.7374" lon="3.56599">
        <ele>288.052246</ele>
        <time>2015-02-22T10:55:10Z</time>
      </trkpt>
      <trkpt lat="43.73742" lon="3.56595">
        <ele>288.532959</ele>
        <time>2015-02-22T10:55:15Z</time>
      </trkpt>
      <trkpt lat="43.73752" lon="3.56581">
        <ele>288.532959</ele>
        <time>2015-02-22T10:55:33Z</time>
      </trkpt>
      <trkpt lat="43.73754" lon="3.56575">
        <ele>288.532959</ele>
        <time>2015-02-22T10:55:46Z</time>
      </trkpt>
      <trkpt lat="43.73753" lon="3.56572">
        <ele>287.571411</ele>
        <time>2015-02-22T10:55:48Z</time>
      </trkpt>
      <trkpt lat="43.73752" lon="3.56566">
        <ele>288.052246</ele>
        <time>2015-02-22T10:55:52Z</time>
      </trkpt>
      <trkpt lat="43.73752" lon="3.56558">
        <ele>288.532959</ele>
        <time>2015-02-22T10:55:57Z</time>
      </trkpt>
      <trkpt lat="43.73763" lon="3.56547">
        <ele>288.532959</ele>
        <time>2015-02-22T10:56:09Z</time>
      </trkpt>
      <trkpt lat="43.73764" lon="3.56544">
        <ele>287.571411</ele>
        <time>2015-02-22T10:56:11Z</time>
      </trkpt>
      <trkpt lat="43.73767" lon="3.56528">
        <ele>288.052246</ele>
        <time>2015-02-22T10:56:22Z</time>
      </trkpt>
      <trkpt lat="43.73779" lon="3.5652">
        <ele>287.09082</ele>
        <time>2015-02-22T10:56:33Z</time>
      </trkpt>
      <trkpt lat="43.73786" lon="3.56515">
        <ele>287.571411</ele>
        <time>2015-02-22T10:56:40Z</time>
      </trkpt>
      <trkpt lat="43.73789" lon="3.56512">
        <ele>287.571411</ele>
        <time>2015-02-22T10:56:44Z</time>
      </trkpt>
      <trkpt lat="43.7379" lon="3.56501">
        <ele>287.571411</ele>
        <time>2015-02-22T10:56:53Z</time>
      </trkpt>
      <trkpt lat="43.73792" lon="3.56491">
        <ele>286.610229</ele>
        <time>2015-02-22T10:57:06Z</time>
      </trkpt>
      <trkpt lat="43.73793" lon="3.56486">
        <ele>286.129517</ele>
        <time>2015-02-22T10:57:15Z</time>
      </trkpt>
      <trkpt lat="43.73786" lon="3.56476">
        <ele>284.206909</ele>
        <time>2015-02-22T10:57:29Z</time>
      </trkpt>
      <trkpt lat="43.73787" lon="3.56478">
        <ele>285.168213</ele>
        <time>2015-02-22T10:57:41Z</time>
      </trkpt>
      <trkpt lat="43.7379" lon="3.56478">
        <ele>284.687622</ele>
        <time>2015-02-22T10:58:04Z</time>
      </trkpt>
      <trkpt lat="43.73787" lon="3.56475">
        <ele>283.245605</ele>
        <time>2015-02-22T10:58:35Z</time>
      </trkpt>
      <trkpt lat="43.73785" lon="3.56477">
        <ele>286.610229</ele>
        <time>2015-02-22T10:59:26Z</time>
      </trkpt>
      <trkpt lat="43.73785" lon="3.56476">
        <ele>284.687622</ele>
        <time>2015-02-22T10:59:29Z</time>
      </trkpt>
      <trkpt lat="43.73783" lon="3.56472">
        <ele>284.206909</ele>
        <time>2015-02-22T10:59:33Z</time>
      </trkpt>
      <trkpt lat="43.73773" lon="3.56465">
        <ele>284.687622</ele>
        <time>2015-02-22T10:59:45Z</time>
      </trkpt>
      <trkpt lat="43.73764" lon="3.56462">
        <ele>283.726196</ele>
        <time>2015-02-22T10:59:54Z</time>
      </trkpt>
      <trkpt lat="43.73747" lon="3.56461">
        <ele>286.129517</ele>
        <time>2015-02-22T11:00:08Z</time>
      </trkpt>
      <trkpt lat="43.7374" lon="3.5646">
        <ele>287.571411</ele>
        <time>2015-02-22T11:00:14Z</time>
      </trkpt>
      <trkpt lat="43.73736" lon="3.56455">
        <ele>289.01355</ele>
        <time>2015-02-22T11:00:19Z</time>
      </trkpt>
      <trkpt lat="43.73736" lon="3.56452">
        <ele>287.571411</ele>
        <time>2015-02-22T11:00:21Z</time>
      </trkpt>
      <trkpt lat="43.73733" lon="3.5645">
        <ele>286.610229</ele>
        <time>2015-02-22T11:00:23Z</time>
      </trkpt>
      <trkpt lat="43.73732" lon="3.56449">
        <ele>286.129517</ele>
        <time>2015-02-22T11:00:25Z</time>
      </trkpt>
      <trkpt lat="43.73727" lon="3.56441">
        <ele>287.09082</ele>
        <time>2015-02-22T11:00:29Z</time>
      </trkpt>
      <trkpt lat="43.73718" lon="3.56424">
        <ele>289.974854</ele>
        <time>2015-02-22T11:00:43Z</time>
      </trkpt>
      <trkpt lat="43.73712" lon="3.56419">
        <ele>289.974854</ele>
        <time>2015-02-22T11:00:49Z</time>
      </trkpt>
      <trkpt lat="43.73706" lon="3.56418">
        <ele>288.532959</ele>
        <time>2015-02-22T11:00:54Z</time>
      </trkpt>
      <trkpt lat="43.73693" lon="3.56404">
        <ele>287.09082</ele>
        <time>2015-02-22T11:01:09Z</time>
      </trkpt>
      <trkpt lat="43.73691" lon="3.56402">
        <ele>287.09082</ele>
        <time>2015-02-22T11:01:11Z</time>
      </trkpt>
      <trkpt lat="43.7369" lon="3.56399">
        <ele>288.052246</ele>
        <time>2015-02-22T11:01:13Z</time>
      </trkpt>
      <trkpt lat="43.73688" lon="3.56396">
        <ele>286.610229</ele>
        <time>2015-02-22T11:01:15Z</time>
      </trkpt>
      <trkpt lat="43.73683" lon="3.56388">
        <ele>288.052246</ele>
        <time>2015-02-22T11:01:20Z</time>
      </trkpt>
      <trkpt lat="43.73679" lon="3.56371">
        <ele>287.571411</ele>
        <time>2015-02-22T11:01:30Z</time>
      </trkpt>
      <trkpt lat="43.73668" lon="3.56355">
        <ele>287.571411</ele>
        <time>2015-02-22T11:01:44Z</time>
      </trkpt>
      <trkpt lat="43.73662" lon="3.5635">
        <ele>288.052246</ele>
        <time>2015-02-22T11:01:50Z</time>
      </trkpt>
      <trkpt lat="43.73657" lon="3.56345">
        <ele>288.052246</ele>
        <time>2015-02-22T11:01:56Z</time>
      </trkpt>
      <trkpt lat="43.7365" lon="3.56348">
        <ele>288.532959</ele>
        <time>2015-02-22T11:02:03Z</time>
      </trkpt>
      <trkpt lat="43.73642" lon="3.5635">
        <ele>288.052246</ele>
        <time>2015-02-22T11:02:12Z</time>
      </trkpt>
      <trkpt lat="43.73637" lon="3.56349">
        <ele>288.532959</ele>
        <time>2015-02-22T11:02:17Z</time>
      </trkpt>
      <trkpt lat="43.73632" lon="3.56349">
        <ele>289.01355</ele>
        <time>2015-02-22T11:02:21Z</time>
      </trkpt>
      <trkpt lat="43.73624" lon="3.56349">
        <ele>289.494141</ele>
        <time>2015-02-22T11:02:28Z</time>
      </trkpt>
      <trkpt lat="43.73619" lon="3.56347">
        <ele>289.494141</ele>
        <time>2015-02-22T11:02:32Z</time>
      </trkpt>
      <trkpt lat="43.73613" lon="3.56347">
        <ele>290.455566</ele>
        <time>2015-02-22T11:02:37Z</time>
      </trkpt>
      <trkpt lat="43.7361" lon="3.56346">
        <ele>289.974854</ele>
        <time>2015-02-22T11:02:40Z</time>
      </trkpt>
      <trkpt lat="43.73605" lon="3.56341">
        <ele>290.936157</ele>
        <time>2015-02-22T11:02:45Z</time>
      </trkpt>
      <trkpt lat="43.73599" lon="3.56331">
        <ele>290.455566</ele>
        <time>2015-02-22T11:02:57Z</time>
      </trkpt>
      <trkpt lat="43.73598" lon="3.56326">
        <ele>289.974854</ele>
        <time>2015-02-22T11:03:00Z</time>
      </trkpt>
      <trkpt lat="43.73598" lon="3.56319">
        <ele>289.494141</ele>
        <time>2015-02-22T11:03:04Z</time>
      </trkpt>
      <trkpt lat="43.73596" lon="3.5631">
        <ele>287.571411</ele>
        <time>2015-02-22T11:03:11Z</time>
      </trkpt>
      <trkpt lat="43.73593" lon="3.56302">
        <ele>287.571411</ele>
        <time>2015-02-22T11:03:16Z</time>
      </trkpt>
      <trkpt lat="43.7359" lon="3.56297">
        <ele>288.052246</ele>
        <time>2015-02-22T11:03:21Z</time>
      </trkpt>
      <trkpt lat="43.73587" lon="3.56294">
        <ele>288.052246</ele>
        <time>2015-02-22T11:03:39Z</time>
      </trkpt>
      <trkpt lat="43.73579" lon="3.56291">
        <ele>288.532959</ele>
        <time>2015-02-22T11:03:48Z</time>
      </trkpt>
      <trkpt lat="43.7357" lon="3.56289">
        <ele>289.01355</ele>
        <time>2015-02-22T11:03:54Z</time>
      </trkpt>
      <trkpt lat="43.73562" lon="3.56289">
        <ele>287.571411</ele>
        <time>2015-02-22T11:04:01Z</time>
      </trkpt>
      <trkpt lat="43.73562" lon="3.5629">
        <ele>287.571411</ele>
        <time>2015-02-22T11:04:02Z</time>
      </trkpt>
      <trkpt lat="43.73558" lon="3.56291">
        <ele>289.494141</ele>
        <time>2015-02-22T11:04:05Z</time>
      </trkpt>
      <trkpt lat="43.73555" lon="3.56292">
        <ele>289.974854</ele>
        <time>2015-02-22T11:04:08Z</time>
      </trkpt>
      <trkpt lat="43.73552" lon="3.56294">
        <ele>289.494141</ele>
        <time>2015-02-22T11:04:11Z</time>
      </trkpt>
      <trkpt lat="43.73539" lon="3.56285">
        <ele>291.416748</ele>
        <time>2015-02-22T11:04:24Z</time>
      </trkpt>
      <trkpt lat="43.73539" lon="3.56285">
        <ele>290.936157</ele>
        <time>2015-02-22T11:04:34Z</time>
      </trkpt>
      <trkpt lat="43.73537" lon="3.56282">
        <ele>290.455566</ele>
        <time>2015-02-22T11:04:43Z</time>
      </trkpt>
      <trkpt lat="43.73536" lon="3.56276">
        <ele>289.01355</ele>
        <time>2015-02-22T11:04:47Z</time>
      </trkpt>
      <trkpt lat="43.73529" lon="3.56268">
        <ele>290.455566</ele>
        <time>2015-02-22T11:04:57Z</time>
      </trkpt>
      <trkpt lat="43.73527" lon="3.56267">
        <ele>290.455566</ele>
        <time>2015-02-22T11:04:59Z</time>
      </trkpt>
      <trkpt lat="43.73523" lon="3.56266">
        <ele>290.455566</ele>
        <time>2015-02-22T11:05:03Z</time>
      </trkpt>
      <trkpt lat="43.73519" lon="3.56266">
        <ele>290.936157</ele>
        <time>2015-02-22T11:05:07Z</time>
      </trkpt>
      <trkpt lat="43.73506" lon="3.56256">
        <ele>291.897461</ele>
        <time>2015-02-22T11:05:19Z</time>
      </trkpt>
      <trkpt lat="43.73494" lon="3.56252">
        <ele>293.339355</ele>
        <time>2015-02-22T11:05:32Z</time>
      </trkpt>
      <trkpt lat="43.73494" lon="3.56249">
        <ele>290.455566</ele>
        <time>2015-02-22T11:05:47Z</time>
      </trkpt>
      <trkpt lat="43.73492" lon="3.56247">
        <ele>289.974854</ele>
        <time>2015-02-22T11:05:49Z</time>
      </trkpt>
      <trkpt lat="43.73493" lon="3.56248">
        <ele>291.897461</ele>
        <time>2015-02-22T11:05:54Z</time>
      </trkpt>
      <trkpt lat="43.73493" lon="3.56251">
        <ele>293.820068</ele>
        <time>2015-02-22T11:06:12Z</time>
      </trkpt>
      <trkpt lat="43.73491" lon="3.56254">
        <ele>294.781372</ele>
        <time>2015-02-22T11:06:37Z</time>
      </trkpt>
      <trkpt lat="43.73496" lon="3.56254">
        <ele>294.300781</ele>
        <time>2015-02-22T11:06:54Z</time>
      </trkpt>
      <trkpt lat="43.73495" lon="3.56253">
        <ele>296.704102</ele>
        <time>2015-02-22T11:07:07Z</time>
      </trkpt>
      <trkpt lat="43.73495" lon="3.56255">
        <ele>297.665405</ele>
        <time>2015-02-22T11:07:21Z</time>
      </trkpt>
      <trkpt lat="43.73494" lon="3.56253">
        <ele>298.146118</ele>
        <time>2015-02-22T11:07:31Z</time>
      </trkpt>
      <trkpt lat="43.73494" lon="3.56254">
        <ele>295.742676</ele>
        <time>2015-02-22T11:07:44Z</time>
      </trkpt>
      <trkpt lat="43.73494" lon="3.56253">
        <ele>299.1073</ele>
        <time>2015-02-22T11:07:49Z</time>
      </trkpt>
      <trkpt lat="43.73488" lon="3.56252">
        <ele>298.146118</ele>
        <time>2015-02-22T11:07:59Z</time>
      </trkpt>
      <trkpt lat="43.73475" lon="3.56252">
        <ele>299.588013</ele>
        <time>2015-02-22T11:08:11Z</time>
      </trkpt>
      <trkpt lat="43.73472" lon="3.56249">
        <ele>298.146118</ele>
        <time>2015-02-22T11:08:16Z</time>
      </trkpt>
      <trkpt lat="43.73467" lon="3.56237">
        <ele>298.146118</ele>
        <time>2015-02-22T11:08:27Z</time>
      </trkpt>
      <trkpt lat="43.73464" lon="3.56235">
        <ele>296.223511</ele>
        <time>2015-02-22T11:08:30Z</time>
      </trkpt>
      <trkpt lat="43.73463" lon="3.56233">
        <ele>296.223511</ele>
        <time>2015-02-22T11:08:32Z</time>
      </trkpt>
      <trkpt lat="43.73447" lon="3.56233">
        <ele>295.742676</ele>
        <time>2015-02-22T11:08:46Z</time>
      </trkpt>
      <trkpt lat="43.73445" lon="3.56232">
        <ele>295.742676</ele>
        <time>2015-02-22T11:08:49Z</time>
      </trkpt>
      <trkpt lat="43.73441" lon="3.56234">
        <ele>295.261963</ele>
        <time>2015-02-22T11:08:53Z</time>
      </trkpt>
      <trkpt lat="43.73434" lon="3.56237">
        <ele>298.626709</ele>
        <time>2015-02-22T11:09:03Z</time>
      </trkpt>
      <trkpt lat="43.73434" lon="3.56237">
        <ele>298.146118</ele>
        <time>2015-02-22T11:09:04Z</time>
      </trkpt>
      <trkpt lat="43.73434" lon="3.56237">
        <ele>294.300781</ele>
        <time>2015-02-22T11:09:10Z</time>
      </trkpt>
      <trkpt lat="43.73433" lon="3.56236">
        <ele>296.223511</ele>
        <time>2015-02-22T11:09:13Z</time>
      </trkpt>
      <trkpt lat="43.73425" lon="3.56238">
        <ele>294.781372</ele>
        <time>2015-02-22T11:09:23Z</time>
      </trkpt>
      <trkpt lat="43.73414" lon="3.56235">
        <ele>295.261963</ele>
        <time>2015-02-22T11:09:34Z</time>
      </trkpt>
      <trkpt lat="43.73408" lon="3.5623">
        <ele>295.261963</ele>
        <time>2015-02-22T11:09:41Z</time>
      </trkpt>
      <trkpt lat="43.73401" lon="3.56226">
        <ele>295.261963</ele>
        <time>2015-02-22T11:09:48Z</time>
      </trkpt>
      <trkpt lat="43.73395" lon="3.56225">
        <ele>295.261963</ele>
        <time>2015-02-22T11:09:53Z</time>
      </trkpt>
      <trkpt lat="43.73391" lon="3.5622">
        <ele>293.820068</ele>
        <time>2015-02-22T11:09:57Z</time>
      </trkpt>
      <trkpt lat="43.73383" lon="3.56209">
        <ele>294.300781</ele>
        <time>2015-02-22T11:10:09Z</time>
      </trkpt>
      <trkpt lat="43.73383" lon="3.56208">
        <ele>294.300781</ele>
        <time>2015-02-22T11:10:10Z</time>
      </trkpt>
      <trkpt lat="43.73381" lon="3.56205">
        <ele>293.339355</ele>
        <time>2015-02-22T11:10:12Z</time>
      </trkpt>
      <trkpt lat="43.73379" lon="3.56204">
        <ele>295.261963</ele>
        <time>2015-02-22T11:10:14Z</time>
      </trkpt>
      <trkpt lat="43.73371" lon="3.56203">
        <ele>295.742676</ele>
        <time>2015-02-22T11:10:21Z</time>
      </trkpt>
      <trkpt lat="43.73365" lon="3.56192">
        <ele>296.223511</ele>
        <time>2015-02-22T11:10:30Z</time>
      </trkpt>
      <trkpt lat="43.73362" lon="3.56178">
        <ele>297.184692</ele>
        <time>2015-02-22T11:10:40Z</time>
      </trkpt>
      <trkpt lat="43.73361" lon="3.56172">
        <ele>296.223511</ele>
        <time>2015-02-22T11:10:44Z</time>
      </trkpt>
      <trkpt lat="43.73359" lon="3.56167">
        <ele>296.704102</ele>
        <time>2015-02-22T11:10:48Z</time>
      </trkpt>
      <trkpt lat="43.73354" lon="3.56166">
        <ele>296.223511</ele>
        <time>2015-02-22T11:10:55Z</time>
      </trkpt>
      <trkpt lat="43.73353" lon="3.56149">
        <ele>296.704102</ele>
        <time>2015-02-22T11:11:07Z</time>
      </trkpt>
      <trkpt lat="43.73345" lon="3.56137">
        <ele>297.184692</ele>
        <time>2015-02-22T11:11:17Z</time>
      </trkpt>
      <trkpt lat="43.73338" lon="3.56124">
        <ele>298.146118</ele>
        <time>2015-02-22T11:11:27Z</time>
      </trkpt>
      <trkpt lat="43.7333" lon="3.56117">
        <ele>297.665405</ele>
        <time>2015-02-22T11:11:34Z</time>
      </trkpt>
      <trkpt lat="43.73315" lon="3.5612">
        <ele>297.665405</ele>
        <time>2015-02-22T11:11:49Z</time>
      </trkpt>
      <trkpt lat="43.73314" lon="3.56122">
        <ele>298.146118</ele>
        <time>2015-02-22T11:11:52Z</time>
      </trkpt>
      <trkpt lat="43.73307" lon="3.56124">
        <ele>297.184692</ele>
        <time>2015-02-22T11:12:02Z</time>
      </trkpt>
      <trkpt lat="43.73304" lon="3.56126">
        <ele>297.665405</ele>
        <time>2015-02-22T11:12:04Z</time>
      </trkpt>
      <trkpt lat="43.73297" lon="3.56133">
        <ele>298.626709</ele>
        <time>2015-02-22T11:12:11Z</time>
      </trkpt>
      <trkpt lat="43.73286" lon="3.56138">
        <ele>300.068726</ele>
        <time>2015-02-22T11:12:22Z</time>
      </trkpt>
      <trkpt lat="43.73276" lon="3.56133">
        <ele>301.51062</ele>
        <time>2015-02-22T11:12:34Z</time>
      </trkpt>
      <trkpt lat="43.73272" lon="3.56134">
        <ele>299.588013</ele>
        <time>2015-02-22T11:12:37Z</time>
      </trkpt>
      <trkpt lat="43.73257" lon="3.56116">
        <ele>301.029907</ele>
        <time>2015-02-22T11:12:52Z</time>
      </trkpt>
      <trkpt lat="43.73247" lon="3.56108">
        <ele>300.549316</ele>
        <time>2015-02-22T11:13:03Z</time>
      </trkpt>
      <trkpt lat="43.73243" lon="3.56106">
        <ele>299.588013</ele>
        <time>2015-02-22T11:13:06Z</time>
      </trkpt>
      <trkpt lat="43.73233" lon="3.56104">
        <ele>299.588013</ele>
        <time>2015-02-22T11:13:15Z</time>
      </trkpt>
      <trkpt lat="43.73231" lon="3.5609">
        <ele>298.626709</ele>
        <time>2015-02-22T11:13:28Z</time>
      </trkpt>
      <trkpt lat="43.73234" lon="3.56087">
        <ele>296.704102</ele>
        <time>2015-02-22T11:13:31Z</time>
      </trkpt>
      <trkpt lat="43.73234" lon="3.56081">
        <ele>297.184692</ele>
        <time>2015-02-22T11:13:35Z</time>
      </trkpt>
      <trkpt lat="43.7323" lon="3.56074">
        <ele>297.665405</ele>
        <time>2015-02-22T11:13:40Z</time>
      </trkpt>
      <trkpt lat="43.73229" lon="3.56069">
        <ele>296.223511</ele>
        <time>2015-02-22T11:13:43Z</time>
      </trkpt>
      <trkpt lat="43.73229" lon="3.56066">
        <ele>296.704102</ele>
        <time>2015-02-22T11:13:45Z</time>
      </trkpt>
      <trkpt lat="43.73229" lon="3.56058">
        <ele>295.742676</ele>
        <time>2015-02-22T11:13:49Z</time>
      </trkpt>
      <trkpt lat="43.73223" lon="3.56052">
        <ele>295.742676</ele>
        <time>2015-02-22T11:13:56Z</time>
      </trkpt>
      <trkpt lat="43.73221" lon="3.56047">
        <ele>295.261963</ele>
        <time>2015-02-22T11:14:00Z</time>
      </trkpt>
      <trkpt lat="43.73213" lon="3.56041">
        <ele>295.261963</ele>
        <time>2015-02-22T11:14:10Z</time>
      </trkpt>
      <trkpt lat="43.7321" lon="3.5604">
        <ele>298.626709</ele>
        <time>2015-02-22T11:14:13Z</time>
      </trkpt>
      <trkpt lat="43.732" lon="3.56035">
        <ele>298.626709</ele>
        <time>2015-02-22T11:14:24Z</time>
      </trkpt>
      <trkpt lat="43.73197" lon="3.56031">
        <ele>297.184692</ele>
        <time>2015-02-22T11:14:34Z</time>
      </trkpt>
      <trkpt lat="43.73196" lon="3.56027">
        <ele>297.665405</ele>
        <time>2015-02-22T11:14:39Z</time>
      </trkpt>
      <trkpt lat="43.73189" lon="3.56023">
        <ele>297.665405</ele>
        <time>2015-02-22T11:14:44Z</time>
      </trkpt>
      <trkpt lat="43.73177" lon="3.56015">
        <ele>297.184692</ele>
        <time>2015-02-22T11:14:57Z</time>
      </trkpt>
      <trkpt lat="43.73177" lon="3.56014">
        <ele>297.184692</ele>
        <time>2015-02-22T11:14:58Z</time>
      </trkpt>
      <trkpt lat="43.73171" lon="3.56003">
        <ele>298.626709</ele>
        <time>2015-02-22T11:15:06Z</time>
      </trkpt>
      <trkpt lat="43.73166" lon="3.55989">
        <ele>295.261963</ele>
        <time>2015-02-22T11:15:17Z</time>
      </trkpt>
      <trkpt lat="43.73165" lon="3.55987">
        <ele>295.261963</ele>
        <time>2015-02-22T11:15:19Z</time>
      </trkpt>
      <trkpt lat="43.73164" lon="3.55982">
        <ele>293.339355</ele>
        <time>2015-02-22T11:15:32Z</time>
      </trkpt>
      <trkpt lat="43.73165" lon="3.55981">
        <ele>292.378174</ele>
        <time>2015-02-22T11:15:39Z</time>
      </trkpt>
      <trkpt lat="43.73163" lon="3.55978">
        <ele>290.936157</ele>
        <time>2015-02-22T11:15:43Z</time>
      </trkpt>
      <trkpt lat="43.73158" lon="3.55969">
        <ele>290.936157</ele>
        <time>2015-02-22T11:15:50Z</time>
      </trkpt>
      <trkpt lat="43.73159" lon="3.55959">
        <ele>291.416748</ele>
        <time>2015-02-22T11:15:56Z</time>
      </trkpt>
      <trkpt lat="43.73161" lon="3.55949">
        <ele>290.455566</ele>
        <time>2015-02-22T11:16:04Z</time>
      </trkpt>
      <trkpt lat="43.7316" lon="3.5594">
        <ele>290.936157</ele>
        <time>2015-02-22T11:16:10Z</time>
      </trkpt>
      <trkpt lat="43.73156" lon="3.55931">
        <ele>289.974854</ele>
        <time>2015-02-22T11:16:18Z</time>
      </trkpt>
      <trkpt lat="43.73154" lon="3.55928">
        <ele>289.974854</ele>
        <time>2015-02-22T11:16:21Z</time>
      </trkpt>
      <trkpt lat="43.73152" lon="3.55917">
        <ele>289.01355</ele>
        <time>2015-02-22T11:16:29Z</time>
      </trkpt>
      <trkpt lat="43.73153" lon="3.55902">
        <ele>287.09082</ele>
        <time>2015-02-22T11:16:41Z</time>
      </trkpt>
      <trkpt lat="43.73151" lon="3.55896">
        <ele>287.09082</ele>
        <time>2015-02-22T11:16:52Z</time>
      </trkpt>
      <trkpt lat="43.7315" lon="3.55896">
        <ele>286.129517</ele>
        <time>2015-02-22T11:17:11Z</time>
      </trkpt>
      <trkpt lat="43.73149" lon="3.55892">
        <ele>283.726196</ele>
        <time>2015-02-22T11:17:31Z</time>
      </trkpt>
      <trkpt lat="43.73147" lon="3.55884">
        <ele>281.803589</ele>
        <time>2015-02-22T11:17:40Z</time>
      </trkpt>
      <trkpt lat="43.73142" lon="3.55873">
        <ele>281.322998</ele>
        <time>2015-02-22T11:17:50Z</time>
      </trkpt>
      <trkpt lat="43.73142" lon="3.55871">
        <ele>280.842407</ele>
        <time>2015-02-22T11:18:16Z</time>
      </trkpt>
      <trkpt lat="43.73145" lon="3.55872">
        <ele>280.361694</ele>
        <time>2015-02-22T11:19:10Z</time>
      </trkpt>
      <trkpt lat="43.73148" lon="3.55872">
        <ele>280.361694</ele>
        <time>2015-02-22T11:19:20Z</time>
      </trkpt>
      <trkpt lat="43.73152" lon="3.55871">
        <ele>278.919678</ele>
        <time>2015-02-22T11:19:34Z</time>
      </trkpt>
      <trkpt lat="43.73152" lon="3.5587">
        <ele>278.438965</ele>
        <time>2015-02-22T11:19:37Z</time>
      </trkpt>
      <trkpt lat="43.73141" lon="3.55856">
        <ele>277.477661</ele>
        <time>2015-02-22T11:19:46Z</time>
      </trkpt>
      <trkpt lat="43.73135" lon="3.55853">
        <ele>277.958252</ele>
        <time>2015-02-22T11:19:57Z</time>
      </trkpt>
      <trkpt lat="43.73134" lon="3.55853">
        <ele>276.99707</ele>
        <time>2015-02-22T11:20:11Z</time>
      </trkpt>
      <trkpt lat="43.73141" lon="3.55855">
        <ele>276.035645</ele>
        <time>2015-02-22T11:20:25Z</time>
      </trkpt>
      <trkpt lat="43.73137" lon="3.5585">
        <ele>276.035645</ele>
        <time>2015-02-22T11:20:30Z</time>
      </trkpt>
      <trkpt lat="43.73131" lon="3.55845">
        <ele>275.074463</ele>
        <time>2015-02-22T11:20:43Z</time>
      </trkpt>
      <trkpt lat="43.73132" lon="3.55849">
        <ele>277.477661</ele>
        <time>2015-02-22T11:20:52Z</time>
      </trkpt>
      <trkpt lat="43.73134" lon="3.55852">
        <ele>275.074463</ele>
        <time>2015-02-22T11:21:02Z</time>
      </trkpt>
      <trkpt lat="43.73134" lon="3.55853">
        <ele>276.99707</ele>
        <time>2015-02-22T11:21:08Z</time>
      </trkpt>
      <trkpt lat="43.73134" lon="3.55853">
        <ele>278.438965</ele>
        <time>2015-02-22T11:21:10Z</time>
      </trkpt>
      <trkpt lat="43.73134" lon="3.55853">
        <ele>281.322998</ele>
        <time>2015-02-22T11:21:11Z</time>
      </trkpt>
      <trkpt lat="43.73134" lon="3.55854">
        <ele>277.477661</ele>
        <time>2015-02-22T11:21:22Z</time>
      </trkpt>
      <trkpt lat="43.73134" lon="3.55854">
        <ele>274.113037</ele>
        <time>2015-02-22T11:21:24Z</time>
      </trkpt>
      <trkpt lat="43.73135" lon="3.55855">
        <ele>279.400269</ele>
        <time>2015-02-22T11:21:28Z</time>
      </trkpt>
      <trkpt lat="43.73135" lon="3.55855">
        <ele>279.880859</ele>
        <time>2015-02-22T11:21:30Z</time>
      </trkpt>
      <trkpt lat="43.73135" lon="3.55855">
        <ele>278.438965</ele>
        <time>2015-02-22T11:21:31Z</time>
      </trkpt>
      <trkpt lat="43.73129" lon="3.55859">
        <ele>280.361694</ele>
        <time>2015-02-22T11:21:43Z</time>
      </trkpt>
      <trkpt lat="43.73126" lon="3.55856">
        <ele>278.919678</ele>
        <time>2015-02-22T11:22:17Z</time>
      </trkpt>
      <trkpt lat="43.73131" lon="3.5586">
        <ele>281.803589</ele>
        <time>2015-02-22T11:22:26Z</time>
      </trkpt>
      <trkpt lat="43.73136" lon="3.55864">
        <ele>277.958252</ele>
        <time>2015-02-22T11:22:37Z</time>
      </trkpt>
      <trkpt lat="43.73136" lon="3.55864">
        <ele>278.919678</ele>
        <time>2015-02-22T11:22:38Z</time>
      </trkpt>
      <trkpt lat="43.73138" lon="3.55865">
        <ele>282.284302</ele>
        <time>2015-02-22T11:22:40Z</time>
      </trkpt>
      <trkpt lat="43.73141" lon="3.55871">
        <ele>285.168213</ele>
        <time>2015-02-22T11:22:49Z</time>
      </trkpt>
      <trkpt lat="43.73143" lon="3.55874">
        <ele>283.245605</ele>
        <time>2015-02-22T11:22:54Z</time>
      </trkpt>
      <trkpt lat="43.73142" lon="3.55875">
        <ele>285.648804</ele>
        <time>2015-02-22T11:23:00Z</time>
      </trkpt>
      <trkpt lat="43.73145" lon="3.55876">
        <ele>284.206909</ele>
        <time>2015-02-22T11:23:34Z</time>
      </trkpt>
      <trkpt lat="43.73144" lon="3.55874">
        <ele>283.726196</ele>
        <time>2015-02-22T11:24:06Z</time>
      </trkpt>
      <trkpt lat="43.73144" lon="3.55876">
        <ele>281.803589</ele>
        <time>2015-02-22T11:24:18Z</time>
      </trkpt>
      <trkpt lat="43.73145" lon="3.55876">
        <ele>284.687622</ele>
        <time>2015-02-22T11:24:38Z</time>
      </trkpt>
      <trkpt lat="43.73145" lon="3.55876">
        <ele>287.571411</ele>
        <time>2015-02-22T11:24:46Z</time>
      </trkpt>
      <trkpt lat="43.73146" lon="3.55875">
        <ele>285.648804</ele>
        <time>2015-02-22T11:25:21Z</time>
      </trkpt>
      <trkpt lat="43.73146" lon="3.55875">
        <ele>286.610229</ele>
        <time>2015-02-22T11:25:23Z</time>
      </trkpt>
      <trkpt lat="43.73146" lon="3.55875">
        <ele>285.648804</ele>
        <time>2015-02-22T11:25:25Z</time>
      </trkpt>
      <trkpt lat="43.73146" lon="3.55875">
        <ele>289.01355</ele>
        <time>2015-02-22T11:25:35Z</time>
      </trkpt>
      <trkpt lat="43.73146" lon="3.55874">
        <ele>286.610229</ele>
        <time>2015-02-22T11:25:59Z</time>
      </trkpt>
      <trkpt lat="43.73146" lon="3.55875">
        <ele>286.610229</ele>
        <time>2015-02-22T11:26:00Z</time>
      </trkpt>
      <trkpt lat="43.73148" lon="3.55878">
        <ele>288.052246</ele>
        <time>2015-02-22T11:26:03Z</time>
      </trkpt>
      <trkpt lat="43.7315" lon="3.55881">
        <ele>288.532959</ele>
        <time>2015-02-22T11:26:08Z</time>
      </trkpt>
      <trkpt lat="43.73151" lon="3.55887">
        <ele>290.936157</ele>
        <time>2015-02-22T11:26:14Z</time>
      </trkpt>
      <trkpt lat="43.73152" lon="3.55894">
        <ele>291.416748</ele>
        <time>2015-02-22T11:26:21Z</time>
      </trkpt>
      <trkpt lat="43.7315" lon="3.55899">
        <ele>292.858765</ele>
        <time>2015-02-22T11:26:24Z</time>
      </trkpt>
      <trkpt lat="43.73139" lon="3.55915">
        <ele>296.223511</ele>
        <time>2015-02-22T11:26:38Z</time>
      </trkpt>
      <trkpt lat="43.73138" lon="3.55916">
        <ele>296.223511</ele>
        <time>2015-02-22T11:26:39Z</time>
      </trkpt>
      <trkpt lat="43.73132" lon="3.55925">
        <ele>296.223511</ele>
        <time>2015-02-22T11:26:46Z</time>
      </trkpt>
      <trkpt lat="43.73131" lon="3.55943">
        <ele>295.261963</ele>
        <time>2015-02-22T11:27:00Z</time>
      </trkpt>
      <trkpt lat="43.73134" lon="3.55956">
        <ele>296.223511</ele>
        <time>2015-02-22T11:27:13Z</time>
      </trkpt>
      <trkpt lat="43.7313" lon="3.55967">
        <ele>292.858765</ele>
        <time>2015-02-22T11:27:20Z</time>
      </trkpt>
      <trkpt lat="43.73123" lon="3.55976">
        <ele>291.897461</ele>
        <time>2015-02-22T11:27:33Z</time>
      </trkpt>
      <trkpt lat="43.73118" lon="3.55983">
        <ele>291.416748</ele>
        <time>2015-02-22T11:27:48Z</time>
      </trkpt>
      <trkpt lat="43.73119" lon="3.55985">
        <ele>291.897461</ele>
        <time>2015-02-22T11:28:05Z</time>
      </trkpt>
      <trkpt lat="43.73115" lon="3.55999">
        <ele>292.858765</ele>
        <time>2015-02-22T11:28:17Z</time>
      </trkpt>
      <trkpt lat="43.73112" lon="3.56016">
        <ele>291.897461</ele>
        <time>2015-02-22T11:28:28Z</time>
      </trkpt>
      <trkpt lat="43.7311" lon="3.56033">
        <ele>290.455566</ele>
        <time>2015-02-22T11:28:40Z</time>
      </trkpt>
      <trkpt lat="43.73113" lon="3.56042">
        <ele>290.936157</ele>
        <time>2015-02-22T11:28:47Z</time>
      </trkpt>
      <trkpt lat="43.73115" lon="3.56066">
        <ele>291.897461</ele>
        <time>2015-02-22T11:29:04Z</time>
      </trkpt>
      <trkpt lat="43.73113" lon="3.56083">
        <ele>290.455566</ele>
        <time>2015-02-22T11:29:16Z</time>
      </trkpt>
      <trkpt lat="43.73112" lon="3.56087">
        <ele>289.494141</ele>
        <time>2015-02-22T11:29:19Z</time>
      </trkpt>
      <trkpt lat="43.73106" lon="3.56106">
        <ele>287.571411</ele>
        <time>2015-02-22T11:29:32Z</time>
      </trkpt>
      <trkpt lat="43.73101" lon="3.56122">
        <ele>287.09082</ele>
        <time>2015-02-22T11:29:43Z</time>
      </trkpt>
      <trkpt lat="43.73082" lon="3.5615">
        <ele>286.129517</ele>
        <time>2015-02-22T11:29:58Z</time>
      </trkpt>
      <trkpt lat="43.73069" lon="3.56164">
        <ele>285.648804</ele>
        <time>2015-02-22T11:30:11Z</time>
      </trkpt>
      <trkpt lat="43.73054" lon="3.56182">
        <ele>285.648804</ele>
        <time>2015-02-22T11:30:23Z</time>
      </trkpt>
      <trkpt lat="43.73041" lon="3.56198">
        <ele>284.687622</ele>
        <time>2015-02-22T11:30:39Z</time>
      </trkpt>
      <trkpt lat="43.73045" lon="3.5621">
        <ele>284.687622</ele>
        <time>2015-02-22T11:30:51Z</time>
      </trkpt>
      <trkpt lat="43.73048" lon="3.56221">
        <ele>285.648804</ele>
        <time>2015-02-22T11:30:59Z</time>
      </trkpt>
      <trkpt lat="43.73046" lon="3.5623">
        <ele>285.168213</ele>
        <time>2015-02-22T11:31:05Z</time>
      </trkpt>
      <trkpt lat="43.73043" lon="3.56235">
        <ele>284.687622</ele>
        <time>2015-02-22T11:31:09Z</time>
      </trkpt>
      <trkpt lat="43.73045" lon="3.56241">
        <ele>285.648804</ele>
        <time>2015-02-22T11:31:13Z</time>
      </trkpt>
      <trkpt lat="43.73049" lon="3.56255">
        <ele>285.648804</ele>
        <time>2015-02-22T11:31:25Z</time>
      </trkpt>
      <trkpt lat="43.73049" lon="3.56256">
        <ele>285.648804</ele>
        <time>2015-02-22T11:31:39Z</time>
      </trkpt>
      <trkpt lat="43.73049" lon="3.56255">
        <ele>282.284302</ele>
        <time>2015-02-22T11:31:53Z</time>
      </trkpt>
      <trkpt lat="43.7305" lon="3.56254">
        <ele>284.206909</ele>
        <time>2015-02-22T11:32:14Z</time>
      </trkpt>
      <trkpt lat="43.73051" lon="3.56254">
        <ele>284.206909</ele>
        <time>2015-02-22T11:32:43Z</time>
      </trkpt>
      <trkpt lat="43.73049" lon="3.56254">
        <ele>283.726196</ele>
        <time>2015-02-22T11:32:54Z</time>
      </trkpt>
      <trkpt lat="43.7305" lon="3.56253">
        <ele>285.648804</ele>
        <time>2015-02-22T11:33:01Z</time>
      </trkpt>
      <trkpt lat="43.73049" lon="3.56253">
        <ele>281.803589</ele>
        <time>2015-02-22T11:33:04Z</time>
      </trkpt>
      <trkpt lat="43.73049" lon="3.56253">
        <ele>285.168213</ele>
        <time>2015-02-22T11:33:05Z</time>
      </trkpt>
      <trkpt lat="43.73049" lon="3.56255">
        <ele>282.284302</ele>
        <time>2015-02-22T11:33:29Z</time>
      </trkpt>
      <trkpt lat="43.7305" lon="3.56254">
        <ele>283.726196</ele>
        <time>2015-02-22T11:34:09Z</time>
      </trkpt>
      <trkpt lat="43.7305" lon="3.56255">
        <ele>283.245605</ele>
        <time>2015-02-22T11:34:36Z</time>
      </trkpt>
      <trkpt lat="43.73051" lon="3.56254">
        <ele>285.168213</ele>
        <time>2015-02-22T11:35:03Z</time>
      </trkpt>
      <trkpt lat="43.73051" lon="3.56255">
        <ele>284.206909</ele>
        <time>2015-02-22T11:35:34Z</time>
      </trkpt>
      <trkpt lat="43.73052" lon="3.56253">
        <ele>287.571411</ele>
        <time>2015-02-22T11:36:16Z</time>
      </trkpt>
      <trkpt lat="43.73052" lon="3.56253">
        <ele>287.571411</ele>
        <time>2015-02-22T11:36:17Z</time>
      </trkpt>
      <trkpt lat="43.73051" lon="3.56252">
        <ele>287.09082</ele>
        <time>2015-02-22T11:36:18Z</time>
      </trkpt>
      <trkpt lat="43.7305" lon="3.56248">
        <ele>286.129517</ele>
        <time>2015-02-22T11:36:29Z</time>
      </trkpt>
      <trkpt lat="43.73049" lon="3.56251">
        <ele>286.129517</ele>
        <time>2015-02-22T11:36:54Z</time>
      </trkpt>
      <trkpt lat="43.7305" lon="3.56253">
        <ele>284.687622</ele>
        <time>2015-02-22T11:37:07Z</time>
      </trkpt>
      <trkpt lat="43.7305" lon="3.56256">
        <ele>282.765015</ele>
        <time>2015-02-22T11:38:08Z</time>
      </trkpt>
      <trkpt lat="43.73051" lon="3.56257">
        <ele>284.206909</ele>
        <time>2015-02-22T11:38:17Z</time>
      </trkpt>
      <trkpt lat="43.73051" lon="3.56257">
        <ele>287.09082</ele>
        <time>2015-02-22T11:38:19Z</time>
      </trkpt>
      <trkpt lat="43.73051" lon="3.56257">
        <ele>288.532959</ele>
        <time>2015-02-22T11:38:21Z</time>
      </trkpt>
      <trkpt lat="43.73051" lon="3.56256">
        <ele>285.648804</ele>
        <time>2015-02-22T11:38:24Z</time>
      </trkpt>
      <trkpt lat="43.73051" lon="3.56256">
        <ele>284.206909</ele>
        <time>2015-02-22T11:38:26Z</time>
      </trkpt>
      <trkpt lat="43.73052" lon="3.56256">
        <ele>287.571411</ele>
        <time>2015-02-22T11:39:24Z</time>
      </trkpt>
      <trkpt lat="43.73051" lon="3.56256">
        <ele>284.687622</ele>
        <time>2015-02-22T11:40:22Z</time>
      </trkpt>
      <trkpt lat="43.73051" lon="3.56255">
        <ele>287.571411</ele>
        <time>2015-02-22T11:43:00Z</time>
      </trkpt>
      <trkpt lat="43.73051" lon="3.56255">
        <ele>284.206909</ele>
        <time>2015-02-22T11:43:03Z</time>
      </trkpt>
      <trkpt lat="43.73051" lon="3.56255">
        <ele>285.168213</ele>
        <time>2015-02-22T11:43:19Z</time>
      </trkpt>
      <trkpt lat="43.73051" lon="3.56255">
        <ele>285.648804</ele>
        <time>2015-02-22T11:43:32Z</time>
      </trkpt>
      <trkpt lat="43.73052" lon="3.56255">
        <ele>289.01355</ele>
        <time>2015-02-22T11:45:00Z</time>
      </trkpt>
      <trkpt lat="43.73051" lon="3.56255">
        <ele>286.129517</ele>
        <time>2015-02-22T11:45:06Z</time>
      </trkpt>
      <trkpt lat="43.73051" lon="3.56255">
        <ele>289.974854</ele>
        <time>2015-02-22T11:45:10Z</time>
      </trkpt>
      <trkpt lat="43.73051" lon="3.56255">
        <ele>286.610229</ele>
        <time>2015-02-22T11:45:14Z</time>
      </trkpt>
      <trkpt lat="43.73051" lon="3.56255">
        <ele>286.129517</ele>
        <time>2015-02-22T11:45:16Z</time>
      </trkpt>
      <trkpt lat="43.73051" lon="3.56255">
        <ele>288.052246</ele>
        <time>2015-02-22T11:45:23Z</time>
      </trkpt>
      <trkpt lat="43.73052" lon="3.56254">
        <ele>284.687622</ele>
        <time>2015-02-22T11:46:05Z</time>
      </trkpt>
      <trkpt lat="43.73052" lon="3.56254">
        <ele>284.687622</ele>
        <time>2015-02-22T11:46:06Z</time>
      </trkpt>
      <trkpt lat="43.73052" lon="3.56254">
        <ele>286.610229</ele>
        <time>2015-02-22T11:46:10Z</time>
      </trkpt>
      <trkpt lat="43.73052" lon="3.56254">
        <ele>284.687622</ele>
        <time>2015-02-22T11:46:13Z</time>
      </trkpt>
      <trkpt lat="43.73052" lon="3.56254">
        <ele>287.09082</ele>
        <time>2015-02-22T11:46:20Z</time>
      </trkpt>
      <trkpt lat="43.73052" lon="3.56254">
        <ele>283.245605</ele>
        <time>2015-02-22T11:46:56Z</time>
      </trkpt>
      <trkpt lat="43.73052" lon="3.56254">
        <ele>284.687622</ele>
        <time>2015-02-22T11:46:59Z</time>
      </trkpt>
      <trkpt lat="43.73051" lon="3.56254">
        <ele>286.129517</ele>
        <time>2015-02-22T11:47:06Z</time>
      </trkpt>
      <trkpt lat="43.73052" lon="3.56253">
        <ele>285.648804</ele>
        <time>2015-02-22T11:48:22Z</time>
      </trkpt>
      <trkpt lat="43.73052" lon="3.56253">
        <ele>281.803589</ele>
        <time>2015-02-22T11:48:28Z</time>
      </trkpt>
      <trkpt lat="43.73052" lon="3.56253">
        <ele>285.168213</ele>
        <time>2015-02-22T11:48:29Z</time>
      </trkpt>
      <trkpt lat="43.73052" lon="3.56254">
        <ele>286.610229</ele>
        <time>2015-02-22T11:49:54Z</time>
      </trkpt>
      <trkpt lat="43.73052" lon="3.56254">
        <ele>284.687622</ele>
        <time>2015-02-22T11:49:58Z</time>
      </trkpt>
      <trkpt lat="43.73052" lon="3.56253">
        <ele>288.052246</ele>
        <time>2015-02-22T11:50:30Z</time>
      </trkpt>
      <trkpt lat="43.73052" lon="3.56253">
        <ele>285.648804</ele>
        <time>2015-02-22T11:50:35Z</time>
      </trkpt>
      <trkpt lat="43.73052" lon="3.56253">
        <ele>286.610229</ele>
        <time>2015-02-22T11:52:36Z</time>
      </trkpt>
      <trkpt lat="43.73052" lon="3.56253">
        <ele>285.168213</ele>
        <time>2015-02-22T11:52:46Z</time>
      </trkpt>
      <trkpt lat="43.73052" lon="3.56253">
        <ele>286.129517</ele>
        <time>2015-02-22T11:53:05Z</time>
      </trkpt>
      <trkpt lat="43.73052" lon="3.56253">
        <ele>283.245605</ele>
        <time>2015-02-22T11:53:10Z</time>
      </trkpt>
      <trkpt lat="43.73052" lon="3.56253">
        <ele>283.726196</ele>
        <time>2015-02-22T11:53:11Z</time>
      </trkpt>
      <trkpt lat="43.73052" lon="3.56253">
        <ele>286.610229</ele>
        <time>2015-02-22T11:53:22Z</time>
      </trkpt>
      <trkpt lat="43.73052" lon="3.56253">
        <ele>283.726196</ele>
        <time>2015-02-22T11:53:33Z</time>
      </trkpt>
      <trkpt lat="43.73051" lon="3.56256">
        <ele>282.765015</ele>
        <time>2015-02-22T11:55:53Z</time>
      </trkpt>
      <trkpt lat="43.73052" lon="3.56256">
        <ele>284.687622</ele>
        <time>2015-02-22T11:57:13Z</time>
      </trkpt>
      <trkpt lat="43.73052" lon="3.56254">
        <ele>282.765015</ele>
        <time>2015-02-22T11:59:12Z</time>
      </trkpt>
      <trkpt lat="43.73053" lon="3.56254">
        <ele>283.726196</ele>
        <time>2015-02-22T11:59:19Z</time>
      </trkpt>
      <trkpt lat="43.73053" lon="3.56254">
        <ele>285.648804</ele>
        <time>2015-02-22T11:59:23Z</time>
      </trkpt>
      <trkpt lat="43.73052" lon="3.56251">
        <ele>287.09082</ele>
        <time>2015-02-22T11:59:40Z</time>
      </trkpt>
      <trkpt lat="43.73051" lon="3.56249">
        <ele>285.648804</ele>
        <time>2015-02-22T11:59:45Z</time>
      </trkpt>
      <trkpt lat="43.73048" lon="3.56249">
        <ele>285.168213</ele>
        <time>2015-02-22T12:00:05Z</time>
      </trkpt>
      <trkpt lat="43.73048" lon="3.56248">
        <ele>284.687622</ele>
        <time>2015-02-22T12:00:28Z</time>
      </trkpt>
      <trkpt lat="43.7305" lon="3.56251">
        <ele>285.168213</ele>
        <time>2015-02-22T12:00:45Z</time>
      </trkpt>
      <trkpt lat="43.73051" lon="3.56253">
        <ele>284.206909</ele>
        <time>2015-02-22T12:01:04Z</time>
      </trkpt>
      <trkpt lat="43.73051" lon="3.5625">
        <ele>283.245605</ele>
        <time>2015-02-22T12:01:17Z</time>
      </trkpt>
      <trkpt lat="43.73051" lon="3.5625">
        <ele>284.206909</ele>
        <time>2015-02-22T12:01:22Z</time>
      </trkpt>
      <trkpt lat="43.7305" lon="3.5625">
        <ele>282.765015</ele>
        <time>2015-02-22T12:01:25Z</time>
      </trkpt>
      <trkpt lat="43.7305" lon="3.56256">
        <ele>282.765015</ele>
        <time>2015-02-22T12:01:41Z</time>
      </trkpt>
      <trkpt lat="43.7305" lon="3.56255">
        <ele>282.284302</ele>
        <time>2015-02-22T12:02:03Z</time>
      </trkpt>
      <trkpt lat="43.73051" lon="3.56255">
        <ele>283.245605</ele>
        <time>2015-02-22T12:02:27Z</time>
      </trkpt>
      <trkpt lat="43.7305" lon="3.56255">
        <ele>284.687622</ele>
        <time>2015-02-22T12:02:34Z</time>
      </trkpt>
      <trkpt lat="43.73051" lon="3.56254">
        <ele>283.726196</ele>
        <time>2015-02-22T12:02:44Z</time>
      </trkpt>
      <trkpt lat="43.73051" lon="3.56254">
        <ele>284.687622</ele>
        <time>2015-02-22T12:03:58Z</time>
      </trkpt>
      <trkpt lat="43.73051" lon="3.56254">
        <ele>284.687622</ele>
        <time>2015-02-22T12:03:59Z</time>
      </trkpt>
      <trkpt lat="43.73051" lon="3.56254">
        <ele>281.322998</ele>
        <time>2015-02-22T12:04:19Z</time>
      </trkpt>
      <trkpt lat="43.73051" lon="3.56254">
        <ele>283.726196</ele>
        <time>2015-02-22T12:04:25Z</time>
      </trkpt>
      <trkpt lat="43.73051" lon="3.56254">
        <ele>287.09082</ele>
        <time>2015-02-22T12:04:34Z</time>
      </trkpt>
      <trkpt lat="43.73051" lon="3.56254">
        <ele>286.129517</ele>
        <time>2015-02-22T12:04:35Z</time>
      </trkpt>
      <trkpt lat="43.73051" lon="3.56254">
        <ele>285.168213</ele>
        <time>2015-02-22T12:04:37Z</time>
      </trkpt>
      <trkpt lat="43.73051" lon="3.56254">
        <ele>284.206909</ele>
        <time>2015-02-22T12:05:04Z</time>
      </trkpt>
      <trkpt lat="43.73052" lon="3.56253">
        <ele>285.648804</ele>
        <time>2015-02-22T12:06:26Z</time>
      </trkpt>
      <trkpt lat="43.73052" lon="3.56254">
        <ele>282.765015</ele>
        <time>2015-02-22T12:06:43Z</time>
      </trkpt>
      <trkpt lat="43.73052" lon="3.56254">
        <ele>284.687622</ele>
        <time>2015-02-22T12:06:55Z</time>
      </trkpt>
      <trkpt lat="43.73052" lon="3.56254">
        <ele>283.245605</ele>
        <time>2015-02-22T12:06:58Z</time>
      </trkpt>
      <trkpt lat="43.73051" lon="3.56254">
        <ele>285.168213</ele>
        <time>2015-02-22T12:09:04Z</time>
      </trkpt>
      <trkpt lat="43.73051" lon="3.56254">
        <ele>285.648804</ele>
        <time>2015-02-22T12:09:11Z</time>
      </trkpt>
      <trkpt lat="43.73051" lon="3.56254">
        <ele>282.765015</ele>
        <time>2015-02-22T12:09:17Z</time>
      </trkpt>
      <trkpt lat="43.73051" lon="3.56254">
        <ele>284.687622</ele>
        <time>2015-02-22T12:09:20Z</time>
      </trkpt>
      <trkpt lat="43.73051" lon="3.56254">
        <ele>283.245605</ele>
        <time>2015-02-22T12:09:29Z</time>
      </trkpt>
      <trkpt lat="43.73051" lon="3.56254">
        <ele>282.284302</ele>
        <time>2015-02-22T12:09:55Z</time>
      </trkpt>
      <trkpt lat="43.73051" lon="3.56254">
        <ele>285.168213</ele>
        <time>2015-02-22T12:10:04Z</time>
      </trkpt>
      <trkpt lat="43.73051" lon="3.56255">
        <ele>285.648804</ele>
        <time>2015-02-22T12:10:14Z</time>
      </trkpt>
      <trkpt lat="43.73052" lon="3.56254">
        <ele>284.687622</ele>
        <time>2015-02-22T12:10:27Z</time>
      </trkpt>
      <trkpt lat="43.73052" lon="3.56254">
        <ele>283.245605</ele>
        <time>2015-02-22T12:10:30Z</time>
      </trkpt>
      <trkpt lat="43.73051" lon="3.56254">
        <ele>282.284302</ele>
        <time>2015-02-22T12:10:32Z</time>
      </trkpt>
      <trkpt lat="43.73051" lon="3.56254">
        <ele>287.09082</ele>
        <time>2015-02-22T12:10:34Z</time>
      </trkpt>
      <trkpt lat="43.73051" lon="3.56253">
        <ele>285.168213</ele>
        <time>2015-02-22T12:10:39Z</time>
      </trkpt>
      <trkpt lat="43.73051" lon="3.56252">
        <ele>283.245605</ele>
        <time>2015-02-22T12:10:41Z</time>
      </trkpt>
      <trkpt lat="43.73051" lon="3.56252">
        <ele>286.610229</ele>
        <time>2015-02-22T12:10:43Z</time>
      </trkpt>
      <trkpt lat="43.73051" lon="3.56252">
        <ele>285.168213</ele>
        <time>2015-02-22T12:10:47Z</time>
      </trkpt>
      <trkpt lat="43.73051" lon="3.56252">
        <ele>283.726196</ele>
        <time>2015-02-22T12:10:55Z</time>
      </trkpt>
      <trkpt lat="43.73051" lon="3.56252">
        <ele>284.206909</ele>
        <time>2015-02-22T12:11:18Z</time>
      </trkpt>
      <trkpt lat="43.73051" lon="3.56252">
        <ele>282.765015</ele>
        <time>2015-02-22T12:11:20Z</time>
      </trkpt>
      <trkpt lat="43.73051" lon="3.56252">
        <ele>284.687622</ele>
        <time>2015-02-22T12:11:23Z</time>
      </trkpt>
      <trkpt lat="43.73051" lon="3.56253">
        <ele>284.687622</ele>
        <time>2015-02-22T12:11:48Z</time>
      </trkpt>
      <trkpt lat="43.73049" lon="3.56252">
        <ele>286.610229</ele>
        <time>2015-02-22T12:12:03Z</time>
      </trkpt>
      <trkpt lat="43.73049" lon="3.56251">
        <ele>285.168213</ele>
        <time>2015-02-22T12:12:22Z</time>
      </trkpt>
      <trkpt lat="43.73049" lon="3.56251">
        <ele>289.494141</ele>
        <time>2015-02-22T12:12:24Z</time>
      </trkpt>
      <trkpt lat="43.73049" lon="3.56251">
        <ele>287.09082</ele>
        <time>2015-02-22T12:12:25Z</time>
      </trkpt>
      <trkpt lat="43.73049" lon="3.56251">
        <ele>283.726196</ele>
        <time>2015-02-22T12:12:28Z</time>
      </trkpt>
      <trkpt lat="43.73048" lon="3.5625">
        <ele>282.284302</ele>
        <time>2015-02-22T12:12:54Z</time>
      </trkpt>
      <trkpt lat="43.73048" lon="3.5625">
        <ele>286.129517</ele>
        <time>2015-02-22T12:13:03Z</time>
      </trkpt>
      <trkpt lat="43.73048" lon="3.5625">
        <ele>285.168213</ele>
        <time>2015-02-22T12:13:04Z</time>
      </trkpt>
      <trkpt lat="43.73047" lon="3.56249">
        <ele>283.245605</ele>
        <time>2015-02-22T12:13:25Z</time>
      </trkpt>
      <trkpt lat="43.73048" lon="3.56249">
        <ele>286.129517</ele>
        <time>2015-02-22T12:13:29Z</time>
      </trkpt>
      <trkpt lat="43.73048" lon="3.56249">
        <ele>286.129517</ele>
        <time>2015-02-22T12:13:30Z</time>
      </trkpt>
      <trkpt lat="43.73048" lon="3.56249">
        <ele>282.765015</ele>
        <time>2015-02-22T12:13:33Z</time>
      </trkpt>
      <trkpt lat="43.73047" lon="3.5625">
        <ele>283.245605</ele>
        <time>2015-02-22T12:13:57Z</time>
      </trkpt>
      <trkpt lat="43.73048" lon="3.56249">
        <ele>284.206909</ele>
        <time>2015-02-22T12:14:37Z</time>
      </trkpt>
      <trkpt lat="43.73049" lon="3.56252">
        <ele>283.726196</ele>
        <time>2015-02-22T12:15:07Z</time>
      </trkpt>
      <trkpt lat="43.73051" lon="3.56252">
        <ele>283.245605</ele>
        <time>2015-02-22T12:15:28Z</time>
      </trkpt>
      <trkpt lat="43.73051" lon="3.56253">
        <ele>283.245605</ele>
        <time>2015-02-22T12:16:08Z</time>
      </trkpt>
      <trkpt lat="43.73051" lon="3.56254">
        <ele>284.206909</ele>
        <time>2015-02-22T12:18:03Z</time>
      </trkpt>
      <trkpt lat="43.73052" lon="3.56254">
        <ele>283.245605</ele>
        <time>2015-02-22T12:19:18Z</time>
      </trkpt>
      <trkpt lat="43.73052" lon="3.56253">
        <ele>281.803589</ele>
        <time>2015-02-22T12:19:33Z</time>
      </trkpt>
      <trkpt lat="43.73052" lon="3.56254">
        <ele>281.803589</ele>
        <time>2015-02-22T12:20:27Z</time>
      </trkpt>
      <trkpt lat="43.73052" lon="3.56254">
        <ele>279.880859</ele>
        <time>2015-02-22T12:20:40Z</time>
      </trkpt>
      <trkpt lat="43.73051" lon="3.56253">
        <ele>283.245605</ele>
        <time>2015-02-22T12:20:53Z</time>
      </trkpt>
      <trkpt lat="43.7305" lon="3.56253">
        <ele>281.803589</ele>
        <time>2015-02-22T12:22:01Z</time>
      </trkpt>
      <trkpt lat="43.73049" lon="3.56253">
        <ele>282.765015</ele>
        <time>2015-02-22T12:22:31Z</time>
      </trkpt>
      <trkpt lat="43.7305" lon="3.56253">
        <ele>284.687622</ele>
        <time>2015-02-22T12:22:40Z</time>
      </trkpt>
      <trkpt lat="43.7305" lon="3.56253">
        <ele>283.245605</ele>
        <time>2015-02-22T12:22:44Z</time>
      </trkpt>
      <trkpt lat="43.7305" lon="3.56253">
        <ele>286.610229</ele>
        <time>2015-02-22T12:22:55Z</time>
      </trkpt>
      <trkpt lat="43.7305" lon="3.56253">
        <ele>283.245605</ele>
        <time>2015-02-22T12:22:56Z</time>
      </trkpt>
      <trkpt lat="43.73051" lon="3.56253">
        <ele>284.206909</ele>
        <time>2015-02-22T12:23:24Z</time>
      </trkpt>
      <trkpt lat="43.73051" lon="3.56253">
        <ele>284.206909</ele>
        <time>2015-02-22T12:24:30Z</time>
      </trkpt>
      <trkpt lat="43.73051" lon="3.56253">
        <ele>285.168213</ele>
        <time>2015-02-22T12:24:44Z</time>
      </trkpt>
      <trkpt lat="43.73051" lon="3.56253">
        <ele>283.726196</ele>
        <time>2015-02-22T12:24:46Z</time>
      </trkpt>
      <trkpt lat="43.73052" lon="3.56253">
        <ele>284.687622</ele>
        <time>2015-02-22T12:25:00Z</time>
      </trkpt>
      <trkpt lat="43.73052" lon="3.56254">
        <ele>285.648804</ele>
        <time>2015-02-22T12:25:26Z</time>
      </trkpt>
      <trkpt lat="43.7305" lon="3.56254">
        <ele>285.648804</ele>
        <time>2015-02-22T12:26:05Z</time>
      </trkpt>
      <trkpt lat="43.73053" lon="3.56253">
        <ele>287.571411</ele>
        <time>2015-02-22T12:26:28Z</time>
      </trkpt>
      <trkpt lat="43.73054" lon="3.56253">
        <ele>286.610229</ele>
        <time>2015-02-22T12:26:57Z</time>
      </trkpt>
      <trkpt lat="43.73054" lon="3.56253">
        <ele>285.168213</ele>
        <time>2015-02-22T12:27:02Z</time>
      </trkpt>
      <trkpt lat="43.73052" lon="3.56251">
        <ele>284.206909</ele>
        <time>2015-02-22T12:27:24Z</time>
      </trkpt>
      <trkpt lat="43.73051" lon="3.56251">
        <ele>284.687622</ele>
        <time>2015-02-22T12:27:40Z</time>
      </trkpt>
      <trkpt lat="43.73049" lon="3.5625">
        <ele>283.726196</ele>
        <time>2015-02-22T12:27:56Z</time>
      </trkpt>
      <trkpt lat="43.73049" lon="3.56253">
        <ele>283.245605</ele>
        <time>2015-02-22T12:28:15Z</time>
      </trkpt>
      <trkpt lat="43.73052" lon="3.56251">
        <ele>284.687622</ele>
        <time>2015-02-22T12:28:29Z</time>
      </trkpt>
      <trkpt lat="43.73048" lon="3.5625">
        <ele>284.687622</ele>
        <time>2015-02-22T12:28:57Z</time>
      </trkpt>
      <trkpt lat="43.73048" lon="3.5625">
        <ele>284.687622</ele>
        <time>2015-02-22T12:29:03Z</time>
      </trkpt>
      <trkpt lat="43.73046" lon="3.56249">
        <ele>286.129517</ele>
        <time>2015-02-22T12:29:23Z</time>
      </trkpt>
      <trkpt lat="43.73048" lon="3.56252">
        <ele>285.648804</ele>
        <time>2015-02-22T12:29:48Z</time>
      </trkpt>
      <trkpt lat="43.73048" lon="3.56252">
        <ele>284.687622</ele>
        <time>2015-02-22T12:29:55Z</time>
      </trkpt>
      <trkpt lat="43.73048" lon="3.56252">
        <ele>285.648804</ele>
        <time>2015-02-22T12:29:58Z</time>
      </trkpt>
      <trkpt lat="43.73048" lon="3.56252">
        <ele>285.168213</ele>
        <time>2015-02-22T12:30:00Z</time>
      </trkpt>
      <trkpt lat="43.73048" lon="3.56252">
        <ele>283.726196</ele>
        <time>2015-02-22T12:30:02Z</time>
      </trkpt>
      <trkpt lat="43.73048" lon="3.56252">
        <ele>285.648804</ele>
        <time>2015-02-22T12:30:04Z</time>
      </trkpt>
      <trkpt lat="43.73049" lon="3.56252">
        <ele>281.803589</ele>
        <time>2015-02-22T12:30:25Z</time>
      </trkpt>
      <trkpt lat="43.73049" lon="3.56252">
        <ele>287.09082</ele>
        <time>2015-02-22T12:30:29Z</time>
      </trkpt>
      <trkpt lat="43.73049" lon="3.56252">
        <ele>286.610229</ele>
        <time>2015-02-22T12:30:30Z</time>
      </trkpt>
      <trkpt lat="43.73049" lon="3.56251">
        <ele>283.245605</ele>
        <time>2015-02-22T12:30:33Z</time>
      </trkpt>
      <trkpt lat="43.73047" lon="3.5625">
        <ele>284.687622</ele>
        <time>2015-02-22T12:30:38Z</time>
      </trkpt>
      <trkpt lat="43.73048" lon="3.56249">
        <ele>283.245605</ele>
        <time>2015-02-22T12:30:53Z</time>
      </trkpt>
      <trkpt lat="43.73048" lon="3.56249">
        <ele>284.206909</ele>
        <time>2015-02-22T12:30:55Z</time>
      </trkpt>
      <trkpt lat="43.73048" lon="3.56249">
        <ele>286.129517</ele>
        <time>2015-02-22T12:30:58Z</time>
      </trkpt>
      <trkpt lat="43.7305" lon="3.56246">
        <ele>286.129517</ele>
        <time>2015-02-22T12:31:29Z</time>
      </trkpt>
      <trkpt lat="43.73048" lon="3.56249">
        <ele>286.610229</ele>
        <time>2015-02-22T12:31:45Z</time>
      </trkpt>
      <trkpt lat="43.73047" lon="3.56249">
        <ele>284.687622</ele>
        <time>2015-02-22T12:31:47Z</time>
      </trkpt>
      <trkpt lat="43.73048" lon="3.5625">
        <ele>285.168213</ele>
        <time>2015-02-22T12:31:57Z</time>
      </trkpt>
      <trkpt lat="43.73048" lon="3.5625">
        <ele>283.726196</ele>
        <time>2015-02-22T12:32:02Z</time>
      </trkpt>
      <trkpt lat="43.73048" lon="3.56247">
        <ele>284.687622</ele>
        <time>2015-02-22T12:32:25Z</time>
      </trkpt>
      <trkpt lat="43.73047" lon="3.56247">
        <ele>284.206909</ele>
        <time>2015-02-22T12:32:27Z</time>
      </trkpt>
      <trkpt lat="43.73046" lon="3.56245">
        <ele>285.648804</ele>
        <time>2015-02-22T12:32:30Z</time>
      </trkpt>
      <trkpt lat="43.73035" lon="3.56232">
        <ele>283.245605</ele>
        <time>2015-02-22T12:32:43Z</time>
      </trkpt>
      <trkpt lat="43.73029" lon="3.56229">
        <ele>283.245605</ele>
        <time>2015-02-22T12:32:48Z</time>
      </trkpt>
      <trkpt lat="43.73024" lon="3.56227">
        <ele>283.726196</ele>
        <time>2015-02-22T12:32:52Z</time>
      </trkpt>
      <trkpt lat="43.73018" lon="3.56217">
        <ele>283.726196</ele>
        <time>2015-02-22T12:33:01Z</time>
      </trkpt>
      <trkpt lat="43.73009" lon="3.56215">
        <ele>282.284302</ele>
        <time>2015-02-22T12:33:15Z</time>
      </trkpt>
      <trkpt lat="43.73007" lon="3.56215">
        <ele>278.919678</ele>
        <time>2015-02-22T12:33:20Z</time>
      </trkpt>
      <trkpt lat="43.73005" lon="3.56215">
        <ele>282.284302</ele>
        <time>2015-02-22T12:33:22Z</time>
      </trkpt>
      <trkpt lat="43.72994" lon="3.56214">
        <ele>281.322998</ele>
        <time>2015-02-22T12:33:36Z</time>
      </trkpt>
      <trkpt lat="43.72993" lon="3.56214">
        <ele>282.765015</ele>
        <time>2015-02-22T12:33:38Z</time>
      </trkpt>
      <trkpt lat="43.72992" lon="3.56214">
        <ele>280.842407</ele>
        <time>2015-02-22T12:33:39Z</time>
      </trkpt>
      <trkpt lat="43.72984" lon="3.56214">
        <ele>280.361694</ele>
        <time>2015-02-22T12:33:46Z</time>
      </trkpt>
      <trkpt lat="43.72967" lon="3.56217">
        <ele>280.361694</ele>
        <time>2015-02-22T12:33:58Z</time>
      </trkpt>
      <trkpt lat="43.72959" lon="3.56217">
        <ele>281.803589</ele>
        <time>2015-02-22T12:34:05Z</time>
      </trkpt>
      <trkpt lat="43.72957" lon="3.56218">
        <ele>280.361694</ele>
        <time>2015-02-22T12:34:08Z</time>
      </trkpt>
      <trkpt lat="43.7295" lon="3.56225">
        <ele>280.361694</ele>
        <time>2015-02-22T12:34:17Z</time>
      </trkpt>
      <trkpt lat="43.72938" lon="3.56238">
        <ele>280.842407</ele>
        <time>2015-02-22T12:34:31Z</time>
      </trkpt>
      <trkpt lat="43.72932" lon="3.56244">
        <ele>277.958252</ele>
        <time>2015-02-22T12:34:37Z</time>
      </trkpt>
      <trkpt lat="43.72931" lon="3.56246">
        <ele>277.958252</ele>
        <time>2015-02-22T12:34:38Z</time>
      </trkpt>
      <trkpt lat="43.72928" lon="3.56249">
        <ele>281.322998</ele>
        <time>2015-02-22T12:34:41Z</time>
      </trkpt>
      <trkpt lat="43.72927" lon="3.5625">
        <ele>281.322998</ele>
        <time>2015-02-22T12:34:42Z</time>
      </trkpt>
      <trkpt lat="43.72921" lon="3.56259">
        <ele>281.322998</ele>
        <time>2015-02-22T12:34:51Z</time>
      </trkpt>
      <trkpt lat="43.72919" lon="3.56265">
        <ele>281.322998</ele>
        <time>2015-02-22T12:34:55Z</time>
      </trkpt>
      <trkpt lat="43.72909" lon="3.5628">
        <ele>281.322998</ele>
        <time>2015-02-22T12:35:07Z</time>
      </trkpt>
      <trkpt lat="43.72906" lon="3.56287">
        <ele>281.803589</ele>
        <time>2015-02-22T12:35:14Z</time>
      </trkpt>
      <trkpt lat="43.72899" lon="3.56286">
        <ele>281.803589</ele>
        <time>2015-02-22T12:35:22Z</time>
      </trkpt>
      <trkpt lat="43.72887" lon="3.56282">
        <ele>279.880859</ele>
        <time>2015-02-22T12:35:32Z</time>
      </trkpt>
      <trkpt lat="43.72874" lon="3.56276">
        <ele>281.322998</ele>
        <time>2015-02-22T12:35:43Z</time>
      </trkpt>
      <trkpt lat="43.72858" lon="3.56268">
        <ele>281.803589</ele>
        <time>2015-02-22T12:35:58Z</time>
      </trkpt>
      <trkpt lat="43.72849" lon="3.5627">
        <ele>280.842407</ele>
        <time>2015-02-22T12:36:11Z</time>
      </trkpt>
      <trkpt lat="43.72848" lon="3.56288">
        <ele>279.880859</ele>
        <time>2015-02-22T12:36:23Z</time>
      </trkpt>
      <trkpt lat="43.72847" lon="3.56296">
        <ele>280.361694</ele>
        <time>2015-02-22T12:36:29Z</time>
      </trkpt>
      <trkpt lat="43.72841" lon="3.56302">
        <ele>283.726196</ele>
        <time>2015-02-22T12:36:36Z</time>
      </trkpt>
      <trkpt lat="43.7283" lon="3.5631">
        <ele>280.842407</ele>
        <time>2015-02-22T12:36:46Z</time>
      </trkpt>
      <trkpt lat="43.72828" lon="3.56312">
        <ele>281.322998</ele>
        <time>2015-02-22T12:36:48Z</time>
      </trkpt>
      <trkpt lat="43.72819" lon="3.56319">
        <ele>280.842407</ele>
        <time>2015-02-22T12:36:56Z</time>
      </trkpt>
      <trkpt lat="43.72817" lon="3.56321">
        <ele>280.361694</ele>
        <time>2015-02-22T12:36:58Z</time>
      </trkpt>
      <trkpt lat="43.72808" lon="3.56323">
        <ele>279.400269</ele>
        <time>2015-02-22T12:37:06Z</time>
      </trkpt>
      <trkpt lat="43.72805" lon="3.56328">
        <ele>281.803589</ele>
        <time>2015-02-22T12:37:09Z</time>
      </trkpt>
      <trkpt lat="43.72797" lon="3.56336">
        <ele>280.842407</ele>
        <time>2015-02-22T12:37:17Z</time>
      </trkpt>
      <trkpt lat="43.72794" lon="3.56336">
        <ele>280.842407</ele>
        <time>2015-02-22T12:37:20Z</time>
      </trkpt>
      <trkpt lat="43.7279" lon="3.56337">
        <ele>279.400269</ele>
        <time>2015-02-22T12:37:24Z</time>
      </trkpt>
      <trkpt lat="43.72785" lon="3.56344">
        <ele>280.361694</ele>
        <time>2015-02-22T12:37:33Z</time>
      </trkpt>
      <trkpt lat="43.72776" lon="3.56353">
        <ele>280.361694</ele>
        <time>2015-02-22T12:37:42Z</time>
      </trkpt>
      <trkpt lat="43.72772" lon="3.56354">
        <ele>280.361694</ele>
        <time>2015-02-22T12:37:46Z</time>
      </trkpt>
      <trkpt lat="43.72762" lon="3.56353">
        <ele>281.322998</ele>
        <time>2015-02-22T12:38:01Z</time>
      </trkpt>
      <trkpt lat="43.72762" lon="3.56354">
        <ele>277.958252</ele>
        <time>2015-02-22T12:38:03Z</time>
      </trkpt>
      <trkpt lat="43.72757" lon="3.56355">
        <ele>280.361694</ele>
        <time>2015-02-22T12:38:08Z</time>
      </trkpt>
      <trkpt lat="43.72756" lon="3.56354">
        <ele>282.284302</ele>
        <time>2015-02-22T12:38:10Z</time>
      </trkpt>
      <trkpt lat="43.72756" lon="3.56354">
        <ele>278.919678</ele>
        <time>2015-02-22T12:38:13Z</time>
      </trkpt>
      <trkpt lat="43.7276" lon="3.56363">
        <ele>282.284302</ele>
        <time>2015-02-22T12:38:21Z</time>
      </trkpt>
      <trkpt lat="43.7276" lon="3.56364">
        <ele>276.516357</ele>
        <time>2015-02-22T12:38:22Z</time>
      </trkpt>
      <trkpt lat="43.7276" lon="3.56365">
        <ele>281.803589</ele>
        <time>2015-02-22T12:38:23Z</time>
      </trkpt>
      <trkpt lat="43.72756" lon="3.56375">
        <ele>279.400269</ele>
        <time>2015-02-22T12:38:34Z</time>
      </trkpt>
      <trkpt lat="43.72755" lon="3.56376">
        <ele>280.842407</ele>
        <time>2015-02-22T12:38:36Z</time>
      </trkpt>
      <trkpt lat="43.7275" lon="3.56382">
        <ele>278.438965</ele>
        <time>2015-02-22T12:38:48Z</time>
      </trkpt>
      <trkpt lat="43.72744" lon="3.56383">
        <ele>279.400269</ele>
        <time>2015-02-22T12:38:53Z</time>
      </trkpt>
      <trkpt lat="43.72741" lon="3.56383">
        <ele>280.842407</ele>
        <time>2015-02-22T12:38:56Z</time>
      </trkpt>
      <trkpt lat="43.72726" lon="3.56385">
        <ele>279.880859</ele>
        <time>2015-02-22T12:39:08Z</time>
      </trkpt>
      <trkpt lat="43.72722" lon="3.56391">
        <ele>280.361694</ele>
        <time>2015-02-22T12:39:15Z</time>
      </trkpt>
      <trkpt lat="43.72716" lon="3.56399">
        <ele>280.361694</ele>
        <time>2015-02-22T12:39:24Z</time>
      </trkpt>
      <trkpt lat="43.72716" lon="3.56405">
        <ele>279.400269</ele>
        <time>2015-02-22T12:39:28Z</time>
      </trkpt>
      <trkpt lat="43.72718" lon="3.5642">
        <ele>277.477661</ele>
        <time>2015-02-22T12:39:41Z</time>
      </trkpt>
      <trkpt lat="43.72719" lon="3.5643">
        <ele>278.919678</ele>
        <time>2015-02-22T12:39:54Z</time>
      </trkpt>
      <trkpt lat="43.72718" lon="3.56436">
        <ele>279.400269</ele>
        <time>2015-02-22T12:40:04Z</time>
      </trkpt>
      <trkpt lat="43.72715" lon="3.56442">
        <ele>278.919678</ele>
        <time>2015-02-22T12:40:28Z</time>
      </trkpt>
      <trkpt lat="43.72714" lon="3.56443">
        <ele>273.151855</ele>
        <time>2015-02-22T12:40:34Z</time>
      </trkpt>
      <trkpt lat="43.72714" lon="3.56444">
        <ele>283.726196</ele>
        <time>2015-02-22T12:40:35Z</time>
      </trkpt>
      <trkpt lat="43.72714" lon="3.56444">
        <ele>280.361694</ele>
        <time>2015-02-22T12:40:36Z</time>
      </trkpt>
      <trkpt lat="43.7271" lon="3.56445">
        <ele>279.400269</ele>
        <time>2015-02-22T12:41:05Z</time>
      </trkpt>
      <trkpt lat="43.7271" lon="3.56444">
        <ele>276.035645</ele>
        <time>2015-02-22T12:41:07Z</time>
      </trkpt>
      <trkpt lat="43.72709" lon="3.56444">
        <ele>279.880859</ele>
        <time>2015-02-22T12:41:08Z</time>
      </trkpt>
      <trkpt lat="43.72707" lon="3.56443">
        <ele>276.99707</ele>
        <time>2015-02-22T12:41:11Z</time>
      </trkpt>
      <trkpt lat="43.72706" lon="3.56443">
        <ele>277.477661</ele>
        <time>2015-02-22T12:41:12Z</time>
      </trkpt>
      <trkpt lat="43.72706" lon="3.56444">
        <ele>274.113037</ele>
        <time>2015-02-22T12:41:14Z</time>
      </trkpt>
      <trkpt lat="43.72705" lon="3.56444">
        <ele>280.842407</ele>
        <time>2015-02-22T12:41:15Z</time>
      </trkpt>
      <trkpt lat="43.72705" lon="3.56444">
        <ele>278.919678</ele>
        <time>2015-02-22T12:41:16Z</time>
      </trkpt>
      <trkpt lat="43.72699" lon="3.56449">
        <ele>277.477661</ele>
        <time>2015-02-22T12:41:31Z</time>
      </trkpt>
      <trkpt lat="43.72685" lon="3.56457">
        <ele>277.477661</ele>
        <time>2015-02-22T12:41:46Z</time>
      </trkpt>
      <trkpt lat="43.72683" lon="3.56459">
        <ele>277.958252</ele>
        <time>2015-02-22T12:41:49Z</time>
      </trkpt>
      <trkpt lat="43.72674" lon="3.56468">
        <ele>276.516357</ele>
        <time>2015-02-22T12:42:00Z</time>
      </trkpt>
      <trkpt lat="43.72668" lon="3.56471">
        <ele>276.516357</ele>
        <time>2015-02-22T12:42:05Z</time>
      </trkpt>
      <trkpt lat="43.72663" lon="3.56476">
        <ele>276.99707</ele>
        <time>2015-02-22T12:42:10Z</time>
      </trkpt>
      <trkpt lat="43.72656" lon="3.5649">
        <ele>276.035645</ele>
        <time>2015-02-22T12:42:20Z</time>
      </trkpt>
      <trkpt lat="43.72653" lon="3.56497">
        <ele>276.516357</ele>
        <time>2015-02-22T12:42:25Z</time>
      </trkpt>
      <trkpt lat="43.72649" lon="3.56502">
        <ele>276.035645</ele>
        <time>2015-02-22T12:42:30Z</time>
      </trkpt>
      <trkpt lat="43.72647" lon="3.56509">
        <ele>276.035645</ele>
        <time>2015-02-22T12:42:35Z</time>
      </trkpt>
      <trkpt lat="43.72648" lon="3.56513">
        <ele>274.59375</ele>
        <time>2015-02-22T12:42:38Z</time>
      </trkpt>
      <trkpt lat="43.72647" lon="3.56525">
        <ele>275.555054</ele>
        <time>2015-02-22T12:42:47Z</time>
      </trkpt>
      <trkpt lat="43.72647" lon="3.56538">
        <ele>274.113037</ele>
        <time>2015-02-22T12:42:57Z</time>
      </trkpt>
      <trkpt lat="43.72646" lon="3.56542">
        <ele>275.555054</ele>
        <time>2015-02-22T12:43:00Z</time>
      </trkpt>
      <trkpt lat="43.72645" lon="3.56545">
        <ele>275.074463</ele>
        <time>2015-02-22T12:43:03Z</time>
      </trkpt>
      <trkpt lat="43.72643" lon="3.56547">
        <ele>274.113037</ele>
        <time>2015-02-22T12:43:05Z</time>
      </trkpt>
      <trkpt lat="43.72637" lon="3.56549">
        <ele>275.555054</ele>
        <time>2015-02-22T12:43:10Z</time>
      </trkpt>
      <trkpt lat="43.72628" lon="3.56553">
        <ele>274.59375</ele>
        <time>2015-02-22T12:43:18Z</time>
      </trkpt>
      <trkpt lat="43.72625" lon="3.56552">
        <ele>275.555054</ele>
        <time>2015-02-22T12:43:34Z</time>
      </trkpt>
      <trkpt lat="43.7262" lon="3.56554">
        <ele>273.632446</ele>
        <time>2015-02-22T12:44:01Z</time>
      </trkpt>
      <trkpt lat="43.72615" lon="3.5656">
        <ele>275.074463</ele>
        <time>2015-02-22T12:44:07Z</time>
      </trkpt>
      <trkpt lat="43.72599" lon="3.56568">
        <ele>276.516357</ele>
        <time>2015-02-22T12:44:21Z</time>
      </trkpt>
      <trkpt lat="43.72594" lon="3.56572">
        <ele>277.477661</ele>
        <time>2015-02-22T12:44:25Z</time>
      </trkpt>
      <trkpt lat="43.72587" lon="3.56577">
        <ele>276.99707</ele>
        <time>2015-02-22T12:44:33Z</time>
      </trkpt>
      <trkpt lat="43.72584" lon="3.56579">
        <ele>279.400269</ele>
        <time>2015-02-22T12:44:36Z</time>
      </trkpt>
      <trkpt lat="43.72574" lon="3.56585">
        <ele>276.99707</ele>
        <time>2015-02-22T12:44:47Z</time>
      </trkpt>
      <trkpt lat="43.72572" lon="3.56589">
        <ele>278.438965</ele>
        <time>2015-02-22T12:44:50Z</time>
      </trkpt>
      <trkpt lat="43.72567" lon="3.56594">
        <ele>278.438965</ele>
        <time>2015-02-22T12:44:56Z</time>
      </trkpt>
      <trkpt lat="43.72563" lon="3.56597">
        <ele>280.361694</ele>
        <time>2015-02-22T12:45:02Z</time>
      </trkpt>
      <trkpt lat="43.72556" lon="3.56609">
        <ele>280.361694</ele>
        <time>2015-02-22T12:45:13Z</time>
      </trkpt>
      <trkpt lat="43.72554" lon="3.56612">
        <ele>280.361694</ele>
        <time>2015-02-22T12:45:16Z</time>
      </trkpt>
      <trkpt lat="43.72547" lon="3.56622">
        <ele>279.880859</ele>
        <time>2015-02-22T12:45:26Z</time>
      </trkpt>
      <trkpt lat="43.72542" lon="3.56624">
        <ele>279.880859</ele>
        <time>2015-02-22T12:45:31Z</time>
      </trkpt>
      <trkpt lat="43.7254" lon="3.56626">
        <ele>282.765015</ele>
        <time>2015-02-22T12:45:33Z</time>
      </trkpt>
      <trkpt lat="43.72532" lon="3.56631">
        <ele>279.880859</ele>
        <time>2015-02-22T12:45:41Z</time>
      </trkpt>
      <trkpt lat="43.72532" lon="3.56631">
        <ele>283.726196</ele>
        <time>2015-02-22T12:45:42Z</time>
      </trkpt>
      <trkpt lat="43.72531" lon="3.56631">
        <ele>279.880859</ele>
        <time>2015-02-22T12:45:43Z</time>
      </trkpt>
      <trkpt lat="43.7253" lon="3.56632">
        <ele>282.284302</ele>
        <time>2015-02-22T12:45:46Z</time>
      </trkpt>
      <trkpt lat="43.7253" lon="3.56636">
        <ele>280.842407</ele>
        <time>2015-02-22T12:45:49Z</time>
      </trkpt>
      <trkpt lat="43.72529" lon="3.5665">
        <ele>280.361694</ele>
        <time>2015-02-22T12:46:04Z</time>
      </trkpt>
      <trkpt lat="43.72529" lon="3.56665">
        <ele>278.919678</ele>
        <time>2015-02-22T12:46:18Z</time>
      </trkpt>
      <trkpt lat="43.72525" lon="3.56672">
        <ele>280.361694</ele>
        <time>2015-02-22T12:46:38Z</time>
      </trkpt>
      <trkpt lat="43.72519" lon="3.56682">
        <ele>278.919678</ele>
        <time>2015-02-22T12:47:00Z</time>
      </trkpt>
      <trkpt lat="43.72518" lon="3.56685">
        <ele>278.438965</ele>
        <time>2015-02-22T12:47:05Z</time>
      </trkpt>
      <trkpt lat="43.72511" lon="3.5669">
        <ele>278.438965</ele>
        <time>2015-02-22T12:47:13Z</time>
      </trkpt>
      <trkpt lat="43.72505" lon="3.56696">
        <ele>278.438965</ele>
        <time>2015-02-22T12:47:19Z</time>
      </trkpt>
      <trkpt lat="43.7249" lon="3.56706">
        <ele>279.400269</ele>
        <time>2015-02-22T12:47:36Z</time>
      </trkpt>
      <trkpt lat="43.72474" lon="3.56707">
        <ele>278.438965</ele>
        <time>2015-02-22T12:47:50Z</time>
      </trkpt>
      <trkpt lat="43.7247" lon="3.56706">
        <ele>280.361694</ele>
        <time>2015-02-22T12:47:53Z</time>
      </trkpt>
      <trkpt lat="43.72459" lon="3.56705">
        <ele>283.245605</ele>
        <time>2015-02-22T12:48:04Z</time>
      </trkpt>
      <trkpt lat="43.72457" lon="3.56705">
        <ele>279.400269</ele>
        <time>2015-02-22T12:48:07Z</time>
      </trkpt>
      <trkpt lat="43.72457" lon="3.56705">
        <ele>282.765015</ele>
        <time>2015-02-22T12:48:08Z</time>
      </trkpt>
      <trkpt lat="43.72456" lon="3.56705">
        <ele>282.284302</ele>
        <time>2015-02-22T12:48:09Z</time>
      </trkpt>
      <trkpt lat="43.72452" lon="3.56702">
        <ele>283.245605</ele>
        <time>2015-02-22T12:48:15Z</time>
      </trkpt>
      <trkpt lat="43.7245" lon="3.56701">
        <ele>282.284302</ele>
        <time>2015-02-22T12:48:17Z</time>
      </trkpt>
      <trkpt lat="43.72444" lon="3.56701">
        <ele>282.765015</ele>
        <time>2015-02-22T12:48:24Z</time>
      </trkpt>
      <trkpt lat="43.72442" lon="3.567">
        <ele>282.765015</ele>
        <time>2015-02-22T12:48:26Z</time>
      </trkpt>
      <trkpt lat="43.72433" lon="3.56707">
        <ele>283.726196</ele>
        <time>2015-02-22T12:48:38Z</time>
      </trkpt>
      <trkpt lat="43.72429" lon="3.5671">
        <ele>283.726196</ele>
        <time>2015-02-22T12:48:44Z</time>
      </trkpt>
      <trkpt lat="43.7241" lon="3.56716">
        <ele>283.245605</ele>
        <time>2015-02-22T12:49:00Z</time>
      </trkpt>
      <trkpt lat="43.72397" lon="3.56721">
        <ele>283.245605</ele>
        <time>2015-02-22T12:49:11Z</time>
      </trkpt>
      <trkpt lat="43.72393" lon="3.5672">
        <ele>284.687622</ele>
        <time>2015-02-22T12:49:15Z</time>
      </trkpt>
      <trkpt lat="43.72385" lon="3.56713">
        <ele>284.687622</ele>
        <time>2015-02-22T12:49:30Z</time>
      </trkpt>
      <trkpt lat="43.72386" lon="3.56711">
        <ele>286.129517</ele>
        <time>2015-02-22T12:49:35Z</time>
      </trkpt>
      <trkpt lat="43.72385" lon="3.56706">
        <ele>286.129517</ele>
        <time>2015-02-22T12:49:39Z</time>
      </trkpt>
      <trkpt lat="43.72384" lon="3.56704">
        <ele>285.168213</ele>
        <time>2015-02-22T12:49:40Z</time>
      </trkpt>
      <trkpt lat="43.72382" lon="3.56692">
        <ele>286.129517</ele>
        <time>2015-02-22T12:49:51Z</time>
      </trkpt>
      <trkpt lat="43.72379" lon="3.56688">
        <ele>286.129517</ele>
        <time>2015-02-22T12:49:55Z</time>
      </trkpt>
      <trkpt lat="43.7237" lon="3.56683">
        <ele>287.09082</ele>
        <time>2015-02-22T12:50:08Z</time>
      </trkpt>
      <trkpt lat="43.72369" lon="3.56683">
        <ele>283.726196</ele>
        <time>2015-02-22T12:50:12Z</time>
      </trkpt>
      <trkpt lat="43.72368" lon="3.56682">
        <ele>286.610229</ele>
        <time>2015-02-22T12:50:13Z</time>
      </trkpt>
      <trkpt lat="43.72362" lon="3.56679">
        <ele>285.648804</ele>
        <time>2015-02-22T12:50:21Z</time>
      </trkpt>
      <trkpt lat="43.7236" lon="3.5668">
        <ele>288.052246</ele>
        <time>2015-02-22T12:50:23Z</time>
      </trkpt>
      <trkpt lat="43.72358" lon="3.56681">
        <ele>284.687622</ele>
        <time>2015-02-22T12:50:25Z</time>
      </trkpt>
      <trkpt lat="43.72354" lon="3.5668">
        <ele>286.610229</ele>
        <time>2015-02-22T12:50:30Z</time>
      </trkpt>
      <trkpt lat="43.72349" lon="3.56676">
        <ele>286.129517</ele>
        <time>2015-02-22T12:50:35Z</time>
      </trkpt>
      <trkpt lat="43.72342" lon="3.56671">
        <ele>288.052246</ele>
        <time>2015-02-22T12:50:47Z</time>
      </trkpt>
      <trkpt lat="43.72339" lon="3.56668">
        <ele>288.052246</ele>
        <time>2015-02-22T12:50:54Z</time>
      </trkpt>
      <trkpt lat="43.72339" lon="3.56663">
        <ele>276.516357</ele>
        <time>2015-02-22T12:51:00Z</time>
      </trkpt>
      <trkpt lat="43.72339" lon="3.56663">
        <ele>291.897461</ele>
        <time>2015-02-22T12:51:01Z</time>
      </trkpt>
      <trkpt lat="43.72339" lon="3.56663">
        <ele>285.648804</ele>
        <time>2015-02-22T12:51:02Z</time>
      </trkpt>
      <trkpt lat="43.72338" lon="3.56664">
        <ele>282.765015</ele>
        <time>2015-02-22T12:51:09Z</time>
      </trkpt>
      <trkpt lat="43.72338" lon="3.56664">
        <ele>285.648804</ele>
        <time>2015-02-22T12:51:10Z</time>
      </trkpt>
      <trkpt lat="43.72336" lon="3.56663">
        <ele>285.648804</ele>
        <time>2015-02-22T12:51:16Z</time>
      </trkpt>
      <trkpt lat="43.72337" lon="3.56663">
        <ele>289.494141</ele>
        <time>2015-02-22T12:51:19Z</time>
      </trkpt>
      <trkpt lat="43.72337" lon="3.56663">
        <ele>288.052246</ele>
        <time>2015-02-22T12:51:20Z</time>
      </trkpt>
      <trkpt lat="43.72337" lon="3.56662">
        <ele>287.09082</ele>
        <time>2015-02-22T12:51:22Z</time>
      </trkpt>
      <trkpt lat="43.72336" lon="3.56662">
        <ele>280.361694</ele>
        <time>2015-02-22T12:51:28Z</time>
      </trkpt>
      <trkpt lat="43.72336" lon="3.56662">
        <ele>285.168213</ele>
        <time>2015-02-22T12:51:29Z</time>
      </trkpt>
      <trkpt lat="43.72336" lon="3.56663">
        <ele>289.01355</ele>
        <time>2015-02-22T12:51:31Z</time>
      </trkpt>
      <trkpt lat="43.72337" lon="3.56663">
        <ele>281.322998</ele>
        <time>2015-02-22T12:51:33Z</time>
      </trkpt>
      <trkpt lat="43.72336" lon="3.56663">
        <ele>289.494141</ele>
        <time>2015-02-22T12:51:34Z</time>
      </trkpt>
      <trkpt lat="43.72336" lon="3.56664">
        <ele>284.206909</ele>
        <time>2015-02-22T12:51:35Z</time>
      </trkpt>
      <trkpt lat="43.72336" lon="3.56664">
        <ele>289.01355</ele>
        <time>2015-02-22T12:51:36Z</time>
      </trkpt>
      <trkpt lat="43.72336" lon="3.56663">
        <ele>285.168213</ele>
        <time>2015-02-22T12:51:37Z</time>
      </trkpt>
      <trkpt lat="43.72336" lon="3.56663">
        <ele>291.416748</ele>
        <time>2015-02-22T12:51:38Z</time>
      </trkpt>
      <trkpt lat="43.72336" lon="3.56663">
        <ele>290.936157</ele>
        <time>2015-02-22T12:51:39Z</time>
      </trkpt>
      <trkpt lat="43.72336" lon="3.56663">
        <ele>287.09082</ele>
        <time>2015-02-22T12:51:42Z</time>
      </trkpt>
      <trkpt lat="43.72336" lon="3.56663">
        <ele>286.129517</ele>
        <time>2015-02-22T12:51:44Z</time>
      </trkpt>
      <trkpt lat="43.72334" lon="3.56653">
        <ele>285.168213</ele>
        <time>2015-02-22T12:52:43Z</time>
      </trkpt>
      <trkpt lat="43.72333" lon="3.56647">
        <ele>285.648804</ele>
        <time>2015-02-22T12:52:48Z</time>
      </trkpt>
      <trkpt lat="43.72333" lon="3.56643">
        <ele>285.648804</ele>
        <time>2015-02-22T12:52:51Z</time>
      </trkpt>
      <trkpt lat="43.72331" lon="3.56639">
        <ele>286.610229</ele>
        <time>2015-02-22T12:52:54Z</time>
      </trkpt>
      <trkpt lat="43.72327" lon="3.56635">
        <ele>287.09082</ele>
        <time>2015-02-22T12:52:58Z</time>
      </trkpt>
      <trkpt lat="43.72324" lon="3.56633">
        <ele>287.09082</ele>
        <time>2015-02-22T12:53:01Z</time>
      </trkpt>
      <trkpt lat="43.72319" lon="3.56634">
        <ele>286.129517</ele>
        <time>2015-02-22T12:53:05Z</time>
      </trkpt>
      <trkpt lat="43.72317" lon="3.56633">
        <ele>288.532959</ele>
        <time>2015-02-22T12:53:07Z</time>
      </trkpt>
      <trkpt lat="43.72312" lon="3.56634">
        <ele>289.494141</ele>
        <time>2015-02-22T12:53:12Z</time>
      </trkpt>
      <trkpt lat="43.72309" lon="3.56634">
        <ele>289.494141</ele>
        <time>2015-02-22T12:53:15Z</time>
      </trkpt>
      <trkpt lat="43.72305" lon="3.56632">
        <ele>287.571411</ele>
        <time>2015-02-22T12:53:19Z</time>
      </trkpt>
      <trkpt lat="43.723" lon="3.56624">
        <ele>288.052246</ele>
        <time>2015-02-22T12:53:26Z</time>
      </trkpt>
      <trkpt lat="43.72298" lon="3.56622">
        <ele>289.494141</ele>
        <time>2015-02-22T12:53:28Z</time>
      </trkpt>
      <trkpt lat="43.72289" lon="3.56614">
        <ele>289.494141</ele>
        <time>2015-02-22T12:53:39Z</time>
      </trkpt>
      <trkpt lat="43.72282" lon="3.56625">
        <ele>288.532959</ele>
        <time>2015-02-22T12:53:49Z</time>
      </trkpt>
      <trkpt lat="43.7228" lon="3.56628">
        <ele>292.378174</ele>
        <time>2015-02-22T12:53:53Z</time>
      </trkpt>
      <trkpt lat="43.7228" lon="3.56628">
        <ele>288.532959</ele>
        <time>2015-02-22T12:53:54Z</time>
      </trkpt>
      <trkpt lat="43.72276" lon="3.5663">
        <ele>289.01355</ele>
        <time>2015-02-22T12:54:01Z</time>
      </trkpt>
      <trkpt lat="43.72274" lon="3.56632">
        <ele>289.974854</ele>
        <time>2015-02-22T12:54:03Z</time>
      </trkpt>
      <trkpt lat="43.72269" lon="3.56635">
        <ele>290.455566</ele>
        <time>2015-02-22T12:54:08Z</time>
      </trkpt>
      <trkpt lat="43.72268" lon="3.56637">
        <ele>287.09082</ele>
        <time>2015-02-22T12:54:10Z</time>
      </trkpt>
      <trkpt lat="43.72267" lon="3.56637">
        <ele>291.416748</ele>
        <time>2015-02-22T12:54:11Z</time>
      </trkpt>
      <trkpt lat="43.72266" lon="3.56637">
        <ele>291.416748</ele>
        <time>2015-02-22T12:54:12Z</time>
      </trkpt>
      <trkpt lat="43.72263" lon="3.56637">
        <ele>288.052246</ele>
        <time>2015-02-22T12:54:18Z</time>
      </trkpt>
      <trkpt lat="43.72261" lon="3.56635">
        <ele>288.532959</ele>
        <time>2015-02-22T12:54:21Z</time>
      </trkpt>
      <trkpt lat="43.72255" lon="3.56627">
        <ele>289.974854</ele>
        <time>2015-02-22T12:54:30Z</time>
      </trkpt>
      <trkpt lat="43.72251" lon="3.56626">
        <ele>289.974854</ele>
        <time>2015-02-22T12:54:34Z</time>
      </trkpt>
      <trkpt lat="43.72246" lon="3.5662">
        <ele>289.01355</ele>
        <time>2015-02-22T12:54:40Z</time>
      </trkpt>
      <trkpt lat="43.72245" lon="3.5662">
        <ele>289.494141</ele>
        <time>2015-02-22T12:54:41Z</time>
      </trkpt>
      <trkpt lat="43.72243" lon="3.5662">
        <ele>289.494141</ele>
        <time>2015-02-22T12:54:43Z</time>
      </trkpt>
      <trkpt lat="43.72241" lon="3.56623">
        <ele>289.974854</ele>
        <time>2015-02-22T12:54:46Z</time>
      </trkpt>
      <trkpt lat="43.72237" lon="3.56622">
        <ele>289.974854</ele>
        <time>2015-02-22T12:54:50Z</time>
      </trkpt>
      <trkpt lat="43.72233" lon="3.56612">
        <ele>290.455566</ele>
        <time>2015-02-22T12:55:02Z</time>
      </trkpt>
      <trkpt lat="43.72232" lon="3.56612">
        <ele>287.571411</ele>
        <time>2015-02-22T12:55:03Z</time>
      </trkpt>
      <trkpt lat="43.72228" lon="3.56609">
        <ele>288.532959</ele>
        <time>2015-02-22T12:55:10Z</time>
      </trkpt>
      <trkpt lat="43.72224" lon="3.56604">
        <ele>289.974854</ele>
        <time>2015-02-22T12:55:26Z</time>
      </trkpt>
      <trkpt lat="43.72221" lon="3.56604">
        <ele>289.974854</ele>
        <time>2015-02-22T12:55:41Z</time>
      </trkpt>
      <trkpt lat="43.72207" lon="3.56609">
        <ele>290.455566</ele>
        <time>2015-02-22T12:55:54Z</time>
      </trkpt>
      <trkpt lat="43.72204" lon="3.56609">
        <ele>289.974854</ele>
        <time>2015-02-22T12:55:57Z</time>
      </trkpt>
      <trkpt lat="43.72201" lon="3.56603">
        <ele>289.494141</ele>
        <time>2015-02-22T12:56:03Z</time>
      </trkpt>
      <trkpt lat="43.72193" lon="3.56604">
        <ele>289.974854</ele>
        <time>2015-02-22T12:56:14Z</time>
      </trkpt>
      <trkpt lat="43.72186" lon="3.56607">
        <ele>290.455566</ele>
        <time>2015-02-22T12:56:20Z</time>
      </trkpt>
      <trkpt lat="43.72178" lon="3.56604">
        <ele>290.455566</ele>
        <time>2015-02-22T12:56:27Z</time>
      </trkpt>
      <trkpt lat="43.7217" lon="3.56608">
        <ele>289.974854</ele>
        <time>2015-02-22T12:56:34Z</time>
      </trkpt>
      <trkpt lat="43.72168" lon="3.56608">
        <ele>289.494141</ele>
        <time>2015-02-22T12:56:36Z</time>
      </trkpt>
      <trkpt lat="43.72164" lon="3.56605">
        <ele>289.01355</ele>
        <time>2015-02-22T12:56:40Z</time>
      </trkpt>
      <trkpt lat="43.72158" lon="3.56603">
        <ele>289.494141</ele>
        <time>2015-02-22T12:56:46Z</time>
      </trkpt>
      <trkpt lat="43.72153" lon="3.56593">
        <ele>289.01355</ele>
        <time>2015-02-22T12:56:55Z</time>
      </trkpt>
      <trkpt lat="43.72145" lon="3.5659">
        <ele>288.052246</ele>
        <time>2015-02-22T12:57:03Z</time>
      </trkpt>
      <trkpt lat="43.72142" lon="3.56585">
        <ele>289.494141</ele>
        <time>2015-02-22T12:57:07Z</time>
      </trkpt>
      <trkpt lat="43.72133" lon="3.56583">
        <ele>289.494141</ele>
        <time>2015-02-22T12:57:19Z</time>
      </trkpt>
      <trkpt lat="43.72132" lon="3.56584">
        <ele>289.494141</ele>
        <time>2015-02-22T12:57:33Z</time>
      </trkpt>
      <trkpt lat="43.72132" lon="3.56583">
        <ele>290.455566</ele>
        <time>2015-02-22T12:57:43Z</time>
      </trkpt>
      <trkpt lat="43.72131" lon="3.56581">
        <ele>289.01355</ele>
        <time>2015-02-22T12:58:16Z</time>
      </trkpt>
      <trkpt lat="43.72133" lon="3.5658">
        <ele>289.494141</ele>
        <time>2015-02-22T12:59:21Z</time>
      </trkpt>
      <trkpt lat="43.72125" lon="3.56583">
        <ele>289.974854</ele>
        <time>2015-02-22T12:59:46Z</time>
      </trkpt>
      <trkpt lat="43.72122" lon="3.56587">
        <ele>289.01355</ele>
        <time>2015-02-22T12:59:51Z</time>
      </trkpt>
      <trkpt lat="43.72113" lon="3.56596">
        <ele>289.494141</ele>
        <time>2015-02-22T13:00:03Z</time>
      </trkpt>
      <trkpt lat="43.72104" lon="3.56604">
        <ele>290.936157</ele>
        <time>2015-02-22T13:00:15Z</time>
      </trkpt>
      <trkpt lat="43.72101" lon="3.56604">
        <ele>288.532959</ele>
        <time>2015-02-22T13:00:18Z</time>
      </trkpt>
      <trkpt lat="43.72087" lon="3.56618">
        <ele>290.936157</ele>
        <time>2015-02-22T13:00:32Z</time>
      </trkpt>
      <trkpt lat="43.72086" lon="3.56619">
        <ele>291.416748</ele>
        <time>2015-02-22T13:00:33Z</time>
      </trkpt>
      <trkpt lat="43.72082" lon="3.56625">
        <ele>289.974854</ele>
        <time>2015-02-22T13:00:40Z</time>
      </trkpt>
      <trkpt lat="43.72069" lon="3.56628">
        <ele>289.494141</ele>
        <time>2015-02-22T13:00:52Z</time>
      </trkpt>
      <trkpt lat="43.72069" lon="3.56629">
        <ele>289.974854</ele>
        <time>2015-02-22T13:00:53Z</time>
      </trkpt>
      <trkpt lat="43.72052" lon="3.56637">
        <ele>290.936157</ele>
        <time>2015-02-22T13:01:09Z</time>
      </trkpt>
      <trkpt lat="43.72051" lon="3.56637">
        <ele>290.936157</ele>
        <time>2015-02-22T13:01:10Z</time>
      </trkpt>
      <trkpt lat="43.72043" lon="3.56639">
        <ele>290.455566</ele>
        <time>2015-02-22T13:01:16Z</time>
      </trkpt>
      <trkpt lat="43.7204" lon="3.5664">
        <ele>293.339355</ele>
        <time>2015-02-22T13:01:18Z</time>
      </trkpt>
      <trkpt lat="43.72039" lon="3.56641">
        <ele>291.416748</ele>
        <time>2015-02-22T13:01:19Z</time>
      </trkpt>
      <trkpt lat="43.72034" lon="3.56645">
        <ele>292.378174</ele>
        <time>2015-02-22T13:01:26Z</time>
      </trkpt>
      <trkpt lat="43.72027" lon="3.56646">
        <ele>290.936157</ele>
        <time>2015-02-22T13:01:33Z</time>
      </trkpt>
      <trkpt lat="43.72025" lon="3.56644">
        <ele>291.897461</ele>
        <time>2015-02-22T13:01:35Z</time>
      </trkpt>
      <trkpt lat="43.7202" lon="3.56646">
        <ele>290.455566</ele>
        <time>2015-02-22T13:01:39Z</time>
      </trkpt>
      <trkpt lat="43.72018" lon="3.56648">
        <ele>292.858765</ele>
        <time>2015-02-22T13:01:41Z</time>
      </trkpt>
      <trkpt lat="43.72015" lon="3.56649">
        <ele>293.339355</ele>
        <time>2015-02-22T13:01:43Z</time>
      </trkpt>
      <trkpt lat="43.72014" lon="3.56649">
        <ele>292.858765</ele>
        <time>2015-02-22T13:01:45Z</time>
      </trkpt>
      <trkpt lat="43.71999" lon="3.56657">
        <ele>294.781372</ele>
        <time>2015-02-22T13:01:58Z</time>
      </trkpt>
      <trkpt lat="43.71997" lon="3.56659">
        <ele>289.974854</ele>
        <time>2015-02-22T13:02:00Z</time>
      </trkpt>
      <trkpt lat="43.71998" lon="3.5666">
        <ele>293.339355</ele>
        <time>2015-02-22T13:02:02Z</time>
      </trkpt>
      <trkpt lat="43.71997" lon="3.5666">
        <ele>293.339355</ele>
        <time>2015-02-22T13:02:03Z</time>
      </trkpt>
      <trkpt lat="43.71994" lon="3.56657">
        <ele>291.897461</ele>
        <time>2015-02-22T13:02:19Z</time>
      </trkpt>
      <trkpt lat="43.71992" lon="3.5665">
        <ele>288.052246</ele>
        <time>2015-02-22T13:02:32Z</time>
      </trkpt>
      <trkpt lat="43.71992" lon="3.5665">
        <ele>294.781372</ele>
        <time>2015-02-22T13:02:33Z</time>
      </trkpt>
      <trkpt lat="43.71992" lon="3.5665">
        <ele>294.781372</ele>
        <time>2015-02-22T13:02:34Z</time>
      </trkpt>
      <trkpt lat="43.71992" lon="3.56649">
        <ele>290.455566</ele>
        <time>2015-02-22T13:02:35Z</time>
      </trkpt>
      <trkpt lat="43.71991" lon="3.56649">
        <ele>291.897461</ele>
        <time>2015-02-22T13:02:36Z</time>
      </trkpt>
      <trkpt lat="43.71991" lon="3.56649">
        <ele>281.803589</ele>
        <time>2015-02-22T13:02:39Z</time>
      </trkpt>
      <trkpt lat="43.7199" lon="3.56649">
        <ele>299.1073</ele>
        <time>2015-02-22T13:02:40Z</time>
      </trkpt>
      <trkpt lat="43.7199" lon="3.56649">
        <ele>292.858765</ele>
        <time>2015-02-22T13:02:41Z</time>
      </trkpt>
      <trkpt lat="43.71989" lon="3.56648">
        <ele>289.01355</ele>
        <time>2015-02-22T13:02:47Z</time>
      </trkpt>
      <trkpt lat="43.71989" lon="3.56648">
        <ele>293.339355</ele>
        <time>2015-02-22T13:02:48Z</time>
      </trkpt>
      <trkpt lat="43.71986" lon="3.56646">
        <ele>291.416748</ele>
        <time>2015-02-22T13:02:58Z</time>
      </trkpt>
      <trkpt lat="43.71978" lon="3.56655">
        <ele>291.416748</ele>
        <time>2015-02-22T13:03:07Z</time>
      </trkpt>
      <trkpt lat="43.71978" lon="3.56658">
        <ele>292.378174</ele>
        <time>2015-02-22T13:03:09Z</time>
      </trkpt>
      <trkpt lat="43.7197" lon="3.56658">
        <ele>290.936157</ele>
        <time>2015-02-22T13:03:21Z</time>
      </trkpt>
      <trkpt lat="43.71968" lon="3.56654">
        <ele>289.974854</ele>
        <time>2015-02-22T13:03:38Z</time>
      </trkpt>
      <trkpt lat="43.71966" lon="3.56652">
        <ele>288.052246</ele>
        <time>2015-02-22T13:03:43Z</time>
      </trkpt>
      <trkpt lat="43.71967" lon="3.56648">
        <ele>285.648804</ele>
        <time>2015-02-22T13:03:59Z</time>
      </trkpt>
      <trkpt lat="43.71967" lon="3.56645">
        <ele>285.648804</ele>
        <time>2015-02-22T13:04:00Z</time>
      </trkpt>
      <trkpt lat="43.71966" lon="3.56646">
        <ele>285.168213</ele>
        <time>2015-02-22T13:04:10Z</time>
      </trkpt>
      <trkpt lat="43.71964" lon="3.56653">
        <ele>285.168213</ele>
        <time>2015-02-22T13:04:14Z</time>
      </trkpt>
      <trkpt lat="43.71963" lon="3.56659">
        <ele>285.168213</ele>
        <time>2015-02-22T13:04:23Z</time>
      </trkpt>
      <trkpt lat="43.71969" lon="3.56643">
        <ele>285.168213</ele>
        <time>2015-02-22T13:04:34Z</time>
      </trkpt>
      <trkpt lat="43.71969" lon="3.56643">
        <ele>277.958252</ele>
        <time>2015-02-22T13:04:36Z</time>
      </trkpt>
      <trkpt lat="43.71969" lon="3.56643">
        <ele>286.129517</ele>
        <time>2015-02-22T13:04:37Z</time>
      </trkpt>
      <trkpt lat="43.71969" lon="3.56643">
        <ele>289.974854</ele>
        <time>2015-02-22T13:04:38Z</time>
      </trkpt>
      <trkpt lat="43.71969" lon="3.56643">
        <ele>287.571411</ele>
        <time>2015-02-22T13:04:39Z</time>
      </trkpt>
      <trkpt lat="43.71969" lon="3.56643">
        <ele>286.610229</ele>
        <time>2015-02-22T13:04:41Z</time>
      </trkpt>
      <trkpt lat="43.71969" lon="3.56643">
        <ele>283.245605</ele>
        <time>2015-02-22T13:04:49Z</time>
      </trkpt>
      <trkpt lat="43.71969" lon="3.56643">
        <ele>284.687622</ele>
        <time>2015-02-22T13:04:52Z</time>
      </trkpt>
      <trkpt lat="43.71969" lon="3.56643">
        <ele>285.168213</ele>
        <time>2015-02-22T13:05:01Z</time>
      </trkpt>
      <trkpt lat="43.71969" lon="3.56643">
        <ele>281.803589</ele>
        <time>2015-02-22T13:05:10Z</time>
      </trkpt>
      <trkpt lat="43.71969" lon="3.56643">
        <ele>285.168213</ele>
        <time>2015-02-22T13:05:27Z</time>
      </trkpt>
      <trkpt lat="43.71969" lon="3.56643">
        <ele>280.361694</ele>
        <time>2015-02-22T13:07:29Z</time>
      </trkpt>
      <trkpt lat="43.71969" lon="3.56643">
        <ele>285.168213</ele>
        <time>2015-02-22T13:07:33Z</time>
      </trkpt>
      <trkpt lat="43.71969" lon="3.56643">
        <ele>282.284302</ele>
        <time>2015-02-22T13:07:39Z</time>
      </trkpt>
      <trkpt lat="43.71969" lon="3.56643">
        <ele>283.726196</ele>
        <time>2015-02-22T13:07:41Z</time>
      </trkpt>
      <trkpt lat="43.71969" lon="3.56643">
        <ele>284.687622</ele>
        <time>2015-02-22T13:09:02Z</time>
      </trkpt>
      <trkpt lat="43.71969" lon="3.56643">
        <ele>282.765015</ele>
        <time>2015-02-22T13:09:04Z</time>
      </trkpt>
      <trkpt lat="43.71969" lon="3.56643">
        <ele>284.206909</ele>
        <time>2015-02-22T13:09:06Z</time>
      </trkpt>
      <trkpt lat="43.71969" lon="3.56643">
        <ele>283.245605</ele>
        <time>2015-02-22T13:10:43Z</time>
      </trkpt>
      <trkpt lat="43.71969" lon="3.56643">
        <ele>284.687622</ele>
        <time>2015-02-22T13:11:09Z</time>
      </trkpt>
      <trkpt lat="43.71969" lon="3.56643">
        <ele>282.284302</ele>
        <time>2015-02-22T13:11:49Z</time>
      </trkpt>
      <trkpt lat="43.71969" lon="3.56643">
        <ele>285.648804</ele>
        <time>2015-02-22T13:11:50Z</time>
      </trkpt>
      <trkpt lat="43.71969" lon="3.56643">
        <ele>285.648804</ele>
        <time>2015-02-22T13:11:51Z</time>
      </trkpt>
      <trkpt lat="43.71969" lon="3.56643">
        <ele>281.322998</ele>
        <time>2015-02-22T13:11:53Z</time>
      </trkpt>
      <trkpt lat="43.71969" lon="3.56643">
        <ele>285.168213</ele>
        <time>2015-02-22T13:11:54Z</time>
      </trkpt>
      <trkpt lat="43.71969" lon="3.56643">
        <ele>285.168213</ele>
        <time>2015-02-22T13:11:55Z</time>
      </trkpt>
      <trkpt lat="43.71969" lon="3.56643">
        <ele>281.803589</ele>
        <time>2015-02-22T13:11:57Z</time>
      </trkpt>
      <trkpt lat="43.71969" lon="3.56643">
        <ele>285.648804</ele>
        <time>2015-02-22T13:11:58Z</time>
      </trkpt>
      <trkpt lat="43.71969" lon="3.56643">
        <ele>282.765015</ele>
        <time>2015-02-22T13:12:11Z</time>
      </trkpt>
      <trkpt lat="43.71969" lon="3.56643">
        <ele>285.648804</ele>
        <time>2015-02-22T13:12:13Z</time>
      </trkpt>
      <trkpt lat="43.71969" lon="3.56643">
        <ele>283.726196</ele>
        <time>2015-02-22T13:12:18Z</time>
      </trkpt>
      <trkpt lat="43.71969" lon="3.56643">
        <ele>285.168213</ele>
        <time>2015-02-22T13:12:51Z</time>
      </trkpt>
      <trkpt lat="43.71969" lon="3.56643">
        <ele>284.206909</ele>
        <time>2015-02-22T13:15:18Z</time>
      </trkpt>
      <trkpt lat="43.71969" lon="3.56643">
        <ele>283.245605</ele>
        <time>2015-02-22T13:16:29Z</time>
      </trkpt>
      <trkpt lat="43.71969" lon="3.56643">
        <ele>282.284302</ele>
        <time>2015-02-22T13:20:46Z</time>
      </trkpt>
      <trkpt lat="43.71969" lon="3.56643">
        <ele>282.284302</ele>
        <time>2015-02-22T13:21:21Z</time>
      </trkpt>
      <trkpt lat="43.71969" lon="3.56643">
        <ele>286.129517</ele>
        <time>2015-02-22T13:25:44Z</time>
      </trkpt>
      <trkpt lat="43.71969" lon="3.56643">
        <ele>281.803589</ele>
        <time>2015-02-22T13:25:45Z</time>
      </trkpt>
      <trkpt lat="43.71969" lon="3.56643">
        <ele>281.803589</ele>
        <time>2015-02-22T13:27:39Z</time>
      </trkpt>
      <trkpt lat="43.71969" lon="3.56643">
        <ele>282.284302</ele>
        <time>2015-02-22T13:29:30Z</time>
      </trkpt>
      <trkpt lat="43.71969" lon="3.56643">
        <ele>282.765015</ele>
        <time>2015-02-22T13:29:35Z</time>
      </trkpt>
      <trkpt lat="43.71969" lon="3.56643">
        <ele>282.284302</ele>
        <time>2015-02-22T13:29:48Z</time>
      </trkpt>
      <trkpt lat="43.71969" lon="3.56643">
        <ele>282.284302</ele>
        <time>2015-02-22T13:33:22Z</time>
      </trkpt>
      <trkpt lat="43.71969" lon="3.56643">
        <ele>281.322998</ele>
        <time>2015-02-22T13:40:00Z</time>
      </trkpt>
      <trkpt lat="43.71969" lon="3.56643">
        <ele>278.438965</ele>
        <time>2015-02-22T13:40:51Z</time>
      </trkpt>
      <trkpt lat="43.71969" lon="3.56643">
        <ele>278.438965</ele>
        <time>2015-02-22T13:40:52Z</time>
      </trkpt>
      <trkpt lat="43.71969" lon="3.56643">
        <ele>280.842407</ele>
        <time>2015-02-22T13:40:54Z</time>
      </trkpt>
      <trkpt lat="43.71969" lon="3.56643">
        <ele>276.035645</ele>
        <time>2015-02-22T13:41:08Z</time>
      </trkpt>
      <trkpt lat="43.71969" lon="3.56643">
        <ele>282.284302</ele>
        <time>2015-02-22T13:41:09Z</time>
      </trkpt>
      <trkpt lat="43.71969" lon="3.56643">
        <ele>280.842407</ele>
        <time>2015-02-22T13:41:12Z</time>
      </trkpt>
      <trkpt lat="43.71969" lon="3.56643">
        <ele>281.803589</ele>
        <time>2015-02-22T13:41:20Z</time>
      </trkpt>
      <trkpt lat="43.71969" lon="3.56643">
        <ele>280.361694</ele>
        <time>2015-02-22T13:41:33Z</time>
      </trkpt>
      <trkpt lat="43.71969" lon="3.56643">
        <ele>279.400269</ele>
        <time>2015-02-22T13:42:56Z</time>
      </trkpt>
      <trkpt lat="43.71969" lon="3.56643">
        <ele>280.842407</ele>
        <time>2015-02-22T13:42:59Z</time>
      </trkpt>
      <trkpt lat="43.71969" lon="3.56643">
        <ele>277.477661</ele>
        <time>2015-02-22T13:43:43Z</time>
      </trkpt>
      <trkpt lat="43.71969" lon="3.56643">
        <ele>282.765015</ele>
        <time>2015-02-22T13:43:44Z</time>
      </trkpt>
      <trkpt lat="43.71969" lon="3.56643">
        <ele>279.880859</ele>
        <time>2015-02-22T13:43:45Z</time>
      </trkpt>
      <trkpt lat="43.71969" lon="3.56643">
        <ele>283.245605</ele>
        <time>2015-02-22T13:44:16Z</time>
      </trkpt>
      <trkpt lat="43.71969" lon="3.56643">
        <ele>279.880859</ele>
        <time>2015-02-22T13:44:21Z</time>
      </trkpt>
      <trkpt lat="43.71969" lon="3.56643">
        <ele>278.919678</ele>
        <time>2015-02-22T13:44:28Z</time>
      </trkpt>
      <trkpt lat="43.71969" lon="3.56643">
        <ele>282.765015</ele>
        <time>2015-02-22T13:44:44Z</time>
      </trkpt>
      <trkpt lat="43.71969" lon="3.56643">
        <ele>278.438965</ele>
        <time>2015-02-22T13:44:45Z</time>
      </trkpt>
      <trkpt lat="43.71969" lon="3.56643">
        <ele>281.803589</ele>
        <time>2015-02-22T13:44:55Z</time>
      </trkpt>
      <trkpt lat="43.71969" lon="3.56643">
        <ele>282.284302</ele>
        <time>2015-02-22T13:45:47Z</time>
      </trkpt>
      <trkpt lat="43.71969" lon="3.56643">
        <ele>282.284302</ele>
        <time>2015-02-22T13:45:57Z</time>
      </trkpt>
      <trkpt lat="43.71969" lon="3.56643">
        <ele>280.361694</ele>
        <time>2015-02-22T13:45:59Z</time>
      </trkpt>
      <trkpt lat="43.71969" lon="3.56643">
        <ele>276.516357</ele>
        <time>2015-02-22T13:46:38Z</time>
      </trkpt>
      <trkpt lat="43.71969" lon="3.56643">
        <ele>282.765015</ele>
        <time>2015-02-22T13:46:39Z</time>
      </trkpt>
      <trkpt lat="43.71969" lon="3.56643">
        <ele>278.919678</ele>
        <time>2015-02-22T13:46:40Z</time>
      </trkpt>
      <trkpt lat="43.71969" lon="3.56643">
        <ele>281.322998</ele>
        <time>2015-02-22T13:46:54Z</time>
      </trkpt>
      <trkpt lat="43.71969" lon="3.56643">
        <ele>279.400269</ele>
        <time>2015-02-22T13:47:12Z</time>
      </trkpt>
      <trkpt lat="43.71969" lon="3.56643">
        <ele>282.765015</ele>
        <time>2015-02-22T13:47:13Z</time>
      </trkpt>
      <trkpt lat="43.71969" lon="3.56643">
        <ele>279.400269</ele>
        <time>2015-02-22T13:47:14Z</time>
      </trkpt>
      <trkpt lat="43.71969" lon="3.56643">
        <ele>283.726196</ele>
        <time>2015-02-22T13:47:17Z</time>
      </trkpt>
      <trkpt lat="43.71969" lon="3.56643">
        <ele>281.803589</ele>
        <time>2015-02-22T13:47:18Z</time>
      </trkpt>
      <trkpt lat="43.71969" lon="3.56643">
        <ele>284.687622</ele>
        <time>2015-02-22T13:47:42Z</time>
      </trkpt>
      <trkpt lat="43.71969" lon="3.56643">
        <ele>285.168213</ele>
        <time>2015-02-22T13:47:49Z</time>
      </trkpt>
      <trkpt lat="43.71962" lon="3.56657">
        <ele>287.571411</ele>
        <time>2015-02-22T13:48:01Z</time>
      </trkpt>
      <trkpt lat="43.71962" lon="3.56658">
        <ele>290.936157</ele>
        <time>2015-02-22T13:48:08Z</time>
      </trkpt>
      <trkpt lat="43.71961" lon="3.56659">
        <ele>290.936157</ele>
        <time>2015-02-22T13:48:11Z</time>
      </trkpt>
      <trkpt lat="43.71955" lon="3.56661">
        <ele>289.01355</ele>
        <time>2015-02-22T13:48:16Z</time>
      </trkpt>
      <trkpt lat="43.71947" lon="3.56667">
        <ele>288.052246</ele>
        <time>2015-02-22T13:48:23Z</time>
      </trkpt>
      <trkpt lat="43.71944" lon="3.56671">
        <ele>290.455566</ele>
        <time>2015-02-22T13:48:39Z</time>
      </trkpt>
      <trkpt lat="43.71949" lon="3.56674">
        <ele>288.532959</ele>
        <time>2015-02-22T13:48:53Z</time>
      </trkpt>
      <trkpt lat="43.71946" lon="3.56673">
        <ele>284.206909</ele>
        <time>2015-02-22T13:49:04Z</time>
      </trkpt>
      <trkpt lat="43.71946" lon="3.56673">
        <ele>293.339355</ele>
        <time>2015-02-22T13:49:05Z</time>
      </trkpt>
      <trkpt lat="43.71946" lon="3.56673">
        <ele>289.01355</ele>
        <time>2015-02-22T13:49:06Z</time>
      </trkpt>
      <trkpt lat="43.71945" lon="3.56675">
        <ele>287.571411</ele>
        <time>2015-02-22T13:49:09Z</time>
      </trkpt>
      <trkpt lat="43.71944" lon="3.56675">
        <ele>289.974854</ele>
        <time>2015-02-22T13:50:09Z</time>
      </trkpt>
      <trkpt lat="43.71945" lon="3.56677">
        <ele>288.532959</ele>
        <time>2015-02-22T13:50:33Z</time>
      </trkpt>
      <trkpt lat="43.71945" lon="3.56676">
        <ele>289.01355</ele>
        <time>2015-02-22T13:50:53Z</time>
      </trkpt>
      <trkpt lat="43.71945" lon="3.56673">
        <ele>288.532959</ele>
        <time>2015-02-22T13:51:03Z</time>
      </trkpt>
      <trkpt lat="43.71947" lon="3.5668">
        <ele>290.455566</ele>
        <time>2015-02-22T13:51:25Z</time>
      </trkpt>
      <trkpt lat="43.71951" lon="3.56687">
        <ele>289.01355</ele>
        <time>2015-02-22T13:51:31Z</time>
      </trkpt>
      <trkpt lat="43.7196" lon="3.56705">
        <ele>289.494141</ele>
        <time>2015-02-22T13:51:46Z</time>
      </trkpt>
      <trkpt lat="43.71971" lon="3.56728">
        <ele>287.571411</ele>
        <time>2015-02-22T13:52:03Z</time>
      </trkpt>
      <trkpt lat="43.71975" lon="3.56752">
        <ele>285.648804</ele>
        <time>2015-02-22T13:52:19Z</time>
      </trkpt>
      <trkpt lat="43.71986" lon="3.56776">
        <ele>284.206909</ele>
        <time>2015-02-22T13:52:36Z</time>
      </trkpt>
      <trkpt lat="43.71994" lon="3.56798">
        <ele>281.322998</ele>
        <time>2015-02-22T13:52:51Z</time>
      </trkpt>
      <trkpt lat="43.72" lon="3.56817">
        <ele>282.765015</ele>
        <time>2015-02-22T13:53:04Z</time>
      </trkpt>
      <trkpt lat="43.72014" lon="3.56834">
        <ele>281.803589</ele>
        <time>2015-02-22T13:53:18Z</time>
      </trkpt>
      <trkpt lat="43.72017" lon="3.56838">
        <ele>281.803589</ele>
        <time>2015-02-22T13:53:21Z</time>
      </trkpt>
      <trkpt lat="43.72018" lon="3.56842">
        <ele>280.842407</ele>
        <time>2015-02-22T13:53:24Z</time>
      </trkpt>
      <trkpt lat="43.72018" lon="3.56843">
        <ele>281.322998</ele>
        <time>2015-02-22T13:53:25Z</time>
      </trkpt>
      <trkpt lat="43.72016" lon="3.56874">
        <ele>281.322998</ele>
        <time>2015-02-22T13:53:43Z</time>
      </trkpt>
      <trkpt lat="43.72002" lon="3.56896">
        <ele>279.400269</ele>
        <time>2015-02-22T13:53:59Z</time>
      </trkpt>
      <trkpt lat="43.71996" lon="3.56909">
        <ele>278.919678</ele>
        <time>2015-02-22T13:54:08Z</time>
      </trkpt>
      <trkpt lat="43.7199" lon="3.56936">
        <ele>278.438965</ele>
        <time>2015-02-22T13:54:23Z</time>
      </trkpt>
      <trkpt lat="43.71991" lon="3.56961">
        <ele>276.516357</ele>
        <time>2015-02-22T13:54:36Z</time>
      </trkpt>
      <trkpt lat="43.7199" lon="3.56968">
        <ele>278.438965</ele>
        <time>2015-02-22T13:54:40Z</time>
      </trkpt>
      <trkpt lat="43.71991" lon="3.56979">
        <ele>277.958252</ele>
        <time>2015-02-22T13:54:47Z</time>
      </trkpt>
      <trkpt lat="43.71991" lon="3.5699">
        <ele>278.438965</ele>
        <time>2015-02-22T13:54:53Z</time>
      </trkpt>
      <trkpt lat="43.71989" lon="3.56998">
        <ele>277.958252</ele>
        <time>2015-02-22T13:54:58Z</time>
      </trkpt>
      <trkpt lat="43.71984" lon="3.57026">
        <ele>277.958252</ele>
        <time>2015-02-22T13:55:15Z</time>
      </trkpt>
      <trkpt lat="43.71974" lon="3.5705">
        <ele>276.99707</ele>
        <time>2015-02-22T13:55:34Z</time>
      </trkpt>
      <trkpt lat="43.71966" lon="3.57077">
        <ele>278.919678</ele>
        <time>2015-02-22T13:55:51Z</time>
      </trkpt>
      <trkpt lat="43.71955" lon="3.57098">
        <ele>278.438965</ele>
        <time>2015-02-22T13:56:08Z</time>
      </trkpt>
      <trkpt lat="43.71935" lon="3.57116">
        <ele>278.438965</ele>
        <time>2015-02-22T13:56:27Z</time>
      </trkpt>
      <trkpt lat="43.7191" lon="3.57131">
        <ele>277.958252</ele>
        <time>2015-02-22T13:56:46Z</time>
      </trkpt>
      <trkpt lat="43.71903" lon="3.57141">
        <ele>278.919678</ele>
        <time>2015-02-22T13:57:03Z</time>
      </trkpt>
      <trkpt lat="43.71904" lon="3.57141">
        <ele>279.400269</ele>
        <time>2015-02-22T13:57:29Z</time>
      </trkpt>
      <trkpt lat="43.71905" lon="3.57141">
        <ele>280.361694</ele>
        <time>2015-02-22T13:57:39Z</time>
      </trkpt>
      <trkpt lat="43.71903" lon="3.57145">
        <ele>278.919678</ele>
        <time>2015-02-22T13:58:13Z</time>
      </trkpt>
      <trkpt lat="43.71905" lon="3.5714">
        <ele>278.919678</ele>
        <time>2015-02-22T13:58:33Z</time>
      </trkpt>
      <trkpt lat="43.71904" lon="3.57143">
        <ele>278.919678</ele>
        <time>2015-02-22T13:59:01Z</time>
      </trkpt>
      <trkpt lat="43.71903" lon="3.57145">
        <ele>279.880859</ele>
        <time>2015-02-22T13:59:23Z</time>
      </trkpt>
      <trkpt lat="43.71902" lon="3.5714">
        <ele>277.477661</ele>
        <time>2015-02-22T13:59:43Z</time>
      </trkpt>
      <trkpt lat="43.71891" lon="3.57164">
        <ele>279.400269</ele>
        <time>2015-02-22T13:59:59Z</time>
      </trkpt>
      <trkpt lat="43.71885" lon="3.57192">
        <ele>279.880859</ele>
        <time>2015-02-22T14:00:16Z</time>
      </trkpt>
      <trkpt lat="43.71897" lon="3.57214">
        <ele>281.803589</ele>
        <time>2015-02-22T14:00:32Z</time>
      </trkpt>
      <trkpt lat="43.71914" lon="3.57232">
        <ele>280.842407</ele>
        <time>2015-02-22T14:00:48Z</time>
      </trkpt>
      <trkpt lat="43.71919" lon="3.57257">
        <ele>282.284302</ele>
        <time>2015-02-22T14:01:02Z</time>
      </trkpt>
      <trkpt lat="43.7193" lon="3.57274">
        <ele>280.361694</ele>
        <time>2015-02-22T14:01:16Z</time>
      </trkpt>
      <trkpt lat="43.71944" lon="3.5729">
        <ele>280.361694</ele>
        <time>2015-02-22T14:01:31Z</time>
      </trkpt>
      <trkpt lat="43.71951" lon="3.57296">
        <ele>279.880859</ele>
        <time>2015-02-22T14:01:38Z</time>
      </trkpt>
      <trkpt lat="43.71963" lon="3.57308">
        <ele>279.400269</ele>
        <time>2015-02-22T14:01:51Z</time>
      </trkpt>
      <trkpt lat="43.71966" lon="3.5731">
        <ele>280.361694</ele>
        <time>2015-02-22T14:01:54Z</time>
      </trkpt>
      <trkpt lat="43.71979" lon="3.57316">
        <ele>280.842407</ele>
        <time>2015-02-22T14:02:06Z</time>
      </trkpt>
      <trkpt lat="43.71998" lon="3.57331">
        <ele>280.361694</ele>
        <time>2015-02-22T14:02:23Z</time>
      </trkpt>
      <trkpt lat="43.72002" lon="3.57334">
        <ele>281.322998</ele>
        <time>2015-02-22T14:02:27Z</time>
      </trkpt>
      <trkpt lat="43.72005" lon="3.57336">
        <ele>280.842407</ele>
        <time>2015-02-22T14:02:29Z</time>
      </trkpt>
      <trkpt lat="43.72017" lon="3.57353">
        <ele>280.842407</ele>
        <time>2015-02-22T14:02:43Z</time>
      </trkpt>
      <trkpt lat="43.72022" lon="3.57363">
        <ele>279.880859</ele>
        <time>2015-02-22T14:02:49Z</time>
      </trkpt>
      <trkpt lat="43.72023" lon="3.57366">
        <ele>281.322998</ele>
        <time>2015-02-22T14:02:51Z</time>
      </trkpt>
      <trkpt lat="43.72026" lon="3.57372">
        <ele>281.322998</ele>
        <time>2015-02-22T14:02:55Z</time>
      </trkpt>
      <trkpt lat="43.72032" lon="3.57397">
        <ele>281.322998</ele>
        <time>2015-02-22T14:03:10Z</time>
      </trkpt>
      <trkpt lat="43.72036" lon="3.57413">
        <ele>280.842407</ele>
        <time>2015-02-22T14:03:20Z</time>
      </trkpt>
      <trkpt lat="43.72039" lon="3.57429">
        <ele>282.284302</ele>
        <time>2015-02-22T14:03:29Z</time>
      </trkpt>
      <trkpt lat="43.72039" lon="3.57434">
        <ele>282.284302</ele>
        <time>2015-02-22T14:03:32Z</time>
      </trkpt>
      <trkpt lat="43.72042" lon="3.57442">
        <ele>281.803589</ele>
        <time>2015-02-22T14:03:37Z</time>
      </trkpt>
      <trkpt lat="43.72044" lon="3.57454">
        <ele>281.803589</ele>
        <time>2015-02-22T14:03:44Z</time>
      </trkpt>
      <trkpt lat="43.72044" lon="3.57466">
        <ele>283.726196</ele>
        <time>2015-02-22T14:03:50Z</time>
      </trkpt>
      <trkpt lat="43.72051" lon="3.57484">
        <ele>285.168213</ele>
        <time>2015-02-22T14:04:03Z</time>
      </trkpt>
      <trkpt lat="43.72059" lon="3.575">
        <ele>284.687622</ele>
        <time>2015-02-22T14:04:15Z</time>
      </trkpt>
      <trkpt lat="43.72061" lon="3.57503">
        <ele>284.687622</ele>
        <time>2015-02-22T14:04:17Z</time>
      </trkpt>
      <trkpt lat="43.72072" lon="3.57523">
        <ele>284.206909</ele>
        <time>2015-02-22T14:04:31Z</time>
      </trkpt>
      <trkpt lat="43.72074" lon="3.57529">
        <ele>284.206909</ele>
        <time>2015-02-22T14:04:35Z</time>
      </trkpt>
      <trkpt lat="43.72081" lon="3.57552">
        <ele>285.168213</ele>
        <time>2015-02-22T14:04:51Z</time>
      </trkpt>
      <trkpt lat="43.72088" lon="3.57565">
        <ele>285.168213</ele>
        <time>2015-02-22T14:05:04Z</time>
      </trkpt>
      <trkpt lat="43.72099" lon="3.57589">
        <ele>286.610229</ele>
        <time>2015-02-22T14:05:21Z</time>
      </trkpt>
      <trkpt lat="43.72104" lon="3.57596">
        <ele>286.610229</ele>
        <time>2015-02-22T14:05:28Z</time>
      </trkpt>
      <trkpt lat="43.72117" lon="3.57622">
        <ele>287.09082</ele>
        <time>2015-02-22T14:05:47Z</time>
      </trkpt>
      <trkpt lat="43.72119" lon="3.57625">
        <ele>286.610229</ele>
        <time>2015-02-22T14:05:49Z</time>
      </trkpt>
      <trkpt lat="43.72134" lon="3.57645">
        <ele>287.571411</ele>
        <time>2015-02-22T14:06:07Z</time>
      </trkpt>
      <trkpt lat="43.72146" lon="3.57666">
        <ele>286.610229</ele>
        <time>2015-02-22T14:06:24Z</time>
      </trkpt>
      <trkpt lat="43.72153" lon="3.57674">
        <ele>286.129517</ele>
        <time>2015-02-22T14:06:32Z</time>
      </trkpt>
      <trkpt lat="43.72167" lon="3.57692">
        <ele>287.09082</ele>
        <time>2015-02-22T14:06:48Z</time>
      </trkpt>
      <trkpt lat="43.72173" lon="3.57699">
        <ele>285.648804</ele>
        <time>2015-02-22T14:06:55Z</time>
      </trkpt>
      <trkpt lat="43.72175" lon="3.57702">
        <ele>286.129517</ele>
        <time>2015-02-22T14:06:58Z</time>
      </trkpt>
      <trkpt lat="43.72177" lon="3.57713">
        <ele>285.168213</ele>
        <time>2015-02-22T14:07:05Z</time>
      </trkpt>
      <trkpt lat="43.72185" lon="3.5773">
        <ele>285.648804</ele>
        <time>2015-02-22T14:07:18Z</time>
      </trkpt>
      <trkpt lat="43.72202" lon="3.57739">
        <ele>288.052246</ele>
        <time>2015-02-22T14:07:34Z</time>
      </trkpt>
      <trkpt lat="43.72207" lon="3.57739">
        <ele>287.09082</ele>
        <time>2015-02-22T14:07:51Z</time>
      </trkpt>
      <trkpt lat="43.72218" lon="3.57741">
        <ele>286.610229</ele>
        <time>2015-02-22T14:08:09Z</time>
      </trkpt>
      <trkpt lat="43.72224" lon="3.57741">
        <ele>287.09082</ele>
        <time>2015-02-22T14:08:22Z</time>
      </trkpt>
      <trkpt lat="43.72227" lon="3.57743">
        <ele>288.052246</ele>
        <time>2015-02-22T14:08:29Z</time>
      </trkpt>
      <trkpt lat="43.72235" lon="3.57747">
        <ele>286.610229</ele>
        <time>2015-02-22T14:08:36Z</time>
      </trkpt>
      <trkpt lat="43.72239" lon="3.57751">
        <ele>288.532959</ele>
        <time>2015-02-22T14:08:40Z</time>
      </trkpt>
      <trkpt lat="43.72244" lon="3.57757">
        <ele>288.052246</ele>
        <time>2015-02-22T14:08:45Z</time>
      </trkpt>
      <trkpt lat="43.72269" lon="3.57756">
        <ele>288.532959</ele>
        <time>2015-02-22T14:09:04Z</time>
      </trkpt>
      <trkpt lat="43.72289" lon="3.5777">
        <ele>288.532959</ele>
        <time>2015-02-22T14:09:22Z</time>
      </trkpt>
      <trkpt lat="43.72293" lon="3.57774">
        <ele>287.09082</ele>
        <time>2015-02-22T14:09:25Z</time>
      </trkpt>
      <trkpt lat="43.72311" lon="3.57793">
        <ele>286.129517</ele>
        <time>2015-02-22T14:09:43Z</time>
      </trkpt>
      <trkpt lat="43.72321" lon="3.57802">
        <ele>284.687622</ele>
        <time>2015-02-22T14:09:51Z</time>
      </trkpt>
      <trkpt lat="43.72331" lon="3.57811">
        <ele>284.687622</ele>
        <time>2015-02-22T14:10:00Z</time>
      </trkpt>
      <trkpt lat="43.72347" lon="3.57833">
        <ele>284.206909</ele>
        <time>2015-02-22T14:10:20Z</time>
      </trkpt>
      <trkpt lat="43.72362" lon="3.57849">
        <ele>284.206909</ele>
        <time>2015-02-22T14:10:35Z</time>
      </trkpt>
      <trkpt lat="43.72379" lon="3.57863">
        <ele>284.206909</ele>
        <time>2015-02-22T14:10:51Z</time>
      </trkpt>
      <trkpt lat="43.72381" lon="3.57865">
        <ele>284.206909</ele>
        <time>2015-02-22T14:10:53Z</time>
      </trkpt>
      <trkpt lat="43.72384" lon="3.57866">
        <ele>285.168213</ele>
        <time>2015-02-22T14:10:55Z</time>
      </trkpt>
      <trkpt lat="43.72388" lon="3.57869">
        <ele>284.687622</ele>
        <time>2015-02-22T14:10:59Z</time>
      </trkpt>
      <trkpt lat="43.72405" lon="3.57876">
        <ele>283.726196</ele>
        <time>2015-02-22T14:11:18Z</time>
      </trkpt>
      <trkpt lat="43.72404" lon="3.57879">
        <ele>284.206909</ele>
        <time>2015-02-22T14:11:38Z</time>
      </trkpt>
      <trkpt lat="43.72405" lon="3.5788">
        <ele>284.687622</ele>
        <time>2015-02-22T14:11:46Z</time>
      </trkpt>
      <trkpt lat="43.72425" lon="3.57884">
        <ele>284.206909</ele>
        <time>2015-02-22T14:12:01Z</time>
      </trkpt>
      <trkpt lat="43.72428" lon="3.57885">
        <ele>284.206909</ele>
        <time>2015-02-22T14:12:03Z</time>
      </trkpt>
      <trkpt lat="43.72443" lon="3.5789">
        <ele>282.765015</ele>
        <time>2015-02-22T14:12:16Z</time>
      </trkpt>
      <trkpt lat="43.72452" lon="3.57892">
        <ele>282.765015</ele>
        <time>2015-02-22T14:12:23Z</time>
      </trkpt>
      <trkpt lat="43.72469" lon="3.57895">
        <ele>281.803589</ele>
        <time>2015-02-22T14:12:36Z</time>
      </trkpt>
      <trkpt lat="43.7248" lon="3.579">
        <ele>281.803589</ele>
        <time>2015-02-22T14:12:45Z</time>
      </trkpt>
      <trkpt lat="43.72499" lon="3.579">
        <ele>280.361694</ele>
        <time>2015-02-22T14:13:00Z</time>
      </trkpt>
      <trkpt lat="43.72513" lon="3.57891">
        <ele>281.803589</ele>
        <time>2015-02-22T14:13:12Z</time>
      </trkpt>
      <trkpt lat="43.72521" lon="3.57884">
        <ele>282.284302</ele>
        <time>2015-02-22T14:13:23Z</time>
      </trkpt>
      <trkpt lat="43.72531" lon="3.57876">
        <ele>282.284302</ele>
        <time>2015-02-22T14:13:34Z</time>
      </trkpt>
      <trkpt lat="43.72533" lon="3.57876">
        <ele>281.803589</ele>
        <time>2015-02-22T14:13:37Z</time>
      </trkpt>
      <trkpt lat="43.72547" lon="3.57866">
        <ele>282.765015</ele>
        <time>2015-02-22T14:13:48Z</time>
      </trkpt>
      <trkpt lat="43.72551" lon="3.57858">
        <ele>283.726196</ele>
        <time>2015-02-22T14:13:54Z</time>
      </trkpt>
      <trkpt lat="43.72561" lon="3.57843">
        <ele>282.765015</ele>
        <time>2015-02-22T14:14:05Z</time>
      </trkpt>
      <trkpt lat="43.72572" lon="3.5783">
        <ele>282.765015</ele>
        <time>2015-02-22T14:14:17Z</time>
      </trkpt>
      <trkpt lat="43.72585" lon="3.57821">
        <ele>282.284302</ele>
        <time>2015-02-22T14:14:29Z</time>
      </trkpt>
      <trkpt lat="43.72598" lon="3.57813">
        <ele>280.842407</ele>
        <time>2015-02-22T14:14:40Z</time>
      </trkpt>
      <trkpt lat="43.72602" lon="3.57798">
        <ele>280.361694</ele>
        <time>2015-02-22T14:14:53Z</time>
      </trkpt>
      <trkpt lat="43.72604" lon="3.57794">
        <ele>279.880859</ele>
        <time>2015-02-22T14:14:57Z</time>
      </trkpt>
      <trkpt lat="43.72618" lon="3.57775">
        <ele>280.842407</ele>
        <time>2015-02-22T14:15:13Z</time>
      </trkpt>
      <trkpt lat="43.72625" lon="3.57758">
        <ele>280.842407</ele>
        <time>2015-02-22T14:15:23Z</time>
      </trkpt>
      <trkpt lat="43.72626" lon="3.57752">
        <ele>280.361694</ele>
        <time>2015-02-22T14:15:27Z</time>
      </trkpt>
      <trkpt lat="43.72633" lon="3.5774">
        <ele>282.284302</ele>
        <time>2015-02-22T14:15:38Z</time>
      </trkpt>
      <trkpt lat="43.72634" lon="3.57732">
        <ele>280.361694</ele>
        <time>2015-02-22T14:15:46Z</time>
      </trkpt>
      <trkpt lat="43.72651" lon="3.57719">
        <ele>281.803589</ele>
        <time>2015-02-22T14:15:58Z</time>
      </trkpt>
      <trkpt lat="43.72661" lon="3.57706">
        <ele>283.245605</ele>
        <time>2015-02-22T14:16:08Z</time>
      </trkpt>
      <trkpt lat="43.72669" lon="3.57688">
        <ele>284.206909</ele>
        <time>2015-02-22T14:16:21Z</time>
      </trkpt>
      <trkpt lat="43.72671" lon="3.57666">
        <ele>283.245605</ele>
        <time>2015-02-22T14:16:34Z</time>
      </trkpt>
      <trkpt lat="43.72673" lon="3.57658">
        <ele>283.245605</ele>
        <time>2015-02-22T14:16:39Z</time>
      </trkpt>
      <trkpt lat="43.7267" lon="3.57649">
        <ele>284.687622</ele>
        <time>2015-02-22T14:16:46Z</time>
      </trkpt>
      <trkpt lat="43.72668" lon="3.5764">
        <ele>283.726196</ele>
        <time>2015-02-22T14:16:51Z</time>
      </trkpt>
      <trkpt lat="43.72672" lon="3.57628">
        <ele>283.726196</ele>
        <time>2015-02-22T14:16:58Z</time>
      </trkpt>
      <trkpt lat="43.72679" lon="3.57616">
        <ele>283.726196</ele>
        <time>2015-02-22T14:17:08Z</time>
      </trkpt>
      <trkpt lat="43.72686" lon="3.57609">
        <ele>284.206909</ele>
        <time>2015-02-22T14:17:14Z</time>
      </trkpt>
      <trkpt lat="43.72696" lon="3.57599">
        <ele>284.206909</ele>
        <time>2015-02-22T14:17:23Z</time>
      </trkpt>
      <trkpt lat="43.72702" lon="3.57591">
        <ele>285.648804</ele>
        <time>2015-02-22T14:17:29Z</time>
      </trkpt>
      <trkpt lat="43.72707" lon="3.57584">
        <ele>285.168213</ele>
        <time>2015-02-22T14:17:38Z</time>
      </trkpt>
      <trkpt lat="43.72715" lon="3.57565">
        <ele>284.687622</ele>
        <time>2015-02-22T14:17:51Z</time>
      </trkpt>
      <trkpt lat="43.72717" lon="3.5755">
        <ele>285.168213</ele>
        <time>2015-02-22T14:18:04Z</time>
      </trkpt>
      <trkpt lat="43.7272" lon="3.57551">
        <ele>285.168213</ele>
        <time>2015-02-22T14:18:13Z</time>
      </trkpt>
      <trkpt lat="43.72724" lon="3.57551">
        <ele>284.206909</ele>
        <time>2015-02-22T14:18:17Z</time>
      </trkpt>
      <trkpt lat="43.72734" lon="3.57542">
        <ele>285.168213</ele>
        <time>2015-02-22T14:18:29Z</time>
      </trkpt>
      <trkpt lat="43.72737" lon="3.57543">
        <ele>284.687622</ele>
        <time>2015-02-22T14:18:36Z</time>
      </trkpt>
      <trkpt lat="43.72745" lon="3.57551">
        <ele>285.648804</ele>
        <time>2015-02-22T14:18:44Z</time>
      </trkpt>
      <trkpt lat="43.72752" lon="3.57551">
        <ele>284.206909</ele>
        <time>2015-02-22T14:18:50Z</time>
      </trkpt>
      <trkpt lat="43.72759" lon="3.57549">
        <ele>284.206909</ele>
        <time>2015-02-22T14:19:02Z</time>
      </trkpt>
      <trkpt lat="43.72758" lon="3.57544">
        <ele>284.687622</ele>
        <time>2015-02-22T14:19:22Z</time>
      </trkpt>
      <trkpt lat="43.7276" lon="3.57546">
        <ele>284.206909</ele>
        <time>2015-02-22T14:19:37Z</time>
      </trkpt>
      <trkpt lat="43.72763" lon="3.57542">
        <ele>285.168213</ele>
        <time>2015-02-22T14:19:51Z</time>
      </trkpt>
      <trkpt lat="43.72762" lon="3.57531">
        <ele>286.129517</ele>
        <time>2015-02-22T14:20:02Z</time>
      </trkpt>
      <trkpt lat="43.72763" lon="3.57519">
        <ele>286.610229</ele>
        <time>2015-02-22T14:20:15Z</time>
      </trkpt>
      <trkpt lat="43.72768" lon="3.57517">
        <ele>285.648804</ele>
        <time>2015-02-22T14:20:27Z</time>
      </trkpt>
      <trkpt lat="43.72774" lon="3.57521">
        <ele>285.168213</ele>
        <time>2015-02-22T14:20:37Z</time>
      </trkpt>
      <trkpt lat="43.72776" lon="3.57525">
        <ele>285.168213</ele>
        <time>2015-02-22T14:20:42Z</time>
      </trkpt>
      <trkpt lat="43.72782" lon="3.57529">
        <ele>286.129517</ele>
        <time>2015-02-22T14:20:52Z</time>
      </trkpt>
      <trkpt lat="43.72787" lon="3.57528">
        <ele>286.129517</ele>
        <time>2015-02-22T14:20:58Z</time>
      </trkpt>
      <trkpt lat="43.72794" lon="3.57529">
        <ele>285.648804</ele>
        <time>2015-02-22T14:21:12Z</time>
      </trkpt>
      <trkpt lat="43.72791" lon="3.57529">
        <ele>285.168213</ele>
        <time>2015-02-22T14:21:20Z</time>
      </trkpt>
      <trkpt lat="43.7279" lon="3.57533">
        <ele>285.648804</ele>
        <time>2015-02-22T14:21:35Z</time>
      </trkpt>
      <trkpt lat="43.72796" lon="3.57538">
        <ele>285.648804</ele>
        <time>2015-02-22T14:21:55Z</time>
      </trkpt>
      <trkpt lat="43.72798" lon="3.57543">
        <ele>286.129517</ele>
        <time>2015-02-22T14:21:59Z</time>
      </trkpt>
      <trkpt lat="43.728" lon="3.57554">
        <ele>285.648804</ele>
        <time>2015-02-22T14:22:09Z</time>
      </trkpt>
      <trkpt lat="43.728" lon="3.57556">
        <ele>286.129517</ele>
        <time>2015-02-22T14:22:11Z</time>
      </trkpt>
      <trkpt lat="43.72802" lon="3.57572">
        <ele>285.648804</ele>
        <time>2015-02-22T14:22:23Z</time>
      </trkpt>
      <trkpt lat="43.72799" lon="3.5758">
        <ele>286.129517</ele>
        <time>2015-02-22T14:22:35Z</time>
      </trkpt>
      <trkpt lat="43.728" lon="3.57579">
        <ele>285.648804</ele>
        <time>2015-02-22T14:23:11Z</time>
      </trkpt>
      <trkpt lat="43.728" lon="3.57579">
        <ele>287.571411</ele>
        <time>2015-02-22T14:23:34Z</time>
      </trkpt>
      <trkpt lat="43.728" lon="3.57578">
        <ele>286.129517</ele>
        <time>2015-02-22T14:23:37Z</time>
      </trkpt>
      <trkpt lat="43.72799" lon="3.57579">
        <ele>286.610229</ele>
        <time>2015-02-22T14:24:09Z</time>
      </trkpt>
      <trkpt lat="43.72799" lon="3.57579">
        <ele>288.052246</ele>
        <time>2015-02-22T14:24:12Z</time>
      </trkpt>
      <trkpt lat="43.72799" lon="3.57578">
        <ele>287.09082</ele>
        <time>2015-02-22T14:24:27Z</time>
      </trkpt>
      <trkpt lat="43.72803" lon="3.57581">
        <ele>286.129517</ele>
        <time>2015-02-22T14:25:02Z</time>
      </trkpt>
      <trkpt lat="43.72804" lon="3.5758">
        <ele>287.571411</ele>
        <time>2015-02-22T14:25:13Z</time>
      </trkpt>
      <trkpt lat="43.72811" lon="3.57591">
        <ele>288.532959</ele>
        <time>2015-02-22T14:25:24Z</time>
      </trkpt>
      <trkpt lat="43.72809" lon="3.57597">
        <ele>286.610229</ele>
        <time>2015-02-22T14:25:30Z</time>
      </trkpt>
      <trkpt lat="43.72806" lon="3.57604">
        <ele>287.09082</ele>
        <time>2015-02-22T14:25:35Z</time>
      </trkpt>
      <trkpt lat="43.72807" lon="3.57612">
        <ele>288.052246</ele>
        <time>2015-02-22T14:25:47Z</time>
      </trkpt>
      <trkpt lat="43.72803" lon="3.57621">
        <ele>287.571411</ele>
        <time>2015-02-22T14:25:53Z</time>
      </trkpt>
      <trkpt lat="43.728" lon="3.57631">
        <ele>289.01355</ele>
        <time>2015-02-22T14:26:00Z</time>
      </trkpt>
      <trkpt lat="43.72796" lon="3.57637">
        <ele>288.532959</ele>
        <time>2015-02-22T14:26:05Z</time>
      </trkpt>
      <trkpt lat="43.72794" lon="3.57641">
        <ele>288.052246</ele>
        <time>2015-02-22T14:26:08Z</time>
      </trkpt>
      <trkpt lat="43.72789" lon="3.57647">
        <ele>288.532959</ele>
        <time>2015-02-22T14:26:14Z</time>
      </trkpt>
      <trkpt lat="43.72787" lon="3.57658">
        <ele>290.455566</ele>
        <time>2015-02-22T14:26:24Z</time>
      </trkpt>
      <trkpt lat="43.72789" lon="3.57664">
        <ele>291.416748</ele>
        <time>2015-02-22T14:26:32Z</time>
      </trkpt>
      <trkpt lat="43.72791" lon="3.57672">
        <ele>291.416748</ele>
        <time>2015-02-22T14:26:39Z</time>
      </trkpt>
      <trkpt lat="43.72791" lon="3.57675">
        <ele>291.897461</ele>
        <time>2015-02-22T14:26:41Z</time>
      </trkpt>
      <trkpt lat="43.72791" lon="3.57682">
        <ele>291.416748</ele>
        <time>2015-02-22T14:26:46Z</time>
      </trkpt>
      <trkpt lat="43.72791" lon="3.57688">
        <ele>290.936157</ele>
        <time>2015-02-22T14:26:50Z</time>
      </trkpt>
      <trkpt lat="43.72792" lon="3.57697">
        <ele>288.532959</ele>
        <time>2015-02-22T14:27:02Z</time>
      </trkpt>
      <trkpt lat="43.72792" lon="3.57697">
        <ele>286.610229</ele>
        <time>2015-02-22T14:27:08Z</time>
      </trkpt>
      <trkpt lat="43.72792" lon="3.57697">
        <ele>290.455566</ele>
        <time>2015-02-22T14:27:09Z</time>
      </trkpt>
      <trkpt lat="43.72792" lon="3.57698">
        <ele>290.455566</ele>
        <time>2015-02-22T14:27:10Z</time>
      </trkpt>
      <trkpt lat="43.72792" lon="3.57699">
        <ele>286.610229</ele>
        <time>2015-02-22T14:27:12Z</time>
      </trkpt>
      <trkpt lat="43.72792" lon="3.57699">
        <ele>289.974854</ele>
        <time>2015-02-22T14:27:13Z</time>
      </trkpt>
      <trkpt lat="43.72792" lon="3.57699">
        <ele>286.129517</ele>
        <time>2015-02-22T14:27:14Z</time>
      </trkpt>
      <trkpt lat="43.72793" lon="3.57699">
        <ele>289.974854</ele>
        <time>2015-02-22T14:27:15Z</time>
      </trkpt>
      <trkpt lat="43.72793" lon="3.57699">
        <ele>287.09082</ele>
        <time>2015-02-22T14:27:17Z</time>
      </trkpt>
      <trkpt lat="43.72793" lon="3.57699">
        <ele>287.571411</ele>
        <time>2015-02-22T14:27:18Z</time>
      </trkpt>
      <trkpt lat="43.72793" lon="3.57699">
        <ele>289.01355</ele>
        <time>2015-02-22T14:27:19Z</time>
      </trkpt>
      <trkpt lat="43.72788" lon="3.57706">
        <ele>288.052246</ele>
        <time>2015-02-22T14:27:27Z</time>
      </trkpt>
      <trkpt lat="43.72788" lon="3.57717">
        <ele>287.571411</ele>
        <time>2015-02-22T14:27:33Z</time>
      </trkpt>
      <trkpt lat="43.72791" lon="3.57718">
        <ele>291.897461</ele>
        <time>2015-02-22T14:27:40Z</time>
      </trkpt>
      <trkpt lat="43.7279" lon="3.57718">
        <ele>289.974854</ele>
        <time>2015-02-22T14:27:41Z</time>
      </trkpt>
      <trkpt lat="43.72791" lon="3.57719">
        <ele>288.052246</ele>
        <time>2015-02-22T14:27:43Z</time>
      </trkpt>
      <trkpt lat="43.72794" lon="3.57726">
        <ele>288.532959</ele>
        <time>2015-02-22T14:27:53Z</time>
      </trkpt>
      <trkpt lat="43.72793" lon="3.57728">
        <ele>289.494141</ele>
        <time>2015-02-22T14:27:56Z</time>
      </trkpt>
      <trkpt lat="43.72797" lon="3.57729">
        <ele>289.494141</ele>
        <time>2015-02-22T14:28:15Z</time>
      </trkpt>
      <trkpt lat="43.72803" lon="3.57732">
        <ele>289.494141</ele>
        <time>2015-02-22T14:28:22Z</time>
      </trkpt>
      <trkpt lat="43.72808" lon="3.57736">
        <ele>289.974854</ele>
        <time>2015-02-22T14:28:26Z</time>
      </trkpt>
      <trkpt lat="43.7281" lon="3.57737">
        <ele>289.01355</ele>
        <time>2015-02-22T14:28:29Z</time>
      </trkpt>
      <trkpt lat="43.72813" lon="3.57741">
        <ele>290.455566</ele>
        <time>2015-02-22T14:28:32Z</time>
      </trkpt>
      <trkpt lat="43.72817" lon="3.57745">
        <ele>289.974854</ele>
        <time>2015-02-22T14:28:38Z</time>
      </trkpt>
      <trkpt lat="43.72831" lon="3.57757">
        <ele>290.455566</ele>
        <time>2015-02-22T14:28:50Z</time>
      </trkpt>
      <trkpt lat="43.72842" lon="3.57774">
        <ele>290.455566</ele>
        <time>2015-02-22T14:29:05Z</time>
      </trkpt>
      <trkpt lat="43.72848" lon="3.57794">
        <ele>291.416748</ele>
        <time>2015-02-22T14:29:20Z</time>
      </trkpt>
      <trkpt lat="43.72856" lon="3.5781">
        <ele>290.455566</ele>
        <time>2015-02-22T14:29:34Z</time>
      </trkpt>
      <trkpt lat="43.72857" lon="3.57812">
        <ele>290.455566</ele>
        <time>2015-02-22T14:29:36Z</time>
      </trkpt>
      <trkpt lat="43.72869" lon="3.57827">
        <ele>292.378174</ele>
        <time>2015-02-22T14:29:50Z</time>
      </trkpt>
      <trkpt lat="43.72874" lon="3.57833">
        <ele>295.261963</ele>
        <time>2015-02-22T14:29:56Z</time>
      </trkpt>
      <trkpt lat="43.72875" lon="3.57834">
        <ele>293.820068</ele>
        <time>2015-02-22T14:29:58Z</time>
      </trkpt>
      <trkpt lat="43.72879" lon="3.57838">
        <ele>293.820068</ele>
        <time>2015-02-22T14:30:01Z</time>
      </trkpt>
      <trkpt lat="43.72886" lon="3.57847">
        <ele>295.261963</ele>
        <time>2015-02-22T14:30:11Z</time>
      </trkpt>
      <trkpt lat="43.72892" lon="3.57856">
        <ele>295.261963</ele>
        <time>2015-02-22T14:30:19Z</time>
      </trkpt>
      <trkpt lat="43.72902" lon="3.57845">
        <ele>294.781372</ele>
        <time>2015-02-22T14:30:31Z</time>
      </trkpt>
      <trkpt lat="43.72916" lon="3.5784">
        <ele>294.300781</ele>
        <time>2015-02-22T14:30:43Z</time>
      </trkpt>
      <trkpt lat="43.7292" lon="3.57838">
        <ele>294.781372</ele>
        <time>2015-02-22T14:30:51Z</time>
      </trkpt>
      <trkpt lat="43.72927" lon="3.57839">
        <ele>293.820068</ele>
        <time>2015-02-22T14:30:58Z</time>
      </trkpt>
      <trkpt lat="43.72933" lon="3.57839">
        <ele>293.820068</ele>
        <time>2015-02-22T14:31:04Z</time>
      </trkpt>
      <trkpt lat="43.72948" lon="3.57826">
        <ele>294.300781</ele>
        <time>2015-02-22T14:31:18Z</time>
      </trkpt>
      <trkpt lat="43.72953" lon="3.57821">
        <ele>295.261963</ele>
        <time>2015-02-22T14:31:24Z</time>
      </trkpt>
      <trkpt lat="43.72957" lon="3.57816">
        <ele>295.261963</ele>
        <time>2015-02-22T14:31:29Z</time>
      </trkpt>
      <trkpt lat="43.7296" lon="3.57832">
        <ele>294.781372</ele>
        <time>2015-02-22T14:31:39Z</time>
      </trkpt>
      <trkpt lat="43.72964" lon="3.57836">
        <ele>295.261963</ele>
        <time>2015-02-22T14:31:44Z</time>
      </trkpt>
      <trkpt lat="43.72968" lon="3.57833">
        <ele>295.742676</ele>
        <time>2015-02-22T14:31:51Z</time>
      </trkpt>
      <trkpt lat="43.7297" lon="3.57828">
        <ele>295.261963</ele>
        <time>2015-02-22T14:32:02Z</time>
      </trkpt>
      <trkpt lat="43.7297" lon="3.57823">
        <ele>295.742676</ele>
        <time>2015-02-22T14:32:05Z</time>
      </trkpt>
      <trkpt lat="43.72979" lon="3.57802">
        <ele>295.742676</ele>
        <time>2015-02-22T14:32:20Z</time>
      </trkpt>
      <trkpt lat="43.72983" lon="3.57793">
        <ele>296.223511</ele>
        <time>2015-02-22T14:32:27Z</time>
      </trkpt>
      <trkpt lat="43.72985" lon="3.57783">
        <ele>295.742676</ele>
        <time>2015-02-22T14:32:34Z</time>
      </trkpt>
      <trkpt lat="43.72985" lon="3.57778">
        <ele>296.704102</ele>
        <time>2015-02-22T14:32:37Z</time>
      </trkpt>
      <trkpt lat="43.72988" lon="3.5777">
        <ele>296.223511</ele>
        <time>2015-02-22T14:32:54Z</time>
      </trkpt>
      <trkpt lat="43.72983" lon="3.57762">
        <ele>297.665405</ele>
        <time>2015-02-22T14:33:07Z</time>
      </trkpt>
      <trkpt lat="43.72983" lon="3.57754">
        <ele>297.184692</ele>
        <time>2015-02-22T14:33:17Z</time>
      </trkpt>
      <trkpt lat="43.72981" lon="3.5774">
        <ele>296.223511</ele>
        <time>2015-02-22T14:33:28Z</time>
      </trkpt>
      <trkpt lat="43.7298" lon="3.57737">
        <ele>295.742676</ele>
        <time>2015-02-22T14:33:31Z</time>
      </trkpt>
      <trkpt lat="43.72979" lon="3.57733">
        <ele>296.223511</ele>
        <time>2015-02-22T14:33:38Z</time>
      </trkpt>
      <trkpt lat="43.72976" lon="3.57724">
        <ele>297.184692</ele>
        <time>2015-02-22T14:33:43Z</time>
      </trkpt>
      <trkpt lat="43.72976" lon="3.57699">
        <ele>296.704102</ele>
        <time>2015-02-22T14:34:00Z</time>
      </trkpt>
      <trkpt lat="43.72976" lon="3.57696">
        <ele>295.742676</ele>
        <time>2015-02-22T14:34:03Z</time>
      </trkpt>
      <trkpt lat="43.72974" lon="3.57684">
        <ele>296.223511</ele>
        <time>2015-02-22T14:34:18Z</time>
      </trkpt>
      <trkpt lat="43.72975" lon="3.57683">
        <ele>295.261963</ele>
        <time>2015-02-22T14:34:36Z</time>
      </trkpt>
      <trkpt lat="43.7297" lon="3.57689">
        <ele>295.261963</ele>
        <time>2015-02-22T14:34:52Z</time>
      </trkpt>
      <trkpt lat="43.72969" lon="3.57691">
        <ele>295.261963</ele>
        <time>2015-02-22T14:34:59Z</time>
      </trkpt>
      <trkpt lat="43.72963" lon="3.57694">
        <ele>293.820068</ele>
        <time>2015-02-22T14:35:10Z</time>
      </trkpt>
      <trkpt lat="43.72959" lon="3.577">
        <ele>295.742676</ele>
        <time>2015-02-22T14:35:16Z</time>
      </trkpt>
      <trkpt lat="43.72961" lon="3.57709">
        <ele>295.742676</ele>
        <time>2015-02-22T14:35:34Z</time>
      </trkpt>
      <trkpt lat="43.72963" lon="3.5772">
        <ele>293.339355</ele>
        <time>2015-02-22T14:35:43Z</time>
      </trkpt>
      <trkpt lat="43.7296" lon="3.57725">
        <ele>293.339355</ele>
        <time>2015-02-22T14:35:53Z</time>
      </trkpt>
      <trkpt lat="43.72954" lon="3.57733">
        <ele>293.820068</ele>
        <time>2015-02-22T14:36:05Z</time>
      </trkpt>
      <trkpt lat="43.72954" lon="3.57742">
        <ele>294.300781</ele>
        <time>2015-02-22T14:36:17Z</time>
      </trkpt>
      <trkpt lat="43.72954" lon="3.57748">
        <ele>293.820068</ele>
        <time>2015-02-22T14:36:23Z</time>
      </trkpt>
      <trkpt lat="43.72954" lon="3.57756">
        <ele>294.300781</ele>
        <time>2015-02-22T14:36:29Z</time>
      </trkpt>
      <trkpt lat="43.72946" lon="3.57769">
        <ele>294.300781</ele>
        <time>2015-02-22T14:36:42Z</time>
      </trkpt>
      <trkpt lat="43.72941" lon="3.5778">
        <ele>294.300781</ele>
        <time>2015-02-22T14:36:58Z</time>
      </trkpt>
      <trkpt lat="43.72941" lon="3.57781">
        <ele>294.300781</ele>
        <time>2015-02-22T14:37:20Z</time>
      </trkpt>
      <trkpt lat="43.72941" lon="3.57778">
        <ele>293.339355</ele>
        <time>2015-02-22T14:37:54Z</time>
      </trkpt>
      <trkpt lat="43.72941" lon="3.5778">
        <ele>293.339355</ele>
        <time>2015-02-22T14:38:44Z</time>
      </trkpt>
      <trkpt lat="43.72936" lon="3.57782">
        <ele>294.300781</ele>
        <time>2015-02-22T14:39:32Z</time>
      </trkpt>
      <trkpt lat="43.7294" lon="3.57778">
        <ele>293.339355</ele>
        <time>2015-02-22T14:39:54Z</time>
      </trkpt>
      <trkpt lat="43.7294" lon="3.57779">
        <ele>292.378174</ele>
        <time>2015-02-22T14:40:02Z</time>
      </trkpt>
      <trkpt lat="43.72941" lon="3.5778">
        <ele>295.742676</ele>
        <time>2015-02-22T14:40:09Z</time>
      </trkpt>
      <trkpt lat="43.72941" lon="3.5778">
        <ele>295.742676</ele>
        <time>2015-02-22T14:40:10Z</time>
      </trkpt>
      <trkpt lat="43.72941" lon="3.57782">
        <ele>293.820068</ele>
        <time>2015-02-22T14:40:13Z</time>
      </trkpt>
      <trkpt lat="43.72941" lon="3.57776">
        <ele>293.820068</ele>
        <time>2015-02-22T14:40:36Z</time>
      </trkpt>
      <trkpt lat="43.72941" lon="3.57778">
        <ele>293.820068</ele>
        <time>2015-02-22T14:40:38Z</time>
      </trkpt>
      <trkpt lat="43.72951" lon="3.57801">
        <ele>294.300781</ele>
        <time>2015-02-22T14:40:51Z</time>
      </trkpt>
      <trkpt lat="43.72952" lon="3.57802">
        <ele>294.300781</ele>
        <time>2015-02-22T14:40:52Z</time>
      </trkpt>
      <trkpt lat="43.72955" lon="3.57811">
        <ele>294.300781</ele>
        <time>2015-02-22T14:41:03Z</time>
      </trkpt>
      <trkpt lat="43.72955" lon="3.57813">
        <ele>293.339355</ele>
        <time>2015-02-22T14:41:20Z</time>
      </trkpt>
      <trkpt lat="43.72955" lon="3.57817">
        <ele>296.704102</ele>
        <time>2015-02-22T14:41:32Z</time>
      </trkpt>
      <trkpt lat="43.72955" lon="3.57817">
        <ele>295.742676</ele>
        <time>2015-02-22T14:41:33Z</time>
      </trkpt>
      <trkpt lat="43.72953" lon="3.57819">
        <ele>296.704102</ele>
        <time>2015-02-22T14:41:50Z</time>
      </trkpt>
      <trkpt lat="43.72952" lon="3.57822">
        <ele>293.820068</ele>
        <time>2015-02-22T14:42:04Z</time>
      </trkpt>
      <trkpt lat="43.72953" lon="3.5782">
        <ele>295.261963</ele>
        <time>2015-02-22T14:42:30Z</time>
      </trkpt>
      <trkpt lat="43.72949" lon="3.57824">
        <ele>294.781372</ele>
        <time>2015-02-22T14:42:53Z</time>
      </trkpt>
      <trkpt lat="43.72955" lon="3.57817">
        <ele>295.742676</ele>
        <time>2015-02-22T14:43:13Z</time>
      </trkpt>
      <trkpt lat="43.72953" lon="3.57812">
        <ele>294.781372</ele>
        <time>2015-02-22T14:43:29Z</time>
      </trkpt>
      <trkpt lat="43.72955" lon="3.57813">
        <ele>296.223511</ele>
        <time>2015-02-22T14:43:34Z</time>
      </trkpt>
      <trkpt lat="43.72957" lon="3.57815">
        <ele>295.261963</ele>
        <time>2015-02-22T14:43:37Z</time>
      </trkpt>
      <trkpt lat="43.72956" lon="3.5782">
        <ele>293.339355</ele>
        <time>2015-02-22T14:43:45Z</time>
      </trkpt>
      <trkpt lat="43.72958" lon="3.57832">
        <ele>295.742676</ele>
        <time>2015-02-22T14:43:59Z</time>
      </trkpt>
      <trkpt lat="43.7296" lon="3.57844">
        <ele>294.300781</ele>
        <time>2015-02-22T14:44:08Z</time>
      </trkpt>
      <trkpt lat="43.7295" lon="3.57858">
        <ele>295.261963</ele>
        <time>2015-02-22T14:44:20Z</time>
      </trkpt>
      <trkpt lat="43.72946" lon="3.57862">
        <ele>294.781372</ele>
        <time>2015-02-22T14:44:24Z</time>
      </trkpt>
      <trkpt lat="43.72944" lon="3.57865">
        <ele>293.339355</ele>
        <time>2015-02-22T14:44:26Z</time>
      </trkpt>
      <trkpt lat="43.7293" lon="3.57882">
        <ele>293.339355</ele>
        <time>2015-02-22T14:44:43Z</time>
      </trkpt>
      <trkpt lat="43.72924" lon="3.57888">
        <ele>294.781372</ele>
        <time>2015-02-22T14:44:49Z</time>
      </trkpt>
      <trkpt lat="43.72911" lon="3.57907">
        <ele>292.858765</ele>
        <time>2015-02-22T14:45:06Z</time>
      </trkpt>
      <trkpt lat="43.7291" lon="3.57908">
        <ele>292.378174</ele>
        <time>2015-02-22T14:45:07Z</time>
      </trkpt>
      <trkpt lat="43.72902" lon="3.57925">
        <ele>292.378174</ele>
        <time>2015-02-22T14:45:20Z</time>
      </trkpt>
      <trkpt lat="43.72895" lon="3.57946">
        <ele>292.858765</ele>
        <time>2015-02-22T14:45:34Z</time>
      </trkpt>
      <trkpt lat="43.7289" lon="3.57966">
        <ele>292.858765</ele>
        <time>2015-02-22T14:45:47Z</time>
      </trkpt>
      <trkpt lat="43.72887" lon="3.57982">
        <ele>292.858765</ele>
        <time>2015-02-22T14:45:57Z</time>
      </trkpt>
      <trkpt lat="43.72884" lon="3.57994">
        <ele>293.339355</ele>
        <time>2015-02-22T14:46:04Z</time>
      </trkpt>
      <trkpt lat="43.72882" lon="3.58008">
        <ele>293.339355</ele>
        <time>2015-02-22T14:46:10Z</time>
      </trkpt>
      <trkpt lat="43.72881" lon="3.58033">
        <ele>290.936157</ele>
        <time>2015-02-22T14:46:23Z</time>
      </trkpt>
      <trkpt lat="43.72879" lon="3.58047">
        <ele>289.974854</ele>
        <time>2015-02-22T14:46:30Z</time>
      </trkpt>
      <trkpt lat="43.72875" lon="3.58058">
        <ele>289.494141</ele>
        <time>2015-02-22T14:46:36Z</time>
      </trkpt>
      <trkpt lat="43.72871" lon="3.58071">
        <ele>288.052246</ele>
        <time>2015-02-22T14:46:47Z</time>
      </trkpt>
      <trkpt lat="43.7287" lon="3.5808">
        <ele>290.936157</ele>
        <time>2015-02-22T14:46:51Z</time>
      </trkpt>
      <trkpt lat="43.72869" lon="3.58082">
        <ele>289.494141</ele>
        <time>2015-02-22T14:46:52Z</time>
      </trkpt>
      <trkpt lat="43.72868" lon="3.58087">
        <ele>288.532959</ele>
        <time>2015-02-22T14:46:54Z</time>
      </trkpt>
      <trkpt lat="43.7287" lon="3.5811">
        <ele>288.052246</ele>
        <time>2015-02-22T14:47:07Z</time>
      </trkpt>
      <trkpt lat="43.72873" lon="3.58132">
        <ele>286.610229</ele>
        <time>2015-02-22T14:47:21Z</time>
      </trkpt>
      <trkpt lat="43.72875" lon="3.58137">
        <ele>287.09082</ele>
        <time>2015-02-22T14:47:32Z</time>
      </trkpt>
      <trkpt lat="43.72875" lon="3.58142">
        <ele>287.09082</ele>
        <time>2015-02-22T14:47:39Z</time>
      </trkpt>
      <trkpt lat="43.72873" lon="3.58154">
        <ele>287.09082</ele>
        <time>2015-02-22T14:47:47Z</time>
      </trkpt>
      <trkpt lat="43.72873" lon="3.5818">
        <ele>286.129517</ele>
        <time>2015-02-22T14:48:01Z</time>
      </trkpt>
      <trkpt lat="43.72873" lon="3.58181">
        <ele>286.129517</ele>
        <time>2015-02-22T14:48:02Z</time>
      </trkpt>
      <trkpt lat="43.72872" lon="3.58198">
        <ele>285.648804</ele>
        <time>2015-02-22T14:48:11Z</time>
      </trkpt>
      <trkpt lat="43.72872" lon="3.58209">
        <ele>285.648804</ele>
        <time>2015-02-22T14:48:17Z</time>
      </trkpt>
      <trkpt lat="43.72873" lon="3.58219">
        <ele>284.687622</ele>
        <time>2015-02-22T14:48:22Z</time>
      </trkpt>
      <trkpt lat="43.72876" lon="3.58244">
        <ele>285.648804</ele>
        <time>2015-02-22T14:48:36Z</time>
      </trkpt>
      <trkpt lat="43.7288" lon="3.58259">
        <ele>285.168213</ele>
        <time>2015-02-22T14:48:45Z</time>
      </trkpt>
      <trkpt lat="43.72882" lon="3.58265">
        <ele>284.206909</ele>
        <time>2015-02-22T14:48:48Z</time>
      </trkpt>
      <trkpt lat="43.72883" lon="3.58274">
        <ele>283.245605</ele>
        <time>2015-02-22T14:48:53Z</time>
      </trkpt>
      <trkpt lat="43.72881" lon="3.58279">
        <ele>284.687622</ele>
        <time>2015-02-22T14:48:56Z</time>
      </trkpt>
      <trkpt lat="43.7288" lon="3.5828">
        <ele>280.842407</ele>
        <time>2015-02-22T14:48:57Z</time>
      </trkpt>
      <trkpt lat="43.72878" lon="3.58281">
        <ele>287.09082</ele>
        <time>2015-02-22T14:48:58Z</time>
      </trkpt>
      <trkpt lat="43.72877" lon="3.58281">
        <ele>283.726196</ele>
        <time>2015-02-22T14:48:59Z</time>
      </trkpt>
      <trkpt lat="43.72875" lon="3.58281">
        <ele>285.168213</ele>
        <time>2015-02-22T14:49:00Z</time>
      </trkpt>
      <trkpt lat="43.72869" lon="3.58274">
        <ele>285.168213</ele>
        <time>2015-02-22T14:49:05Z</time>
      </trkpt>
      <trkpt lat="43.7286" lon="3.58268">
        <ele>283.726196</ele>
        <time>2015-02-22T14:49:13Z</time>
      </trkpt>
      <trkpt lat="43.7284" lon="3.58263">
        <ele>283.245605</ele>
        <time>2015-02-22T14:49:28Z</time>
      </trkpt>
      <trkpt lat="43.72836" lon="3.58263">
        <ele>276.99707</ele>
        <time>2015-02-22T14:49:31Z</time>
      </trkpt>
      <trkpt lat="43.72834" lon="3.58263">
        <ele>286.129517</ele>
        <time>2015-02-22T14:49:32Z</time>
      </trkpt>
      <trkpt lat="43.72818" lon="3.58261">
        <ele>282.284302</ele>
        <time>2015-02-22T14:49:44Z</time>
      </trkpt>
      <trkpt lat="43.72805" lon="3.58259">
        <ele>283.245605</ele>
        <time>2015-02-22T14:49:54Z</time>
      </trkpt>
      <trkpt lat="43.72793" lon="3.58259">
        <ele>281.322998</ele>
        <time>2015-02-22T14:50:03Z</time>
      </trkpt>
      <trkpt lat="43.72778" lon="3.58254">
        <ele>281.322998</ele>
        <time>2015-02-22T14:50:15Z</time>
      </trkpt>
      <trkpt lat="43.72764" lon="3.58253">
        <ele>281.322998</ele>
        <time>2015-02-22T14:50:25Z</time>
      </trkpt>
      <trkpt lat="43.72755" lon="3.5825">
        <ele>281.803589</ele>
        <time>2015-02-22T14:50:33Z</time>
      </trkpt>
      <trkpt lat="43.7274" lon="3.58248">
        <ele>281.803589</ele>
        <time>2015-02-22T14:50:44Z</time>
      </trkpt>
      <trkpt lat="43.72716" lon="3.58244">
        <ele>281.803589</ele>
        <time>2015-02-22T14:51:02Z</time>
      </trkpt>
      <trkpt lat="43.72699" lon="3.58239">
        <ele>281.322998</ele>
        <time>2015-02-22T14:51:16Z</time>
      </trkpt>
      <trkpt lat="43.72691" lon="3.58236">
        <ele>281.322998</ele>
        <time>2015-02-22T14:51:22Z</time>
      </trkpt>
      <trkpt lat="43.72681" lon="3.58232">
        <ele>281.803589</ele>
        <time>2015-02-22T14:51:30Z</time>
      </trkpt>
      <trkpt lat="43.72676" lon="3.58229">
        <ele>281.322998</ele>
        <time>2015-02-22T14:51:35Z</time>
      </trkpt>
      <trkpt lat="43.72661" lon="3.58225">
        <ele>282.765015</ele>
        <time>2015-02-22T14:51:51Z</time>
      </trkpt>
      <trkpt lat="43.7266" lon="3.58225">
        <ele>283.245605</ele>
        <time>2015-02-22T14:51:52Z</time>
      </trkpt>
      <trkpt lat="43.72647" lon="3.58237">
        <ele>284.687622</ele>
        <time>2015-02-22T14:52:05Z</time>
      </trkpt>
      <trkpt lat="43.72642" lon="3.58241">
        <ele>284.206909</ele>
        <time>2015-02-22T14:52:10Z</time>
      </trkpt>
      <trkpt lat="43.72622" lon="3.58255">
        <ele>283.726196</ele>
        <time>2015-02-22T14:52:28Z</time>
      </trkpt>
      <trkpt lat="43.72613" lon="3.58255">
        <ele>283.245605</ele>
        <time>2015-02-22T14:52:34Z</time>
      </trkpt>
      <trkpt lat="43.72599" lon="3.58259">
        <ele>285.648804</ele>
        <time>2015-02-22T14:52:46Z</time>
      </trkpt>
      <trkpt lat="43.72582" lon="3.58264">
        <ele>283.726196</ele>
        <time>2015-02-22T14:52:59Z</time>
      </trkpt>
      <trkpt lat="43.72566" lon="3.58279">
        <ele>284.206909</ele>
        <time>2015-02-22T14:53:15Z</time>
      </trkpt>
      <trkpt lat="43.72552" lon="3.58291">
        <ele>283.726196</ele>
        <time>2015-02-22T14:53:28Z</time>
      </trkpt>
      <trkpt lat="43.72539" lon="3.58298">
        <ele>284.206909</ele>
        <time>2015-02-22T14:53:40Z</time>
      </trkpt>
      <trkpt lat="43.72535" lon="3.58298">
        <ele>284.687622</ele>
        <time>2015-02-22T14:53:51Z</time>
      </trkpt>
      <trkpt lat="43.72535" lon="3.58297">
        <ele>284.206909</ele>
        <time>2015-02-22T14:53:55Z</time>
      </trkpt>
      <trkpt lat="43.72529" lon="3.58304">
        <ele>285.168213</ele>
        <time>2015-02-22T14:54:02Z</time>
      </trkpt>
      <trkpt lat="43.72512" lon="3.58327">
        <ele>286.129517</ele>
        <time>2015-02-22T14:54:20Z</time>
      </trkpt>
      <trkpt lat="43.72509" lon="3.58331">
        <ele>286.129517</ele>
        <time>2015-02-22T14:54:23Z</time>
      </trkpt>
      <trkpt lat="43.72506" lon="3.58337">
        <ele>286.129517</ele>
        <time>2015-02-22T14:54:29Z</time>
      </trkpt>
      <trkpt lat="43.72505" lon="3.58342">
        <ele>286.129517</ele>
        <time>2015-02-22T14:54:32Z</time>
      </trkpt>
      <trkpt lat="43.725" lon="3.58351">
        <ele>286.129517</ele>
        <time>2015-02-22T14:54:38Z</time>
      </trkpt>
      <trkpt lat="43.72495" lon="3.58364">
        <ele>286.610229</ele>
        <time>2015-02-22T14:54:46Z</time>
      </trkpt>
      <trkpt lat="43.72489" lon="3.5838">
        <ele>286.610229</ele>
        <time>2015-02-22T14:54:58Z</time>
      </trkpt>
      <trkpt lat="43.72481" lon="3.584">
        <ele>286.610229</ele>
        <time>2015-02-22T14:55:11Z</time>
      </trkpt>
      <trkpt lat="43.72471" lon="3.58409">
        <ele>288.052246</ele>
        <time>2015-02-22T14:55:22Z</time>
      </trkpt>
      <trkpt lat="43.72454" lon="3.58423">
        <ele>289.01355</ele>
        <time>2015-02-22T14:55:36Z</time>
      </trkpt>
      <trkpt lat="43.72433" lon="3.58441">
        <ele>289.01355</ele>
        <time>2015-02-22T14:55:54Z</time>
      </trkpt>
      <trkpt lat="43.72414" lon="3.58449">
        <ele>289.01355</ele>
        <time>2015-02-22T14:56:10Z</time>
      </trkpt>
      <trkpt lat="43.72412" lon="3.5845">
        <ele>289.494141</ele>
        <time>2015-02-22T14:56:11Z</time>
      </trkpt>
      <trkpt lat="43.72404" lon="3.58456">
        <ele>289.494141</ele>
        <time>2015-02-22T14:56:18Z</time>
      </trkpt>
      <trkpt lat="43.72397" lon="3.5846">
        <ele>289.01355</ele>
        <time>2015-02-22T14:56:24Z</time>
      </trkpt>
      <trkpt lat="43.72385" lon="3.58474">
        <ele>289.974854</ele>
        <time>2015-02-22T14:56:37Z</time>
      </trkpt>
      <trkpt lat="43.72383" lon="3.58476">
        <ele>289.01355</ele>
        <time>2015-02-22T14:56:38Z</time>
      </trkpt>
      <trkpt lat="43.72366" lon="3.58485">
        <ele>288.052246</ele>
        <time>2015-02-22T14:56:53Z</time>
      </trkpt>
      <trkpt lat="43.72356" lon="3.58492">
        <ele>288.532959</ele>
        <time>2015-02-22T14:57:02Z</time>
      </trkpt>
      <trkpt lat="43.72351" lon="3.58504">
        <ele>287.09082</ele>
        <time>2015-02-22T14:57:10Z</time>
      </trkpt>
      <trkpt lat="43.72344" lon="3.58509">
        <ele>288.532959</ele>
        <time>2015-02-22T14:57:17Z</time>
      </trkpt>
      <trkpt lat="43.72337" lon="3.58507">
        <ele>287.09082</ele>
        <time>2015-02-22T14:57:23Z</time>
      </trkpt>
      <trkpt lat="43.72331" lon="3.58509">
        <ele>287.571411</ele>
        <time>2015-02-22T14:57:28Z</time>
      </trkpt>
      <trkpt lat="43.72327" lon="3.58514">
        <ele>286.129517</ele>
        <time>2015-02-22T14:57:33Z</time>
      </trkpt>
      <trkpt lat="43.72313" lon="3.58524">
        <ele>285.168213</ele>
        <time>2015-02-22T14:57:49Z</time>
      </trkpt>
      <trkpt lat="43.72314" lon="3.58525">
        <ele>288.532959</ele>
        <time>2015-02-22T14:57:58Z</time>
      </trkpt>
      <trkpt lat="43.72314" lon="3.58525">
        <ele>288.532959</ele>
        <time>2015-02-22T14:57:59Z</time>
      </trkpt>
      <trkpt lat="43.7231" lon="3.5853">
        <ele>285.648804</ele>
        <time>2015-02-22T14:58:17Z</time>
      </trkpt>
      <trkpt lat="43.72304" lon="3.58534">
        <ele>284.687622</ele>
        <time>2015-02-22T14:58:22Z</time>
      </trkpt>
      <trkpt lat="43.72302" lon="3.58537">
        <ele>284.206909</ele>
        <time>2015-02-22T14:58:26Z</time>
      </trkpt>
      <trkpt lat="43.72295" lon="3.58544">
        <ele>283.726196</ele>
        <time>2015-02-22T14:58:35Z</time>
      </trkpt>
      <trkpt lat="43.72294" lon="3.58555">
        <ele>283.245605</ele>
        <time>2015-02-22T14:58:42Z</time>
      </trkpt>
      <trkpt lat="43.72295" lon="3.58563">
        <ele>282.765015</ele>
        <time>2015-02-22T14:58:47Z</time>
      </trkpt>
      <trkpt lat="43.72294" lon="3.5858">
        <ele>282.765015</ele>
        <time>2015-02-22T14:58:59Z</time>
      </trkpt>
      <trkpt lat="43.72292" lon="3.58586">
        <ele>282.765015</ele>
        <time>2015-02-22T14:59:03Z</time>
      </trkpt>
      <trkpt lat="43.72279" lon="3.58604">
        <ele>280.842407</ele>
        <time>2015-02-22T14:59:20Z</time>
      </trkpt>
      <trkpt lat="43.72277" lon="3.58602">
        <ele>280.361694</ele>
        <time>2015-02-22T14:59:42Z</time>
      </trkpt>
      <trkpt lat="43.7227" lon="3.58605">
        <ele>279.880859</ele>
        <time>2015-02-22T14:59:54Z</time>
      </trkpt>
      <trkpt lat="43.72264" lon="3.58609">
        <ele>277.477661</ele>
        <time>2015-02-22T14:59:59Z</time>
      </trkpt>
      <trkpt lat="43.72264" lon="3.58609">
        <ele>277.477661</ele>
        <time>2015-02-22T15:00:00Z</time>
      </trkpt>
      <trkpt lat="43.72258" lon="3.58614">
        <ele>276.035645</ele>
        <time>2015-02-22T15:00:05Z</time>
      </trkpt>
      <trkpt lat="43.72256" lon="3.58618">
        <ele>275.555054</ele>
        <time>2015-02-22T15:00:08Z</time>
      </trkpt>
      <trkpt lat="43.7225" lon="3.58635">
        <ele>274.59375</ele>
        <time>2015-02-22T15:00:17Z</time>
      </trkpt>
      <trkpt lat="43.72243" lon="3.58643">
        <ele>273.151855</ele>
        <time>2015-02-22T15:00:22Z</time>
      </trkpt>
      <trkpt lat="43.7224" lon="3.58649">
        <ele>272.19043</ele>
        <time>2015-02-22T15:00:25Z</time>
      </trkpt>
      <trkpt lat="43.72238" lon="3.58659">
        <ele>271.709717</ele>
        <time>2015-02-22T15:00:30Z</time>
      </trkpt>
      <trkpt lat="43.72235" lon="3.58664">
        <ele>269.787109</ele>
        <time>2015-02-22T15:00:33Z</time>
      </trkpt>
      <trkpt lat="43.72235" lon="3.58666">
        <ele>270.2677</ele>
        <time>2015-02-22T15:00:34Z</time>
      </trkpt>
      <trkpt lat="43.7223" lon="3.58669">
        <ele>269.306519</ele>
        <time>2015-02-22T15:00:38Z</time>
      </trkpt>
      <trkpt lat="43.72228" lon="3.58671">
        <ele>268.345093</ele>
        <time>2015-02-22T15:00:40Z</time>
      </trkpt>
      <trkpt lat="43.72227" lon="3.58672">
        <ele>267.864502</ele>
        <time>2015-02-22T15:00:41Z</time>
      </trkpt>
      <trkpt lat="43.72226" lon="3.58675">
        <ele>267.383911</ele>
        <time>2015-02-22T15:00:43Z</time>
      </trkpt>
      <trkpt lat="43.72222" lon="3.58689">
        <ele>265.941895</ele>
        <time>2015-02-22T15:00:49Z</time>
      </trkpt>
      <trkpt lat="43.72222" lon="3.587">
        <ele>265.461304</ele>
        <time>2015-02-22T15:01:00Z</time>
      </trkpt>
      <trkpt lat="43.72223" lon="3.58703">
        <ele>264.980591</ele>
        <time>2015-02-22T15:01:12Z</time>
      </trkpt>
      <trkpt lat="43.72222" lon="3.58706">
        <ele>265.461304</ele>
        <time>2015-02-22T15:01:22Z</time>
      </trkpt>
      <trkpt lat="43.72218" lon="3.58713">
        <ele>265.461304</ele>
        <time>2015-02-22T15:01:28Z</time>
      </trkpt>
      <trkpt lat="43.72219" lon="3.58725">
        <ele>263.538574</ele>
        <time>2015-02-22T15:01:35Z</time>
      </trkpt>
      <trkpt lat="43.72217" lon="3.58731">
        <ele>262.577148</ele>
        <time>2015-02-22T15:01:39Z</time>
      </trkpt>
      <trkpt lat="43.72217" lon="3.58739">
        <ele>261.615967</ele>
        <time>2015-02-22T15:01:44Z</time>
      </trkpt>
      <trkpt lat="43.72216" lon="3.58746">
        <ele>261.135254</ele>
        <time>2015-02-22T15:01:48Z</time>
      </trkpt>
      <trkpt lat="43.72213" lon="3.58755">
        <ele>260.654541</ele>
        <time>2015-02-22T15:01:53Z</time>
      </trkpt>
      <trkpt lat="43.72213" lon="3.58767">
        <ele>258.731934</ele>
        <time>2015-02-22T15:01:59Z</time>
      </trkpt>
      <trkpt lat="43.72209" lon="3.58772">
        <ele>258.251343</ele>
        <time>2015-02-22T15:02:04Z</time>
      </trkpt>
      <trkpt lat="43.72208" lon="3.58776">
        <ele>257.290039</ele>
        <time>2015-02-22T15:02:07Z</time>
      </trkpt>
      <trkpt lat="43.72208" lon="3.58786">
        <ele>255.36731</ele>
        <time>2015-02-22T15:02:12Z</time>
      </trkpt>
      <trkpt lat="43.72207" lon="3.58802">
        <ele>254.406006</ele>
        <time>2015-02-22T15:02:20Z</time>
      </trkpt>
      <trkpt lat="43.72201" lon="3.58821">
        <ele>252.963989</ele>
        <time>2015-02-22T15:02:33Z</time>
      </trkpt>
      <trkpt lat="43.72201" lon="3.58823">
        <ele>252.483398</ele>
        <time>2015-02-22T15:02:34Z</time>
      </trkpt>
      <trkpt lat="43.72193" lon="3.58833">
        <ele>249.118774</ele>
        <time>2015-02-22T15:02:42Z</time>
      </trkpt>
      <trkpt lat="43.7219" lon="3.58838">
        <ele>247.676758</ele>
        <time>2015-02-22T15:02:45Z</time>
      </trkpt>
      <trkpt lat="43.72187" lon="3.58854">
        <ele>246.715454</ele>
        <time>2015-02-22T15:02:57Z</time>
      </trkpt>
      <trkpt lat="43.72181" lon="3.58861">
        <ele>243.831543</ele>
        <time>2015-02-22T15:03:05Z</time>
      </trkpt>
      <trkpt lat="43.7218" lon="3.58861">
        <ele>242.389648</ele>
        <time>2015-02-22T15:03:08Z</time>
      </trkpt>
      <trkpt lat="43.7218" lon="3.58861">
        <ele>242.389648</ele>
        <time>2015-02-22T15:03:09Z</time>
      </trkpt>
      <trkpt lat="43.72176" lon="3.58861">
        <ele>241.908936</ele>
        <time>2015-02-22T15:03:12Z</time>
      </trkpt>
      <trkpt lat="43.72174" lon="3.58865">
        <ele>241.428223</ele>
        <time>2015-02-22T15:03:15Z</time>
      </trkpt>
      <trkpt lat="43.7217" lon="3.58869">
        <ele>240.467041</ele>
        <time>2015-02-22T15:03:24Z</time>
      </trkpt>
      <trkpt lat="43.72167" lon="3.58874">
        <ele>239.986206</ele>
        <time>2015-02-22T15:03:29Z</time>
      </trkpt>
      <trkpt lat="43.72166" lon="3.58878">
        <ele>239.024902</ele>
        <time>2015-02-22T15:03:32Z</time>
      </trkpt>
      <trkpt lat="43.72159" lon="3.58889">
        <ele>235.660278</ele>
        <time>2015-02-22T15:03:42Z</time>
      </trkpt>
      <trkpt lat="43.72157" lon="3.589">
        <ele>232.776489</ele>
        <time>2015-02-22T15:03:52Z</time>
      </trkpt>
      <trkpt lat="43.72156" lon="3.58907">
        <ele>232.776489</ele>
        <time>2015-02-22T15:03:57Z</time>
      </trkpt>
      <trkpt lat="43.72154" lon="3.58909">
        <ele>231.814941</ele>
        <time>2015-02-22T15:03:59Z</time>
      </trkpt>
      <trkpt lat="43.72151" lon="3.58916">
        <ele>231.334351</ele>
        <time>2015-02-22T15:04:03Z</time>
      </trkpt>
      <trkpt lat="43.72147" lon="3.58932">
        <ele>229.411743</ele>
        <time>2015-02-22T15:04:14Z</time>
      </trkpt>
      <trkpt lat="43.72145" lon="3.58942">
        <ele>226.527832</ele>
        <time>2015-02-22T15:04:49Z</time>
      </trkpt>
      <trkpt lat="43.72145" lon="3.58944">
        <ele>226.047119</ele>
        <time>2015-02-22T15:05:04Z</time>
      </trkpt>
      <trkpt lat="43.72143" lon="3.58946">
        <ele>226.047119</ele>
        <time>2015-02-22T15:05:12Z</time>
      </trkpt>
      <trkpt lat="43.72139" lon="3.58952">
        <ele>221.721191</ele>
        <time>2015-02-22T15:05:18Z</time>
      </trkpt>
      <trkpt lat="43.72138" lon="3.58954">
        <ele>222.201782</ele>
        <time>2015-02-22T15:05:19Z</time>
      </trkpt>
      <trkpt lat="43.72133" lon="3.58964">
        <ele>220.759888</ele>
        <time>2015-02-22T15:05:30Z</time>
      </trkpt>
      <trkpt lat="43.72128" lon="3.58973">
        <ele>219.317993</ele>
        <time>2015-02-22T15:05:42Z</time>
      </trkpt>
      <trkpt lat="43.72124" lon="3.58979">
        <ele>218.356567</ele>
        <time>2015-02-22T15:05:50Z</time>
      </trkpt>
      <trkpt lat="43.72117" lon="3.58988">
        <ele>215.953247</ele>
        <time>2015-02-22T15:06:02Z</time>
      </trkpt>
      <trkpt lat="43.72108" lon="3.58996">
        <ele>213.550049</ele>
        <time>2015-02-22T15:06:15Z</time>
      </trkpt>
      <trkpt lat="43.721" lon="3.59002">
        <ele>211.146729</ele>
        <time>2015-02-22T15:06:26Z</time>
      </trkpt>
      <trkpt lat="43.72098" lon="3.59003">
        <ele>210.185425</ele>
        <time>2015-02-22T15:06:28Z</time>
      </trkpt>
      <trkpt lat="43.72093" lon="3.59007">
        <ele>209.704834</ele>
        <time>2015-02-22T15:06:34Z</time>
      </trkpt>
      <trkpt lat="43.72091" lon="3.59008">
        <ele>208.743408</ele>
        <time>2015-02-22T15:06:36Z</time>
      </trkpt>
      <trkpt lat="43.72085" lon="3.59015">
        <ele>206.820679</ele>
        <time>2015-02-22T15:06:43Z</time>
      </trkpt>
      <trkpt lat="43.72083" lon="3.59015">
        <ele>208.262817</ele>
        <time>2015-02-22T15:06:46Z</time>
      </trkpt>
      <trkpt lat="43.7208" lon="3.59017">
        <ele>207.301392</ele>
        <time>2015-02-22T15:06:50Z</time>
      </trkpt>
      <trkpt lat="43.7207" lon="3.59029">
        <ele>205.859497</ele>
        <time>2015-02-22T15:07:03Z</time>
      </trkpt>
      <trkpt lat="43.72068" lon="3.59034">
        <ele>205.378784</ele>
        <time>2015-02-22T15:07:06Z</time>
      </trkpt>
      <trkpt lat="43.72066" lon="3.59036">
        <ele>204.41748</ele>
        <time>2015-02-22T15:07:08Z</time>
      </trkpt>
      <trkpt lat="43.7206" lon="3.59042">
        <ele>203.93689</ele>
        <time>2015-02-22T15:07:14Z</time>
      </trkpt>
      <trkpt lat="43.72058" lon="3.59046">
        <ele>204.898071</ele>
        <time>2015-02-22T15:07:17Z</time>
      </trkpt>
      <trkpt lat="43.72053" lon="3.59052">
        <ele>202.494873</ele>
        <time>2015-02-22T15:07:24Z</time>
      </trkpt>
      <trkpt lat="43.72049" lon="3.59057">
        <ele>200.572266</ele>
        <time>2015-02-22T15:07:28Z</time>
      </trkpt>
      <trkpt lat="43.72043" lon="3.59065">
        <ele>199.130127</ele>
        <time>2015-02-22T15:07:36Z</time>
      </trkpt>
      <trkpt lat="43.72033" lon="3.59074">
        <ele>199.130127</ele>
        <time>2015-02-22T15:07:48Z</time>
      </trkpt>
      <trkpt lat="43.72025" lon="3.59083">
        <ele>198.168945</ele>
        <time>2015-02-22T15:08:00Z</time>
      </trkpt>
      <trkpt lat="43.72013" lon="3.59094">
        <ele>198.168945</ele>
        <time>2015-02-22T15:08:13Z</time>
      </trkpt>
      <trkpt lat="43.72" lon="3.59108">
        <ele>196.726929</ele>
        <time>2015-02-22T15:08:26Z</time>
      </trkpt>
      <trkpt lat="43.71996" lon="3.59111">
        <ele>196.246338</ele>
        <time>2015-02-22T15:08:30Z</time>
      </trkpt>
      <trkpt lat="43.71981" lon="3.59121">
        <ele>193.362305</ele>
        <time>2015-02-22T15:08:45Z</time>
      </trkpt>
      <trkpt lat="43.71973" lon="3.59129">
        <ele>194.32373</ele>
        <time>2015-02-22T15:08:53Z</time>
      </trkpt>
      <trkpt lat="43.71959" lon="3.59139">
        <ele>192.881714</ele>
        <time>2015-02-22T15:09:07Z</time>
      </trkpt>
      <trkpt lat="43.71956" lon="3.59142">
        <ele>192.881714</ele>
        <time>2015-02-22T15:09:10Z</time>
      </trkpt>
      <trkpt lat="43.71941" lon="3.59155">
        <ele>191.439575</ele>
        <time>2015-02-22T15:09:26Z</time>
      </trkpt>
      <trkpt lat="43.71939" lon="3.59157">
        <ele>190.958984</ele>
        <time>2015-02-22T15:09:28Z</time>
      </trkpt>
      <trkpt lat="43.71924" lon="3.59169">
        <ele>189.036377</ele>
        <time>2015-02-22T15:09:42Z</time>
      </trkpt>
      <trkpt lat="43.71907" lon="3.5918">
        <ele>188.075073</ele>
        <time>2015-02-22T15:09:58Z</time>
      </trkpt>
      <trkpt lat="43.71902" lon="3.59185">
        <ele>188.075073</ele>
        <time>2015-02-22T15:10:04Z</time>
      </trkpt>
      <trkpt lat="43.71899" lon="3.59187">
        <ele>187.59436</ele>
        <time>2015-02-22T15:10:07Z</time>
      </trkpt>
      <trkpt lat="43.71896" lon="3.59191">
        <ele>188.555786</ele>
        <time>2015-02-22T15:10:10Z</time>
      </trkpt>
      <trkpt lat="43.71894" lon="3.59194">
        <ele>188.075073</ele>
        <time>2015-02-22T15:10:12Z</time>
      </trkpt>
      <trkpt lat="43.7189" lon="3.59196">
        <ele>187.11377</ele>
        <time>2015-02-22T15:10:16Z</time>
      </trkpt>
      <trkpt lat="43.71879" lon="3.59202">
        <ele>187.59436</ele>
        <time>2015-02-22T15:10:28Z</time>
      </trkpt>
      <trkpt lat="43.71871" lon="3.59208">
        <ele>187.11377</ele>
        <time>2015-02-22T15:10:35Z</time>
      </trkpt>
      <trkpt lat="43.71861" lon="3.59218">
        <ele>186.633179</ele>
        <time>2015-02-22T15:10:45Z</time>
      </trkpt>
      <trkpt lat="43.71848" lon="3.59226">
        <ele>184.710571</ele>
        <time>2015-02-22T15:10:57Z</time>
      </trkpt>
      <trkpt lat="43.71843" lon="3.59231">
        <ele>183.749023</ele>
        <time>2015-02-22T15:11:03Z</time>
      </trkpt>
      <trkpt lat="43.7183" lon="3.59242">
        <ele>180.865234</ele>
        <time>2015-02-22T15:11:16Z</time>
      </trkpt>
      <trkpt lat="43.71823" lon="3.59248">
        <ele>180.865234</ele>
        <time>2015-02-22T15:11:22Z</time>
      </trkpt>
      <trkpt lat="43.71817" lon="3.59255">
        <ele>179.903809</ele>
        <time>2015-02-22T15:11:28Z</time>
      </trkpt>
      <trkpt lat="43.71811" lon="3.59261">
        <ele>179.423218</ele>
        <time>2015-02-22T15:11:34Z</time>
      </trkpt>
      <trkpt lat="43.71799" lon="3.59267">
        <ele>177.50061</ele>
        <time>2015-02-22T15:11:44Z</time>
      </trkpt>
      <trkpt lat="43.71782" lon="3.5927">
        <ele>175.09729</ele>
        <time>2015-02-22T15:11:57Z</time>
      </trkpt>
      <trkpt lat="43.71781" lon="3.5927">
        <ele>174.616577</ele>
        <time>2015-02-22T15:11:58Z</time>
      </trkpt>
      <trkpt lat="43.71773" lon="3.59273">
        <ele>173.174683</ele>
        <time>2015-02-22T15:12:04Z</time>
      </trkpt>
      <trkpt lat="43.7177" lon="3.59274">
        <ele>173.174683</ele>
        <time>2015-02-22T15:12:06Z</time>
      </trkpt>
      <trkpt lat="43.71759" lon="3.59274">
        <ele>173.174683</ele>
        <time>2015-02-22T15:12:14Z</time>
      </trkpt>
      <trkpt lat="43.71747" lon="3.59275">
        <ele>171.732666</ele>
        <time>2015-02-22T15:12:25Z</time>
      </trkpt>
      <trkpt lat="43.7174" lon="3.59275">
        <ele>171.252075</ele>
        <time>2015-02-22T15:12:33Z</time>
      </trkpt>
      <trkpt lat="43.71726" lon="3.59277">
        <ele>168.848755</ele>
        <time>2015-02-22T15:12:44Z</time>
      </trkpt>
      <trkpt lat="43.7172" lon="3.59277">
        <ele>167.887329</ele>
        <time>2015-02-22T15:12:48Z</time>
      </trkpt>
      <trkpt lat="43.71714" lon="3.59278">
        <ele>167.406738</ele>
        <time>2015-02-22T15:12:53Z</time>
      </trkpt>
      <trkpt lat="43.7171" lon="3.59277">
        <ele>166.445312</ele>
        <time>2015-02-22T15:12:56Z</time>
      </trkpt>
      <trkpt lat="43.71705" lon="3.59276">
        <ele>167.406738</ele>
        <time>2015-02-22T15:13:00Z</time>
      </trkpt>
      <trkpt lat="43.71705" lon="3.59275">
        <ele>166.445312</ele>
        <time>2015-02-22T15:13:16Z</time>
      </trkpt>
      <trkpt lat="43.71703" lon="3.59274">
        <ele>165.964722</ele>
        <time>2015-02-22T15:13:22Z</time>
      </trkpt>
      <trkpt lat="43.71697" lon="3.59272">
        <ele>165.484131</ele>
        <time>2015-02-22T15:13:27Z</time>
      </trkpt>
      <trkpt lat="43.71688" lon="3.5927">
        <ele>165.003418</ele>
        <time>2015-02-22T15:13:34Z</time>
      </trkpt>
      <trkpt lat="43.71671" lon="3.5927">
        <ele>163.561523</ele>
        <time>2015-02-22T15:13:47Z</time>
      </trkpt>
      <trkpt lat="43.71656" lon="3.59275">
        <ele>164.042114</ele>
        <time>2015-02-22T15:14:00Z</time>
      </trkpt>
      <trkpt lat="43.71651" lon="3.59276">
        <ele>162.119507</ele>
        <time>2015-02-22T15:14:06Z</time>
      </trkpt>
      <trkpt lat="43.71649" lon="3.59276">
        <ele>163.561523</ele>
        <time>2015-02-22T15:14:18Z</time>
      </trkpt>
      <trkpt lat="43.71654" lon="3.59272">
        <ele>164.522705</ele>
        <time>2015-02-22T15:14:27Z</time>
      </trkpt>
      <trkpt lat="43.71654" lon="3.59271">
        <ele>164.522705</ele>
        <time>2015-02-22T15:14:45Z</time>
      </trkpt>
      <trkpt lat="43.71654" lon="3.59275">
        <ele>163.561523</ele>
        <time>2015-02-22T15:15:01Z</time>
      </trkpt>
      <trkpt lat="43.7165" lon="3.5928">
        <ele>162.119507</ele>
        <time>2015-02-22T15:15:23Z</time>
      </trkpt>
      <trkpt lat="43.71639" lon="3.59281">
        <ele>163.080811</ele>
        <time>2015-02-22T15:15:36Z</time>
      </trkpt>
      <trkpt lat="43.71631" lon="3.5928">
        <ele>161.158203</ele>
        <time>2015-02-22T15:15:47Z</time>
      </trkpt>
      <trkpt lat="43.71623" lon="3.59281">
        <ele>161.638916</ele>
        <time>2015-02-22T15:15:57Z</time>
      </trkpt>
      <trkpt lat="43.71621" lon="3.59281">
        <ele>159.716187</ele>
        <time>2015-02-22T15:15:59Z</time>
      </trkpt>
      <trkpt lat="43.7162" lon="3.59281">
        <ele>159.716187</ele>
        <time>2015-02-22T15:16:00Z</time>
      </trkpt>
      <trkpt lat="43.71604" lon="3.59282">
        <ele>159.235474</ele>
        <time>2015-02-22T15:16:13Z</time>
      </trkpt>
      <trkpt lat="43.71596" lon="3.59282">
        <ele>157.793579</ele>
        <time>2015-02-22T15:16:19Z</time>
      </trkpt>
      <trkpt lat="43.71584" lon="3.59288">
        <ele>156.832153</ele>
        <time>2015-02-22T15:16:28Z</time>
      </trkpt>
      <trkpt lat="43.71579" lon="3.5929">
        <ele>155.390259</ele>
        <time>2015-02-22T15:16:33Z</time>
      </trkpt>
      <trkpt lat="43.71566" lon="3.59289">
        <ele>153.467651</ele>
        <time>2015-02-22T15:16:44Z</time>
      </trkpt>
      <trkpt lat="43.71565" lon="3.59289">
        <ele>152.986938</ele>
        <time>2015-02-22T15:16:45Z</time>
      </trkpt>
      <trkpt lat="43.7156" lon="3.59289">
        <ele>151.544922</ele>
        <time>2015-02-22T15:16:55Z</time>
      </trkpt>
      <trkpt lat="43.71559" lon="3.59288">
        <ele>152.506348</ele>
        <time>2015-02-22T15:16:57Z</time>
      </trkpt>
      <trkpt lat="43.71556" lon="3.59284">
        <ele>150.583618</ele>
        <time>2015-02-22T15:17:01Z</time>
      </trkpt>
      <trkpt lat="43.71554" lon="3.59279">
        <ele>150.103027</ele>
        <time>2015-02-22T15:17:05Z</time>
      </trkpt>
      <trkpt lat="43.71545" lon="3.59267">
        <ele>149.141602</ele>
        <time>2015-02-22T15:17:17Z</time>
      </trkpt>
      <trkpt lat="43.7153" lon="3.59258">
        <ele>147.699707</ele>
        <time>2015-02-22T15:17:32Z</time>
      </trkpt>
      <trkpt lat="43.71516" lon="3.59266">
        <ele>147.218994</ele>
        <time>2015-02-22T15:17:43Z</time>
      </trkpt>
      <trkpt lat="43.71513" lon="3.59267">
        <ele>145.7771</ele>
        <time>2015-02-22T15:17:46Z</time>
      </trkpt>
      <trkpt lat="43.71508" lon="3.59265">
        <ele>146.257812</ele>
        <time>2015-02-22T15:17:51Z</time>
      </trkpt>
      <trkpt lat="43.71501" lon="3.59258">
        <ele>141.45105</ele>
        <time>2015-02-22T15:18:00Z</time>
      </trkpt>
      <trkpt lat="43.715" lon="3.59257">
        <ele>141.931763</ele>
        <time>2015-02-22T15:18:01Z</time>
      </trkpt>
      <trkpt lat="43.71486" lon="3.59255">
        <ele>142.412476</ele>
        <time>2015-02-22T15:18:13Z</time>
      </trkpt>
      <trkpt lat="43.71479" lon="3.59256">
        <ele>143.373657</ele>
        <time>2015-02-22T15:18:19Z</time>
      </trkpt>
      <trkpt lat="43.71467" lon="3.59254">
        <ele>142.412476</ele>
        <time>2015-02-22T15:18:29Z</time>
      </trkpt>
      <trkpt lat="43.7146" lon="3.59253">
        <ele>141.931763</ele>
        <time>2015-02-22T15:18:34Z</time>
      </trkpt>
      <trkpt lat="43.71455" lon="3.59246">
        <ele>142.412476</ele>
        <time>2015-02-22T15:18:52Z</time>
      </trkpt>
      <trkpt lat="43.71453" lon="3.59247">
        <ele>142.412476</ele>
        <time>2015-02-22T15:19:05Z</time>
      </trkpt>
      <trkpt lat="43.71451" lon="3.59257">
        <ele>143.85437</ele>
        <time>2015-02-22T15:19:20Z</time>
      </trkpt>
      <trkpt lat="43.71454" lon="3.59259">
        <ele>143.373657</ele>
        <time>2015-02-22T15:19:33Z</time>
      </trkpt>
      <trkpt lat="43.71451" lon="3.59255">
        <ele>143.373657</ele>
        <time>2015-02-22T15:19:48Z</time>
      </trkpt>
      <trkpt lat="43.71449" lon="3.59258">
        <ele>141.45105</ele>
        <time>2015-02-22T15:19:59Z</time>
      </trkpt>
      <trkpt lat="43.71449" lon="3.59268">
        <ele>142.893066</ele>
        <time>2015-02-22T15:20:13Z</time>
      </trkpt>
      <trkpt lat="43.71451" lon="3.59263">
        <ele>141.931763</ele>
        <time>2015-02-22T15:20:26Z</time>
      </trkpt>
      <trkpt lat="43.71452" lon="3.59263">
        <ele>141.931763</ele>
        <time>2015-02-22T15:20:46Z</time>
      </trkpt>
      <trkpt lat="43.71451" lon="3.59259">
        <ele>141.931763</ele>
        <time>2015-02-22T15:21:02Z</time>
      </trkpt>
      <trkpt lat="43.71432" lon="3.59239">
        <ele>140.489868</ele>
        <time>2015-02-22T15:21:11Z</time>
      </trkpt>
      <trkpt lat="43.71434" lon="3.59239">
        <ele>139.528442</ele>
        <time>2015-02-22T15:21:22Z</time>
      </trkpt>
      <trkpt lat="43.71434" lon="3.5924">
        <ele>140.489868</ele>
        <time>2015-02-22T15:21:25Z</time>
      </trkpt>
      <trkpt lat="43.71435" lon="3.59242">
        <ele>140.489868</ele>
        <time>2015-02-22T15:21:27Z</time>
      </trkpt>
      <trkpt lat="43.71438" lon="3.59249">
        <ele>140.489868</ele>
        <time>2015-02-22T15:21:31Z</time>
      </trkpt>
      <trkpt lat="43.71443" lon="3.59255">
        <ele>141.45105</ele>
        <time>2015-02-22T15:21:35Z</time>
      </trkpt>
      <trkpt lat="43.7145" lon="3.59262">
        <ele>141.931763</ele>
        <time>2015-02-22T15:21:49Z</time>
      </trkpt>
      <trkpt lat="43.71452" lon="3.59263">
        <ele>141.45105</ele>
        <time>2015-02-22T15:22:06Z</time>
      </trkpt>
      <trkpt lat="43.71453" lon="3.59264">
        <ele>140.970459</ele>
        <time>2015-02-22T15:22:25Z</time>
      </trkpt>
      <trkpt lat="43.71449" lon="3.59264">
        <ele>141.931763</ele>
        <time>2015-02-22T15:23:13Z</time>
      </trkpt>
      <trkpt lat="43.71451" lon="3.59261">
        <ele>142.893066</ele>
        <time>2015-02-22T15:23:34Z</time>
      </trkpt>
      <trkpt lat="43.71453" lon="3.59263">
        <ele>139.528442</ele>
        <time>2015-02-22T15:23:52Z</time>
      </trkpt>
      <trkpt lat="43.7145" lon="3.59263">
        <ele>141.45105</ele>
        <time>2015-02-22T15:24:08Z</time>
      </trkpt>
      <trkpt lat="43.71452" lon="3.59261">
        <ele>142.412476</ele>
        <time>2015-02-22T15:24:28Z</time>
      </trkpt>
      <trkpt lat="43.71457" lon="3.59263">
        <ele>142.412476</ele>
        <time>2015-02-22T15:25:04Z</time>
      </trkpt>
      <trkpt lat="43.71458" lon="3.59256">
        <ele>143.85437</ele>
        <time>2015-02-22T15:26:00Z</time>
      </trkpt>
      <trkpt lat="43.71458" lon="3.59263">
        <ele>140.489868</ele>
        <time>2015-02-22T15:27:22Z</time>
      </trkpt>
      <trkpt lat="43.71458" lon="3.59263">
        <ele>140.970459</ele>
        <time>2015-02-22T15:27:38Z</time>
      </trkpt>
      <trkpt lat="43.71456" lon="3.5926">
        <ele>141.931763</ele>
        <time>2015-02-22T15:28:12Z</time>
      </trkpt>
      <trkpt lat="43.71459" lon="3.5926">
        <ele>143.373657</ele>
        <time>2015-02-22T15:28:34Z</time>
      </trkpt>
      <trkpt lat="43.71459" lon="3.5926">
        <ele>143.373657</ele>
        <time>2015-02-22T15:28:41Z</time>
      </trkpt>
      <trkpt lat="43.71458" lon="3.5926">
        <ele>145.296387</ele>
        <time>2015-02-22T15:28:47Z</time>
      </trkpt>
      <trkpt lat="43.71456" lon="3.59265">
        <ele>143.373657</ele>
        <time>2015-02-22T15:29:04Z</time>
      </trkpt>
      <trkpt lat="43.71451" lon="3.59264">
        <ele>142.412476</ele>
        <time>2015-02-22T15:29:23Z</time>
      </trkpt>
      <trkpt lat="43.71453" lon="3.59263">
        <ele>143.85437</ele>
        <time>2015-02-22T15:29:33Z</time>
      </trkpt>
      <trkpt lat="43.71453" lon="3.59263">
        <ele>143.373657</ele>
        <time>2015-02-22T15:29:35Z</time>
      </trkpt>
      <trkpt lat="43.71457" lon="3.59262">
        <ele>141.45105</ele>
        <time>2015-02-22T15:30:32Z</time>
      </trkpt>
      <trkpt lat="43.71456" lon="3.59262">
        <ele>142.893066</ele>
        <time>2015-02-22T15:30:34Z</time>
      </trkpt>
      <trkpt lat="43.71454" lon="3.59263">
        <ele>142.412476</ele>
        <time>2015-02-22T15:31:09Z</time>
      </trkpt>
      <trkpt lat="43.71457" lon="3.59262">
        <ele>141.931763</ele>
        <time>2015-02-22T15:31:49Z</time>
      </trkpt>
      <trkpt lat="43.71458" lon="3.59262">
        <ele>138.567261</ele>
        <time>2015-02-22T15:32:22Z</time>
      </trkpt>
      <trkpt lat="43.71457" lon="3.5926">
        <ele>141.45105</ele>
        <time>2015-02-22T15:32:32Z</time>
      </trkpt>
      <trkpt lat="43.71454" lon="3.59259">
        <ele>142.893066</ele>
        <time>2015-02-22T15:32:54Z</time>
      </trkpt>
      <trkpt lat="43.71449" lon="3.59259">
        <ele>141.45105</ele>
        <time>2015-02-22T15:33:21Z</time>
      </trkpt>
      <trkpt lat="43.7145" lon="3.59264">
        <ele>141.931763</ele>
        <time>2015-02-22T15:33:51Z</time>
      </trkpt>
      <trkpt lat="43.71449" lon="3.59253">
        <ele>141.45105</ele>
        <time>2015-02-22T15:34:12Z</time>
      </trkpt>
      <trkpt lat="43.71447" lon="3.59256">
        <ele>141.45105</ele>
        <time>2015-02-22T15:34:27Z</time>
      </trkpt>
      <trkpt lat="43.71447" lon="3.59252">
        <ele>139.528442</ele>
        <time>2015-02-22T15:34:40Z</time>
      </trkpt>
      <trkpt lat="43.71445" lon="3.59251">
        <ele>139.528442</ele>
        <time>2015-02-22T15:34:45Z</time>
      </trkpt>
      <trkpt lat="43.71433" lon="3.59256">
        <ele>138.567261</ele>
        <time>2015-02-22T15:34:56Z</time>
      </trkpt>
      <trkpt lat="43.71421" lon="3.59276">
        <ele>137.605835</ele>
        <time>2015-02-22T15:35:12Z</time>
      </trkpt>
      <trkpt lat="43.71416" lon="3.59295">
        <ele>134.241211</ele>
        <time>2015-02-22T15:35:25Z</time>
      </trkpt>
      <trkpt lat="43.71417" lon="3.59304">
        <ele>132.799316</ele>
        <time>2015-02-22T15:35:30Z</time>
      </trkpt>
      <trkpt lat="43.71415" lon="3.59316">
        <ele>132.318604</ele>
        <time>2015-02-22T15:35:37Z</time>
      </trkpt>
      <trkpt lat="43.71412" lon="3.59329">
        <ele>129.915283</ele>
        <time>2015-02-22T15:35:45Z</time>
      </trkpt>
      <trkpt lat="43.71411" lon="3.59333">
        <ele>129.434692</ele>
        <time>2015-02-22T15:35:47Z</time>
      </trkpt>
      <trkpt lat="43.71411" lon="3.59355">
        <ele>126.069946</ele>
        <time>2015-02-22T15:36:02Z</time>
      </trkpt>
      <trkpt lat="43.71412" lon="3.59362">
        <ele>127.031372</ele>
        <time>2015-02-22T15:36:19Z</time>
      </trkpt>
      <trkpt lat="43.71416" lon="3.59358">
        <ele>126.550659</ele>
        <time>2015-02-22T15:36:42Z</time>
      </trkpt>
      <trkpt lat="43.71418" lon="3.59357">
        <ele>128.954102</ele>
        <time>2015-02-22T15:36:44Z</time>
      </trkpt>
      <trkpt lat="43.7142" lon="3.59358">
        <ele>130.876709</ele>
        <time>2015-02-22T15:36:46Z</time>
      </trkpt>
      <trkpt lat="43.71421" lon="3.59359">
        <ele>130.395996</ele>
        <time>2015-02-22T15:36:47Z</time>
      </trkpt>
      <trkpt lat="43.71423" lon="3.5936">
        <ele>129.915283</ele>
        <time>2015-02-22T15:36:49Z</time>
      </trkpt>
      <trkpt lat="43.71428" lon="3.59355">
        <ele>130.395996</ele>
        <time>2015-02-22T15:36:55Z</time>
      </trkpt>
      <trkpt lat="43.71429" lon="3.59343">
        <ele>135.202515</ele>
        <time>2015-02-22T15:37:03Z</time>
      </trkpt>
      <trkpt lat="43.71429" lon="3.59342">
        <ele>133.279907</ele>
        <time>2015-02-22T15:37:04Z</time>
      </trkpt>
      <trkpt lat="43.71427" lon="3.59343">
        <ele>127.511963</ele>
        <time>2015-02-22T15:37:13Z</time>
      </trkpt>
      <trkpt lat="43.71426" lon="3.59344">
        <ele>137.605835</ele>
        <time>2015-02-22T15:37:14Z</time>
      </trkpt>
      <trkpt lat="43.71425" lon="3.59345">
        <ele>131.3573</ele>
        <time>2015-02-22T15:37:17Z</time>
      </trkpt>
      <trkpt lat="43.71426" lon="3.59345">
        <ele>132.799316</ele>
        <time>2015-02-22T15:37:20Z</time>
      </trkpt>
      <trkpt lat="43.71428" lon="3.59345">
        <ele>126.550659</ele>
        <time>2015-02-22T15:37:31Z</time>
      </trkpt>
      <trkpt lat="43.71428" lon="3.59345">
        <ele>136.16394</ele>
        <time>2015-02-22T15:37:32Z</time>
      </trkpt>
      <trkpt lat="43.71428" lon="3.59345">
        <ele>132.318604</ele>
        <time>2015-02-22T15:37:33Z</time>
      </trkpt>
      <trkpt lat="43.71427" lon="3.59345">
        <ele>123.666748</ele>
        <time>2015-02-22T15:37:34Z</time>
      </trkpt>
      <trkpt lat="43.71428" lon="3.59344">
        <ele>136.644653</ele>
        <time>2015-02-22T15:37:35Z</time>
      </trkpt>
      <trkpt lat="43.71428" lon="3.59344">
        <ele>132.799316</ele>
        <time>2015-02-22T15:37:36Z</time>
      </trkpt>
      <trkpt lat="43.71427" lon="3.59345">
        <ele>129.434692</ele>
        <time>2015-02-22T15:37:40Z</time>
      </trkpt>
      <trkpt lat="43.71427" lon="3.59344">
        <ele>133.279907</ele>
        <time>2015-02-22T15:37:41Z</time>
      </trkpt>
      <trkpt lat="43.71428" lon="3.59344">
        <ele>125.589355</ele>
        <time>2015-02-22T15:37:42Z</time>
      </trkpt>
      <trkpt lat="43.71428" lon="3.59344">
        <ele>139.047852</ele>
        <time>2015-02-22T15:37:43Z</time>
      </trkpt>
      <trkpt lat="43.71428" lon="3.59344">
        <ele>133.279907</ele>
        <time>2015-02-22T15:37:44Z</time>
      </trkpt>
      <trkpt lat="43.71428" lon="3.59345">
        <ele>124.628052</ele>
        <time>2015-02-22T15:37:53Z</time>
      </trkpt>
      <trkpt lat="43.71428" lon="3.59344">
        <ele>138.567261</ele>
        <time>2015-02-22T15:37:54Z</time>
      </trkpt>
      <trkpt lat="43.71429" lon="3.59344">
        <ele>134.721924</ele>
        <time>2015-02-22T15:37:55Z</time>
      </trkpt>
      <trkpt lat="43.71429" lon="3.59342">
        <ele>133.760498</ele>
        <time>2015-02-22T15:37:56Z</time>
      </trkpt>
      <trkpt lat="43.7143" lon="3.5934">
        <ele>133.279907</ele>
        <time>2015-02-22T15:37:58Z</time>
      </trkpt>
      <trkpt lat="43.71434" lon="3.59329">
        <ele>133.760498</ele>
        <time>2015-02-22T15:38:05Z</time>
      </trkpt>
      <trkpt lat="43.71437" lon="3.59325">
        <ele>133.760498</ele>
        <time>2015-02-22T15:38:10Z</time>
      </trkpt>
      <trkpt lat="43.71439" lon="3.59324">
        <ele>132.799316</ele>
        <time>2015-02-22T15:38:12Z</time>
      </trkpt>
      <trkpt lat="43.71447" lon="3.59321">
        <ele>136.16394</ele>
        <time>2015-02-22T15:38:19Z</time>
      </trkpt>
      <trkpt lat="43.71455" lon="3.5931">
        <ele>137.605835</ele>
        <time>2015-02-22T15:38:25Z</time>
      </trkpt>
      <trkpt lat="43.71459" lon="3.59308">
        <ele>136.644653</ele>
        <time>2015-02-22T15:38:28Z</time>
      </trkpt>
      <trkpt lat="43.71464" lon="3.59292">
        <ele>141.931763</ele>
        <time>2015-02-22T15:38:39Z</time>
      </trkpt>
      <trkpt lat="43.71473" lon="3.59285">
        <ele>140.970459</ele>
        <time>2015-02-22T15:38:51Z</time>
      </trkpt>
      <trkpt lat="43.71476" lon="3.59279">
        <ele>140.970459</ele>
        <time>2015-02-22T15:38:55Z</time>
      </trkpt>
      <trkpt lat="43.71483" lon="3.59257">
        <ele>141.45105</ele>
        <time>2015-02-22T15:39:07Z</time>
      </trkpt>
      <trkpt lat="43.71485" lon="3.59256">
        <ele>140.009155</ele>
        <time>2015-02-22T15:39:10Z</time>
      </trkpt>
      <trkpt lat="43.71486" lon="3.59255">
        <ele>142.412476</ele>
        <time>2015-02-22T15:39:11Z</time>
      </trkpt>
      <trkpt lat="43.71499" lon="3.59258">
        <ele>140.970459</ele>
        <time>2015-02-22T15:39:22Z</time>
      </trkpt>
      <trkpt lat="43.71501" lon="3.59261">
        <ele>140.489868</ele>
        <time>2015-02-22T15:39:25Z</time>
      </trkpt>
      <trkpt lat="43.71505" lon="3.59265">
        <ele>141.45105</ele>
        <time>2015-02-22T15:39:28Z</time>
      </trkpt>
      <trkpt lat="43.71508" lon="3.59267">
        <ele>143.373657</ele>
        <time>2015-02-22T15:39:31Z</time>
      </trkpt>
      <trkpt lat="43.71514" lon="3.59271">
        <ele>144.815796</ele>
        <time>2015-02-22T15:39:37Z</time>
      </trkpt>
      <trkpt lat="43.71515" lon="3.59272">
        <ele>144.815796</ele>
        <time>2015-02-22T15:39:50Z</time>
      </trkpt>
      <trkpt lat="43.71524" lon="3.5928">
        <ele>145.296387</ele>
        <time>2015-02-22T15:40:08Z</time>
      </trkpt>
      <trkpt lat="43.71538" lon="3.59297">
        <ele>145.296387</ele>
        <time>2015-02-22T15:40:23Z</time>
      </trkpt>
      <trkpt lat="43.71545" lon="3.59307">
        <ele>149.141602</ele>
        <time>2015-02-22T15:40:31Z</time>
      </trkpt>
      <trkpt lat="43.71546" lon="3.59308">
        <ele>148.661011</ele>
        <time>2015-02-22T15:40:32Z</time>
      </trkpt>
      <trkpt lat="43.71558" lon="3.59321">
        <ele>152.986938</ele>
        <time>2015-02-22T15:40:44Z</time>
      </trkpt>
      <trkpt lat="43.71559" lon="3.59321">
        <ele>151.544922</ele>
        <time>2015-02-22T15:40:45Z</time>
      </trkpt>
      <trkpt lat="43.71564" lon="3.59325">
        <ele>150.103027</ele>
        <time>2015-02-22T15:40:51Z</time>
      </trkpt>
      <trkpt lat="43.71585" lon="3.59334">
        <ele>149.622314</ele>
        <time>2015-02-22T15:41:10Z</time>
      </trkpt>
      <trkpt lat="43.71589" lon="3.59336">
        <ele>148.661011</ele>
        <time>2015-02-22T15:41:13Z</time>
      </trkpt>
      <trkpt lat="43.71608" lon="3.59348">
        <ele>147.218994</ele>
        <time>2015-02-22T15:41:29Z</time>
      </trkpt>
      <trkpt lat="43.71626" lon="3.5936">
        <ele>149.141602</ele>
        <time>2015-02-22T15:41:45Z</time>
      </trkpt>
      <trkpt lat="43.71631" lon="3.59363">
        <ele>148.661011</ele>
        <time>2015-02-22T15:41:50Z</time>
      </trkpt>
      <trkpt lat="43.71632" lon="3.59366">
        <ele>147.699707</ele>
        <time>2015-02-22T15:41:52Z</time>
      </trkpt>
      <trkpt lat="43.71641" lon="3.59378">
        <ele>145.7771</ele>
        <time>2015-02-22T15:42:07Z</time>
      </trkpt>
      <trkpt lat="43.71646" lon="3.59381">
        <ele>144.335205</ele>
        <time>2015-02-22T15:42:16Z</time>
      </trkpt>
      <trkpt lat="43.7166" lon="3.59394">
        <ele>144.335205</ele>
        <time>2015-02-22T15:42:29Z</time>
      </trkpt>
      <trkpt lat="43.71671" lon="3.59404">
        <ele>140.970459</ele>
        <time>2015-02-22T15:42:38Z</time>
      </trkpt>
      <trkpt lat="43.7169" lon="3.59421">
        <ele>138.567261</ele>
        <time>2015-02-22T15:42:55Z</time>
      </trkpt>
      <trkpt lat="43.71706" lon="3.59434">
        <ele>138.086548</ele>
        <time>2015-02-22T15:43:08Z</time>
      </trkpt>
      <trkpt lat="43.71717" lon="3.59449">
        <ele>138.086548</ele>
        <time>2015-02-22T15:43:19Z</time>
      </trkpt>
      <trkpt lat="43.7173" lon="3.59459">
        <ele>137.605835</ele>
        <time>2015-02-22T15:43:31Z</time>
      </trkpt>
      <trkpt lat="43.71743" lon="3.59467">
        <ele>137.125244</ele>
        <time>2015-02-22T15:43:42Z</time>
      </trkpt>
      <trkpt lat="43.7175" lon="3.59473">
        <ele>136.16394</ele>
        <time>2015-02-22T15:43:49Z</time>
      </trkpt>
      <trkpt lat="43.71761" lon="3.59483">
        <ele>136.16394</ele>
        <time>2015-02-22T15:43:59Z</time>
      </trkpt>
      <trkpt lat="43.71769" lon="3.59489">
        <ele>135.202515</ele>
        <time>2015-02-22T15:44:06Z</time>
      </trkpt>
      <trkpt lat="43.71783" lon="3.59501">
        <ele>134.721924</ele>
        <time>2015-02-22T15:44:19Z</time>
      </trkpt>
      <trkpt lat="43.71797" lon="3.59515">
        <ele>133.279907</ele>
        <time>2015-02-22T15:44:32Z</time>
      </trkpt>
      <trkpt lat="43.71803" lon="3.5952">
        <ele>130.395996</ele>
        <time>2015-02-22T15:44:38Z</time>
      </trkpt>
      <trkpt lat="43.71815" lon="3.5953">
        <ele>129.434692</ele>
        <time>2015-02-22T15:44:49Z</time>
      </trkpt>
      <trkpt lat="43.71819" lon="3.59534">
        <ele>129.434692</ele>
        <time>2015-02-22T15:44:53Z</time>
      </trkpt>
      <trkpt lat="43.71822" lon="3.59537">
        <ele>128.954102</ele>
        <time>2015-02-22T15:44:56Z</time>
      </trkpt>
      <trkpt lat="43.71833" lon="3.59547">
        <ele>126.069946</ele>
        <time>2015-02-22T15:45:06Z</time>
      </trkpt>
      <trkpt lat="43.71848" lon="3.59557">
        <ele>125.589355</ele>
        <time>2015-02-22T15:45:20Z</time>
      </trkpt>
      <trkpt lat="43.71868" lon="3.59569">
        <ele>123.666748</ele>
        <time>2015-02-22T15:45:37Z</time>
      </trkpt>
      <trkpt lat="43.71875" lon="3.59569">
        <ele>123.666748</ele>
        <time>2015-02-22T15:45:44Z</time>
      </trkpt>
      <trkpt lat="43.71878" lon="3.59578">
        <ele>123.666748</ele>
        <time>2015-02-22T15:45:51Z</time>
      </trkpt>
      <trkpt lat="43.71877" lon="3.59583">
        <ele>123.186157</ele>
        <time>2015-02-22T15:45:55Z</time>
      </trkpt>
      <trkpt lat="43.71868" lon="3.59583">
        <ele>124.628052</ele>
        <time>2015-02-22T15:46:02Z</time>
      </trkpt>
      <trkpt lat="43.71859" lon="3.59593">
        <ele>127.031372</ele>
        <time>2015-02-22T15:46:12Z</time>
      </trkpt>
      <trkpt lat="43.71857" lon="3.59593">
        <ele>126.550659</ele>
        <time>2015-02-22T15:46:14Z</time>
      </trkpt>
      <trkpt lat="43.71851" lon="3.59604">
        <ele>129.915283</ele>
        <time>2015-02-22T15:46:25Z</time>
      </trkpt>
      <trkpt lat="43.71848" lon="3.59614">
        <ele>128.954102</ele>
        <time>2015-02-22T15:46:32Z</time>
      </trkpt>
      <trkpt lat="43.71847" lon="3.59617">
        <ele>129.915283</ele>
        <time>2015-02-22T15:46:34Z</time>
      </trkpt>
      <trkpt lat="43.71845" lon="3.59624">
        <ele>129.915283</ele>
        <time>2015-02-22T15:46:40Z</time>
      </trkpt>
      <trkpt lat="43.71843" lon="3.59628">
        <ele>130.876709</ele>
        <time>2015-02-22T15:46:45Z</time>
      </trkpt>
      <trkpt lat="43.71843" lon="3.59631">
        <ele>133.279907</ele>
        <time>2015-02-22T15:46:47Z</time>
      </trkpt>
      <trkpt lat="43.71841" lon="3.59639">
        <ele>134.721924</ele>
        <time>2015-02-22T15:46:55Z</time>
      </trkpt>
      <trkpt lat="43.7184" lon="3.5964">
        <ele>134.241211</ele>
        <time>2015-02-22T15:46:56Z</time>
      </trkpt>
      <trkpt lat="43.71839" lon="3.59645">
        <ele>136.644653</ele>
        <time>2015-02-22T15:47:00Z</time>
      </trkpt>
      <trkpt lat="43.7184" lon="3.59656">
        <ele>138.086548</ele>
        <time>2015-02-22T15:47:11Z</time>
      </trkpt>
      <trkpt lat="43.71839" lon="3.59658">
        <ele>136.16394</ele>
        <time>2015-02-22T15:47:13Z</time>
      </trkpt>
      <trkpt lat="43.7184" lon="3.59665">
        <ele>139.047852</ele>
        <time>2015-02-22T15:47:19Z</time>
      </trkpt>
      <trkpt lat="43.71843" lon="3.59676">
        <ele>140.970459</ele>
        <time>2015-02-22T15:47:29Z</time>
      </trkpt>
      <trkpt lat="43.71847" lon="3.59682">
        <ele>140.489868</ele>
        <time>2015-02-22T15:47:35Z</time>
      </trkpt>
      <trkpt lat="43.71849" lon="3.59685">
        <ele>142.412476</ele>
        <time>2015-02-22T15:47:38Z</time>
      </trkpt>
      <trkpt lat="43.71852" lon="3.59687">
        <ele>140.489868</ele>
        <time>2015-02-22T15:47:41Z</time>
      </trkpt>
      <trkpt lat="43.71854" lon="3.59687">
        <ele>143.85437</ele>
        <time>2015-02-22T15:47:43Z</time>
      </trkpt>
      <trkpt lat="43.71855" lon="3.59688">
        <ele>142.412476</ele>
        <time>2015-02-22T15:47:44Z</time>
      </trkpt>
      <trkpt lat="43.71855" lon="3.59689">
        <ele>141.931763</ele>
        <time>2015-02-22T15:47:45Z</time>
      </trkpt>
      <trkpt lat="43.71859" lon="3.59692">
        <ele>145.296387</ele>
        <time>2015-02-22T15:47:51Z</time>
      </trkpt>
      <trkpt lat="43.7186" lon="3.59693">
        <ele>143.85437</ele>
        <time>2015-02-22T15:47:52Z</time>
      </trkpt>
      <trkpt lat="43.71863" lon="3.59695">
        <ele>145.296387</ele>
        <time>2015-02-22T15:47:56Z</time>
      </trkpt>
      <trkpt lat="43.71866" lon="3.59697">
        <ele>143.85437</ele>
        <time>2015-02-22T15:48:00Z</time>
      </trkpt>
      <trkpt lat="43.71876" lon="3.59704">
        <ele>147.218994</ele>
        <time>2015-02-22T15:48:14Z</time>
      </trkpt>
      <trkpt lat="43.71877" lon="3.59704">
        <ele>147.699707</ele>
        <time>2015-02-22T15:48:16Z</time>
      </trkpt>
      <trkpt lat="43.71881" lon="3.59708">
        <ele>151.064209</ele>
        <time>2015-02-22T15:48:27Z</time>
      </trkpt>
      <trkpt lat="43.71888" lon="3.59714">
        <ele>152.025757</ele>
        <time>2015-02-22T15:48:35Z</time>
      </trkpt>
      <trkpt lat="43.71889" lon="3.59714">
        <ele>152.986938</ele>
        <time>2015-02-22T15:48:36Z</time>
      </trkpt>
      <trkpt lat="43.71896" lon="3.59722">
        <ele>153.948364</ele>
        <time>2015-02-22T15:48:45Z</time>
      </trkpt>
      <trkpt lat="43.719" lon="3.59727">
        <ele>155.390259</ele>
        <time>2015-02-22T15:48:52Z</time>
      </trkpt>
      <trkpt lat="43.71903" lon="3.59736">
        <ele>154.909546</ele>
        <time>2015-02-22T15:49:00Z</time>
      </trkpt>
      <trkpt lat="43.71904" lon="3.59739">
        <ele>158.27417</ele>
        <time>2015-02-22T15:49:03Z</time>
      </trkpt>
      <trkpt lat="43.71908" lon="3.59756">
        <ele>159.716187</ele>
        <time>2015-02-22T15:49:17Z</time>
      </trkpt>
      <trkpt lat="43.71908" lon="3.59767">
        <ele>163.080811</ele>
        <time>2015-02-22T15:49:30Z</time>
      </trkpt>
      <trkpt lat="43.71908" lon="3.5977">
        <ele>159.716187</ele>
        <time>2015-02-22T15:49:33Z</time>
      </trkpt>
      <trkpt lat="43.71909" lon="3.59772">
        <ele>162.600098</ele>
        <time>2015-02-22T15:49:35Z</time>
      </trkpt>
      <trkpt lat="43.7191" lon="3.59785">
        <ele>164.042114</ele>
        <time>2015-02-22T15:49:46Z</time>
      </trkpt>
      <trkpt lat="43.71909" lon="3.5979">
        <ele>167.406738</ele>
        <time>2015-02-22T15:49:51Z</time>
      </trkpt>
      <trkpt lat="43.71908" lon="3.59793">
        <ele>166.926025</ele>
        <time>2015-02-22T15:49:55Z</time>
      </trkpt>
      <trkpt lat="43.71906" lon="3.59797">
        <ele>167.887329</ele>
        <time>2015-02-22T15:50:00Z</time>
      </trkpt>
      <trkpt lat="43.71902" lon="3.59802">
        <ele>168.848755</ele>
        <time>2015-02-22T15:50:05Z</time>
      </trkpt>
      <trkpt lat="43.71901" lon="3.59805">
        <ele>168.848755</ele>
        <time>2015-02-22T15:50:07Z</time>
      </trkpt>
      <trkpt lat="43.71898" lon="3.59817">
        <ele>170.290649</ele>
        <time>2015-02-22T15:50:16Z</time>
      </trkpt>
      <trkpt lat="43.71899" lon="3.59822">
        <ele>170.290649</ele>
        <time>2015-02-22T15:50:40Z</time>
      </trkpt>
      <trkpt lat="43.71899" lon="3.59824">
        <ele>170.290649</ele>
        <time>2015-02-22T15:50:59Z</time>
      </trkpt>
      <trkpt lat="43.71895" lon="3.59821">
        <ele>171.732666</ele>
        <time>2015-02-22T15:51:57Z</time>
      </trkpt>
      <trkpt lat="43.71892" lon="3.59816">
        <ele>172.213257</ele>
        <time>2015-02-22T15:53:00Z</time>
      </trkpt>
      <trkpt lat="43.7189" lon="3.5984">
        <ele>172.213257</ele>
        <time>2015-02-22T15:53:15Z</time>
      </trkpt>
      <trkpt lat="43.71891" lon="3.59847">
        <ele>173.174683</ele>
        <time>2015-02-22T15:53:23Z</time>
      </trkpt>
      <trkpt lat="43.71891" lon="3.59848">
        <ele>174.135864</ele>
        <time>2015-02-22T15:53:24Z</time>
      </trkpt>
      <trkpt lat="43.71898" lon="3.59868">
        <ele>173.655273</ele>
        <time>2015-02-22T15:53:39Z</time>
      </trkpt>
      <trkpt lat="43.71899" lon="3.59869">
        <ele>176.539307</ele>
        <time>2015-02-22T15:53:40Z</time>
      </trkpt>
      <trkpt lat="43.719" lon="3.59871">
        <ele>177.981201</ele>
        <time>2015-02-22T15:53:42Z</time>
      </trkpt>
      <trkpt lat="43.71903" lon="3.59873">
        <ele>178.461914</ele>
        <time>2015-02-22T15:53:45Z</time>
      </trkpt>
      <trkpt lat="43.71913" lon="3.59879">
        <ele>178.461914</ele>
        <time>2015-02-22T15:53:56Z</time>
      </trkpt>
      <trkpt lat="43.71919" lon="3.59883">
        <ele>180.865234</ele>
        <time>2015-02-22T15:54:02Z</time>
      </trkpt>
      <trkpt lat="43.71925" lon="3.59886">
        <ele>179.903809</ele>
        <time>2015-02-22T15:54:08Z</time>
      </trkpt>
      <trkpt lat="43.71934" lon="3.59889">
        <ele>182.307129</ele>
        <time>2015-02-22T15:54:18Z</time>
      </trkpt>
      <trkpt lat="43.71944" lon="3.59896">
        <ele>182.307129</ele>
        <time>2015-02-22T15:54:28Z</time>
      </trkpt>
      <trkpt lat="43.71946" lon="3.59898">
        <ele>184.229858</ele>
        <time>2015-02-22T15:54:30Z</time>
      </trkpt>
      <trkpt lat="43.71948" lon="3.59899">
        <ele>183.749023</ele>
        <time>2015-02-22T15:54:32Z</time>
      </trkpt>
      <trkpt lat="43.71952" lon="3.59903">
        <ele>186.152466</ele>
        <time>2015-02-22T15:54:37Z</time>
      </trkpt>
      <trkpt lat="43.71954" lon="3.59904">
        <ele>185.671753</ele>
        <time>2015-02-22T15:54:39Z</time>
      </trkpt>
      <trkpt lat="43.71955" lon="3.59909">
        <ele>186.633179</ele>
        <time>2015-02-22T15:54:44Z</time>
      </trkpt>
      <trkpt lat="43.71956" lon="3.59915">
        <ele>185.191162</ele>
        <time>2015-02-22T15:55:03Z</time>
      </trkpt>
      <trkpt lat="43.71955" lon="3.59937">
        <ele>186.633179</ele>
        <time>2015-02-22T15:55:18Z</time>
      </trkpt>
      <trkpt lat="43.71956" lon="3.59947">
        <ele>187.11377</ele>
        <time>2015-02-22T15:55:24Z</time>
      </trkpt>
      <trkpt lat="43.71955" lon="3.59951">
        <ele>188.555786</ele>
        <time>2015-02-22T15:55:26Z</time>
      </trkpt>
      <trkpt lat="43.71954" lon="3.59955">
        <ele>187.11377</ele>
        <time>2015-02-22T15:55:29Z</time>
      </trkpt>
      <trkpt lat="43.71956" lon="3.59963">
        <ele>186.633179</ele>
        <time>2015-02-22T15:55:35Z</time>
      </trkpt>
      <trkpt lat="43.71959" lon="3.59974">
        <ele>188.555786</ele>
        <time>2015-02-22T15:55:42Z</time>
      </trkpt>
      <trkpt lat="43.71959" lon="3.59998">
        <ele>189.516968</ele>
        <time>2015-02-22T15:55:58Z</time>
      </trkpt>
      <trkpt lat="43.71959" lon="3.60018">
        <ele>191.920288</ele>
        <time>2015-02-22T15:56:12Z</time>
      </trkpt>
      <trkpt lat="43.71956" lon="3.60027">
        <ele>194.32373</ele>
        <time>2015-02-22T15:56:19Z</time>
      </trkpt>
      <trkpt lat="43.71955" lon="3.60028">
        <ele>192.401123</ele>
        <time>2015-02-22T15:56:20Z</time>
      </trkpt>
      <trkpt lat="43.71949" lon="3.60034">
        <ele>195.284912</ele>
        <time>2015-02-22T15:56:27Z</time>
      </trkpt>
      <trkpt lat="43.71941" lon="3.60048">
        <ele>196.726929</ele>
        <time>2015-02-22T15:56:38Z</time>
      </trkpt>
      <trkpt lat="43.71939" lon="3.60052">
        <ele>194.32373</ele>
        <time>2015-02-22T15:56:41Z</time>
      </trkpt>
      <trkpt lat="43.71938" lon="3.60056">
        <ele>198.168945</ele>
        <time>2015-02-22T15:56:43Z</time>
      </trkpt>
      <trkpt lat="43.71936" lon="3.60059">
        <ele>196.726929</ele>
        <time>2015-02-22T15:56:45Z</time>
      </trkpt>
      <trkpt lat="43.71929" lon="3.6007">
        <ele>198.649536</ele>
        <time>2015-02-22T15:56:55Z</time>
      </trkpt>
      <trkpt lat="43.71927" lon="3.60074">
        <ele>199.61084</ele>
        <time>2015-02-22T15:56:57Z</time>
      </trkpt>
      <trkpt lat="43.71915" lon="3.60094">
        <ele>198.649536</ele>
        <time>2015-02-22T15:57:11Z</time>
      </trkpt>
      <trkpt lat="43.71908" lon="3.60115">
        <ele>197.688232</ele>
        <time>2015-02-22T15:57:25Z</time>
      </trkpt>
      <trkpt lat="43.71908" lon="3.60118">
        <ele>196.246338</ele>
        <time>2015-02-22T15:57:28Z</time>
      </trkpt>
      <trkpt lat="43.71909" lon="3.60118">
        <ele>197.688232</ele>
        <time>2015-02-22T15:57:30Z</time>
      </trkpt>
      <trkpt lat="43.71915" lon="3.60117">
        <ele>198.168945</ele>
        <time>2015-02-22T15:57:42Z</time>
      </trkpt>
      <trkpt lat="43.71934" lon="3.60119">
        <ele>198.649536</ele>
        <time>2015-02-22T15:57:59Z</time>
      </trkpt>
      <trkpt lat="43.71952" lon="3.60123">
        <ele>196.726929</ele>
        <time>2015-02-22T15:58:13Z</time>
      </trkpt>
      <trkpt lat="43.7197" lon="3.60127">
        <ele>198.168945</ele>
        <time>2015-02-22T15:58:27Z</time>
      </trkpt>
      <trkpt lat="43.71977" lon="3.60129">
        <ele>197.20752</ele>
        <time>2015-02-22T15:58:32Z</time>
      </trkpt>
      <trkpt lat="43.71987" lon="3.60124">
        <ele>198.168945</ele>
        <time>2015-02-22T15:58:49Z</time>
      </trkpt>
      <trkpt lat="43.72001" lon="3.60121">
        <ele>198.649536</ele>
        <time>2015-02-22T15:59:02Z</time>
      </trkpt>
      <trkpt lat="43.72012" lon="3.6012">
        <ele>198.168945</ele>
        <time>2015-02-22T15:59:10Z</time>
      </trkpt>
      <trkpt lat="43.72027" lon="3.60123">
        <ele>199.61084</ele>
        <time>2015-02-22T15:59:21Z</time>
      </trkpt>
      <trkpt lat="43.72039" lon="3.60126">
        <ele>199.61084</ele>
        <time>2015-02-22T15:59:30Z</time>
      </trkpt>
      <trkpt lat="43.72054" lon="3.60135">
        <ele>200.572266</ele>
        <time>2015-02-22T15:59:44Z</time>
      </trkpt>
      <trkpt lat="43.72061" lon="3.60139">
        <ele>203.456177</ele>
        <time>2015-02-22T15:59:49Z</time>
      </trkpt>
      <trkpt lat="43.72072" lon="3.60147">
        <ele>201.533569</ele>
        <time>2015-02-22T15:59:59Z</time>
      </trkpt>
      <trkpt lat="43.72083" lon="3.60155">
        <ele>204.898071</ele>
        <time>2015-02-22T16:00:09Z</time>
      </trkpt>
      <trkpt lat="43.72099" lon="3.60165">
        <ele>205.859497</ele>
        <time>2015-02-22T16:00:23Z</time>
      </trkpt>
      <trkpt lat="43.72114" lon="3.60179">
        <ele>207.301392</ele>
        <time>2015-02-22T16:00:38Z</time>
      </trkpt>
      <trkpt lat="43.7212" lon="3.60187">
        <ele>209.224121</ele>
        <time>2015-02-22T16:00:45Z</time>
      </trkpt>
      <trkpt lat="43.72126" lon="3.60189">
        <ele>207.301392</ele>
        <time>2015-02-22T16:00:51Z</time>
      </trkpt>
      <trkpt lat="43.72128" lon="3.6019">
        <ele>208.743408</ele>
        <time>2015-02-22T16:00:53Z</time>
      </trkpt>
      <trkpt lat="43.72129" lon="3.60191">
        <ele>210.185425</ele>
        <time>2015-02-22T16:00:55Z</time>
      </trkpt>
      <trkpt lat="43.72143" lon="3.60194">
        <ele>207.782104</ele>
        <time>2015-02-22T16:01:10Z</time>
      </trkpt>
      <trkpt lat="43.72147" lon="3.60194">
        <ele>209.224121</ele>
        <time>2015-02-22T16:01:13Z</time>
      </trkpt>
      <trkpt lat="43.72165" lon="3.60196">
        <ele>207.301392</ele>
        <time>2015-02-22T16:01:29Z</time>
      </trkpt>
      <trkpt lat="43.7217" lon="3.60196">
        <ele>210.666016</ele>
        <time>2015-02-22T16:01:34Z</time>
      </trkpt>
      <trkpt lat="43.72171" lon="3.6019">
        <ele>208.743408</ele>
        <time>2015-02-22T16:01:58Z</time>
      </trkpt>
      <trkpt lat="43.72172" lon="3.60193">
        <ele>209.704834</ele>
        <time>2015-02-22T16:02:24Z</time>
      </trkpt>
      <trkpt lat="43.72183" lon="3.60194">
        <ele>210.666016</ele>
        <time>2015-02-22T16:02:41Z</time>
      </trkpt>
      <trkpt lat="43.72186" lon="3.60196">
        <ele>208.743408</ele>
        <time>2015-02-22T16:02:44Z</time>
      </trkpt>
      <trkpt lat="43.72208" lon="3.60199">
        <ele>211.146729</ele>
        <time>2015-02-22T16:03:02Z</time>
      </trkpt>
      <trkpt lat="43.72223" lon="3.60194">
        <ele>212.108032</ele>
        <time>2015-02-22T16:03:16Z</time>
      </trkpt>
      <trkpt lat="43.72228" lon="3.60173">
        <ele>213.550049</ele>
        <time>2015-02-22T16:03:29Z</time>
      </trkpt>
      <trkpt lat="43.72229" lon="3.6017">
        <ele>212.588623</ele>
        <time>2015-02-22T16:03:31Z</time>
      </trkpt>
      <trkpt lat="43.72229" lon="3.60165">
        <ele>214.991943</ele>
        <time>2015-02-22T16:03:34Z</time>
      </trkpt>
      <trkpt lat="43.72231" lon="3.6016">
        <ele>211.146729</ele>
        <time>2015-02-22T16:03:37Z</time>
      </trkpt>
      <trkpt lat="43.72231" lon="3.60158">
        <ele>214.991943</ele>
        <time>2015-02-22T16:03:38Z</time>
      </trkpt>
      <trkpt lat="43.72232" lon="3.60155">
        <ele>216.914673</ele>
        <time>2015-02-22T16:03:40Z</time>
      </trkpt>
      <trkpt lat="43.72235" lon="3.60149">
        <ele>215.953247</ele>
        <time>2015-02-22T16:03:45Z</time>
      </trkpt>
      <trkpt lat="43.72238" lon="3.60149">
        <ele>217.395386</ele>
        <time>2015-02-22T16:03:48Z</time>
      </trkpt>
      <trkpt lat="43.72248" lon="3.60153">
        <ele>219.798584</ele>
        <time>2015-02-22T16:04:00Z</time>
      </trkpt>
      <trkpt lat="43.7226" lon="3.60153">
        <ele>220.759888</ele>
        <time>2015-02-22T16:04:11Z</time>
      </trkpt>
      <trkpt lat="43.72268" lon="3.60151">
        <ele>221.721191</ele>
        <time>2015-02-22T16:04:19Z</time>
      </trkpt>
      <trkpt lat="43.72279" lon="3.60151">
        <ele>222.682495</ele>
        <time>2015-02-22T16:04:30Z</time>
      </trkpt>
      <trkpt lat="43.72296" lon="3.60153">
        <ele>221.721191</ele>
        <time>2015-02-22T16:04:44Z</time>
      </trkpt>
      <trkpt lat="43.72314" lon="3.60157">
        <ele>222.682495</ele>
        <time>2015-02-22T16:04:59Z</time>
      </trkpt>
      <trkpt lat="43.72322" lon="3.60158">
        <ele>221.721191</ele>
        <time>2015-02-22T16:05:05Z</time>
      </trkpt>
      <trkpt lat="43.72338" lon="3.60152">
        <ele>225.566528</ele>
        <time>2015-02-22T16:05:20Z</time>
      </trkpt>
      <trkpt lat="43.72355" lon="3.6015">
        <ele>227.008545</ele>
        <time>2015-02-22T16:05:36Z</time>
      </trkpt>
      <trkpt lat="43.72371" lon="3.60147">
        <ele>227.489136</ele>
        <time>2015-02-22T16:05:50Z</time>
      </trkpt>
      <trkpt lat="43.7239" lon="3.6016">
        <ele>228.450439</ele>
        <time>2015-02-22T16:06:05Z</time>
      </trkpt>
      <trkpt lat="43.724" lon="3.60162">
        <ele>230.373047</ele>
        <time>2015-02-22T16:06:16Z</time>
      </trkpt>
      <trkpt lat="43.72402" lon="3.60164">
        <ele>229.411743</ele>
        <time>2015-02-22T16:06:18Z</time>
      </trkpt>
      <trkpt lat="43.72406" lon="3.60165">
        <ele>229.411743</ele>
        <time>2015-02-22T16:06:21Z</time>
      </trkpt>
      <trkpt lat="43.72422" lon="3.60161">
        <ele>230.85376</ele>
        <time>2015-02-22T16:06:36Z</time>
      </trkpt>
      <trkpt lat="43.72435" lon="3.60156">
        <ele>230.373047</ele>
        <time>2015-02-22T16:06:47Z</time>
      </trkpt>
      <trkpt lat="43.72443" lon="3.60154">
        <ele>229.411743</ele>
        <time>2015-02-22T16:06:54Z</time>
      </trkpt>
      <trkpt lat="43.72447" lon="3.60151">
        <ele>230.373047</ele>
        <time>2015-02-22T16:06:57Z</time>
      </trkpt>
      <trkpt lat="43.72455" lon="3.60133">
        <ele>228.450439</ele>
        <time>2015-02-22T16:07:11Z</time>
      </trkpt>
      <trkpt lat="43.72462" lon="3.60123">
        <ele>229.411743</ele>
        <time>2015-02-22T16:07:19Z</time>
      </trkpt>
      <trkpt lat="43.72475" lon="3.60107">
        <ele>229.892334</ele>
        <time>2015-02-22T16:07:34Z</time>
      </trkpt>
      <trkpt lat="43.72482" lon="3.60099">
        <ele>229.411743</ele>
        <time>2015-02-22T16:07:42Z</time>
      </trkpt>
      <trkpt lat="43.72485" lon="3.60095">
        <ele>231.334351</ele>
        <time>2015-02-22T16:07:45Z</time>
      </trkpt>
      <trkpt lat="43.72493" lon="3.60085">
        <ele>231.814941</ele>
        <time>2015-02-22T16:07:53Z</time>
      </trkpt>
      <trkpt lat="43.72505" lon="3.60067">
        <ele>230.85376</ele>
        <time>2015-02-22T16:08:08Z</time>
      </trkpt>
      <trkpt lat="43.72507" lon="3.60065">
        <ele>231.814941</ele>
        <time>2015-02-22T16:08:10Z</time>
      </trkpt>
      <trkpt lat="43.72511" lon="3.6006">
        <ele>233.737671</ele>
        <time>2015-02-22T16:08:14Z</time>
      </trkpt>
      <trkpt lat="43.72512" lon="3.60057">
        <ele>232.776489</ele>
        <time>2015-02-22T16:08:16Z</time>
      </trkpt>
      <trkpt lat="43.72519" lon="3.60043">
        <ele>232.295776</ele>
        <time>2015-02-22T16:08:26Z</time>
      </trkpt>
      <trkpt lat="43.72528" lon="3.60028">
        <ele>229.411743</ele>
        <time>2015-02-22T16:08:37Z</time>
      </trkpt>
      <trkpt lat="43.72544" lon="3.60012">
        <ele>230.373047</ele>
        <time>2015-02-22T16:08:53Z</time>
      </trkpt>
      <trkpt lat="43.72551" lon="3.60004">
        <ele>232.776489</ele>
        <time>2015-02-22T16:09:00Z</time>
      </trkpt>
      <trkpt lat="43.72555" lon="3.60001">
        <ele>229.411743</ele>
        <time>2015-02-22T16:09:03Z</time>
      </trkpt>
      <trkpt lat="43.72566" lon="3.59992">
        <ele>229.892334</ele>
        <time>2015-02-22T16:09:13Z</time>
      </trkpt>
      <trkpt lat="43.7257" lon="3.59988">
        <ele>228.931152</ele>
        <time>2015-02-22T16:09:17Z</time>
      </trkpt>
      <trkpt lat="43.72577" lon="3.59982">
        <ele>228.931152</ele>
        <time>2015-02-22T16:09:23Z</time>
      </trkpt>
      <trkpt lat="43.72591" lon="3.5999">
        <ele>230.373047</ele>
        <time>2015-02-22T16:09:37Z</time>
      </trkpt>
      <trkpt lat="43.72584" lon="3.59985">
        <ele>230.373047</ele>
        <time>2015-02-22T16:10:02Z</time>
      </trkpt>
      <trkpt lat="43.72583" lon="3.59984">
        <ele>229.892334</ele>
        <time>2015-02-22T16:10:04Z</time>
      </trkpt>
      <trkpt lat="43.72579" lon="3.59982">
        <ele>228.931152</ele>
        <time>2015-02-22T16:10:22Z</time>
      </trkpt>
      <trkpt lat="43.72584" lon="3.59986">
        <ele>229.892334</ele>
        <time>2015-02-22T16:10:36Z</time>
      </trkpt>
      <trkpt lat="43.72585" lon="3.59987">
        <ele>230.373047</ele>
        <time>2015-02-22T16:10:38Z</time>
      </trkpt>
      <trkpt lat="43.72591" lon="3.59992">
        <ele>230.85376</ele>
        <time>2015-02-22T16:10:44Z</time>
      </trkpt>
      <trkpt lat="43.72603" lon="3.60007">
        <ele>230.85376</ele>
        <time>2015-02-22T16:10:59Z</time>
      </trkpt>
      <trkpt lat="43.72609" lon="3.60022">
        <ele>227.969727</ele>
        <time>2015-02-22T16:11:10Z</time>
      </trkpt>
      <trkpt lat="43.72615" lon="3.60038">
        <ele>227.489136</ele>
        <time>2015-02-22T16:11:21Z</time>
      </trkpt>
      <trkpt lat="43.72617" lon="3.60041">
        <ele>228.931152</ele>
        <time>2015-02-22T16:11:23Z</time>
      </trkpt>
      <trkpt lat="43.72618" lon="3.60045">
        <ele>228.450439</ele>
        <time>2015-02-22T16:11:26Z</time>
      </trkpt>
      <trkpt lat="43.72619" lon="3.60059">
        <ele>227.489136</ele>
        <time>2015-02-22T16:11:35Z</time>
      </trkpt>
      <trkpt lat="43.72626" lon="3.60067">
        <ele>226.047119</ele>
        <time>2015-02-22T16:11:42Z</time>
      </trkpt>
      <trkpt lat="43.72631" lon="3.60071">
        <ele>225.566528</ele>
        <time>2015-02-22T16:11:46Z</time>
      </trkpt>
      <trkpt lat="43.72648" lon="3.60073">
        <ele>224.605225</ele>
        <time>2015-02-22T16:12:01Z</time>
      </trkpt>
      <trkpt lat="43.72662" lon="3.60072">
        <ele>222.201782</ele>
        <time>2015-02-22T16:12:14Z</time>
      </trkpt>
      <trkpt lat="43.72663" lon="3.6007">
        <ele>223.163208</ele>
        <time>2015-02-22T16:12:16Z</time>
      </trkpt>
      <trkpt lat="43.72672" lon="3.60067">
        <ele>222.201782</ele>
        <time>2015-02-22T16:12:23Z</time>
      </trkpt>
      <trkpt lat="43.72678" lon="3.60068">
        <ele>222.682495</ele>
        <time>2015-02-22T16:12:29Z</time>
      </trkpt>
      <trkpt lat="43.72698" lon="3.60072">
        <ele>220.279175</ele>
        <time>2015-02-22T16:12:47Z</time>
      </trkpt>
      <trkpt lat="43.727" lon="3.60072">
        <ele>221.721191</ele>
        <time>2015-02-22T16:12:48Z</time>
      </trkpt>
      <trkpt lat="43.7272" lon="3.60077">
        <ele>221.240601</ele>
        <time>2015-02-22T16:13:05Z</time>
      </trkpt>
      <trkpt lat="43.72729" lon="3.60078">
        <ele>219.317993</ele>
        <time>2015-02-22T16:13:13Z</time>
      </trkpt>
      <trkpt lat="43.72738" lon="3.60078">
        <ele>219.798584</ele>
        <time>2015-02-22T16:13:20Z</time>
      </trkpt>
      <trkpt lat="43.72742" lon="3.6008">
        <ele>218.356567</ele>
        <time>2015-02-22T16:13:25Z</time>
      </trkpt>
      <trkpt lat="43.72761" lon="3.60089">
        <ele>217.875977</ele>
        <time>2015-02-22T16:13:42Z</time>
      </trkpt>
      <trkpt lat="43.7278" lon="3.6009">
        <ele>216.914673</ele>
        <time>2015-02-22T16:13:59Z</time>
      </trkpt>
      <trkpt lat="43.72783" lon="3.60091">
        <ele>216.914673</ele>
        <time>2015-02-22T16:14:02Z</time>
      </trkpt>
      <trkpt lat="43.72787" lon="3.60093">
        <ele>214.991943</ele>
        <time>2015-02-22T16:14:05Z</time>
      </trkpt>
      <trkpt lat="43.72796" lon="3.60096">
        <ele>215.953247</ele>
        <time>2015-02-22T16:14:12Z</time>
      </trkpt>
      <trkpt lat="43.72808" lon="3.60101">
        <ele>215.472656</ele>
        <time>2015-02-22T16:14:22Z</time>
      </trkpt>
      <trkpt lat="43.72816" lon="3.60104">
        <ele>214.03064</ele>
        <time>2015-02-22T16:14:28Z</time>
      </trkpt>
      <trkpt lat="43.72835" lon="3.60109">
        <ele>214.991943</ele>
        <time>2015-02-22T16:14:43Z</time>
      </trkpt>
      <trkpt lat="43.72843" lon="3.60116">
        <ele>213.550049</ele>
        <time>2015-02-22T16:14:51Z</time>
      </trkpt>
      <trkpt lat="43.72846" lon="3.60123">
        <ele>213.550049</ele>
        <time>2015-02-22T16:14:56Z</time>
      </trkpt>
      <trkpt lat="43.72852" lon="3.6013">
        <ele>212.588623</ele>
        <time>2015-02-22T16:15:09Z</time>
      </trkpt>
      <trkpt lat="43.72858" lon="3.60132">
        <ele>214.03064</ele>
        <time>2015-02-22T16:15:25Z</time>
      </trkpt>
      <trkpt lat="43.72868" lon="3.60131">
        <ele>213.550049</ele>
        <time>2015-02-22T16:15:37Z</time>
      </trkpt>
      <trkpt lat="43.72866" lon="3.60134">
        <ele>213.069336</ele>
        <time>2015-02-22T16:15:57Z</time>
      </trkpt>
      <trkpt lat="43.72865" lon="3.60135">
        <ele>213.069336</ele>
        <time>2015-02-22T16:16:15Z</time>
      </trkpt>
      <trkpt lat="43.72866" lon="3.60135">
        <ele>213.069336</ele>
        <time>2015-02-22T16:16:59Z</time>
      </trkpt>
      <trkpt lat="43.72867" lon="3.60134">
        <ele>211.627441</ele>
        <time>2015-02-22T16:17:31Z</time>
      </trkpt>
      <trkpt lat="43.72872" lon="3.60135">
        <ele>212.588623</ele>
        <time>2015-02-22T16:17:48Z</time>
      </trkpt>
      <trkpt lat="43.72879" lon="3.60132">
        <ele>212.588623</ele>
        <time>2015-02-22T16:17:56Z</time>
      </trkpt>
      <trkpt lat="43.7288" lon="3.60127">
        <ele>211.627441</ele>
        <time>2015-02-22T16:17:59Z</time>
      </trkpt>
      <trkpt lat="43.7288" lon="3.60121">
        <ele>211.146729</ele>
        <time>2015-02-22T16:18:08Z</time>
      </trkpt>
      <trkpt lat="43.72879" lon="3.60122">
        <ele>68.390869</ele>
        <time>2015-02-22T19:40:31Z</time>
      </trkpt>
    </trkseg>
  </trk>
</gpx>